<?xml version="1.0" encoding="UTF-8" standalone="no" ?>
<gpx xmlns="http://www.topografix.com/GPX/1/1" xmlns:xsi="http://www.w3.org/2001/XMLSchema-instance" xsi:schemaLocation="http://www.topografix.com/GPX/1/1 http://www.topografix.com/GPX/1/1/gpx.xsd" version="1.1" creator="VisuGPX - https://www.visugpx.com">
  <metadata>
    <name>week end juin</name>
    <desc><![CDATA[samedi  27 dimanche 28  est ouest]]></desc>
  </metadata>
  <trk>
    <name><![CDATA[Tracé actuel: 27 JUIN 2015 07:13]]></name>
    <trkseg>
      <trkpt lat="43.13889" lon="5.91466">
        <ele>82.81</ele>
        <time>2015-06-27T05:13:16Z</time>
      </trkpt>
      <trkpt lat="43.13889" lon="5.91474">
        <ele>79.45</ele>
        <time>2015-06-27T05:13:44Z</time>
      </trkpt>
      <trkpt lat="43.13886" lon="5.91478">
        <ele>78.48</ele>
        <time>2015-06-27T05:14:13Z</time>
      </trkpt>
      <trkpt lat="43.13885" lon="5.91479">
        <ele>78.48</ele>
        <time>2015-06-27T05:14:14Z</time>
      </trkpt>
      <trkpt lat="43.13883" lon="5.9148">
        <ele>78</ele>
        <time>2015-06-27T05:14:16Z</time>
      </trkpt>
      <trkpt lat="43.13855" lon="5.91488">
        <ele>75.12</ele>
        <time>2015-06-27T05:14:42Z</time>
      </trkpt>
      <trkpt lat="43.13854" lon="5.91487">
        <ele>72.24</ele>
        <time>2015-06-27T05:15:07Z</time>
      </trkpt>
      <trkpt lat="43.13851" lon="5.91508">
        <ele>69.83</ele>
        <time>2015-06-27T05:15:35Z</time>
      </trkpt>
      <trkpt lat="43.13856" lon="5.91503">
        <ele>69.83</ele>
        <time>2015-06-27T05:16:14Z</time>
      </trkpt>
    </trkseg>
  </trk>
  <trk>
    <name><![CDATA[Tracé actuel: 27 JUIN 2015 07:16]]></name>
    <trkseg>
      <trkpt lat="43.13863" lon="5.91501">
        <ele>70.31</ele>
        <time>2015-06-27T05:16:26Z</time>
      </trkpt>
      <trkpt lat="43.13868" lon="5.91496">
        <ele>70.31</ele>
        <time>2015-06-27T05:16:55Z</time>
      </trkpt>
      <trkpt lat="43.13882" lon="5.91469">
        <ele>68.39</ele>
        <time>2015-06-27T05:17:19Z</time>
      </trkpt>
      <trkpt lat="43.13879" lon="5.91471">
        <ele>67.91</ele>
        <time>2015-06-27T05:17:33Z</time>
      </trkpt>
      <trkpt lat="43.13879" lon="5.91469">
        <ele>67.91</ele>
        <time>2015-06-27T05:17:50Z</time>
      </trkpt>
      <trkpt lat="43.13881" lon="5.91471">
        <ele>67.91</ele>
        <time>2015-06-27T05:18:17Z</time>
      </trkpt>
      <trkpt lat="43.13878" lon="5.91474">
        <ele>67.43</ele>
        <time>2015-06-27T05:18:45Z</time>
      </trkpt>
      <trkpt lat="43.13875" lon="5.91472">
        <ele>65.99</ele>
        <time>2015-06-27T05:19:08Z</time>
      </trkpt>
      <trkpt lat="43.13878" lon="5.91466">
        <ele>64.07</ele>
        <time>2015-06-27T05:19:27Z</time>
      </trkpt>
      <trkpt lat="43.13877" lon="5.91466">
        <ele>62.62</ele>
        <time>2015-06-27T05:19:47Z</time>
      </trkpt>
      <trkpt lat="43.13881" lon="5.91462">
        <ele>65.03</ele>
        <time>2015-06-27T05:20:01Z</time>
      </trkpt>
      <trkpt lat="43.13884" lon="5.91467">
        <ele>64.55</ele>
        <time>2015-06-27T05:20:19Z</time>
      </trkpt>
      <trkpt lat="43.13883" lon="5.91466">
        <ele>64.55</ele>
        <time>2015-06-27T05:20:26Z</time>
      </trkpt>
      <trkpt lat="43.13888" lon="5.9147">
        <ele>65.99</ele>
        <time>2015-06-27T05:20:38Z</time>
      </trkpt>
      <trkpt lat="43.13887" lon="5.91476">
        <ele>67.43</ele>
        <time>2015-06-27T05:20:50Z</time>
      </trkpt>
      <trkpt lat="43.13879" lon="5.91476">
        <ele>67.91</ele>
        <time>2015-06-27T05:21:06Z</time>
      </trkpt>
      <trkpt lat="43.13877" lon="5.91475">
        <ele>68.39</ele>
        <time>2015-06-27T05:21:21Z</time>
      </trkpt>
      <trkpt lat="43.13877" lon="5.91476">
        <ele>68.87</ele>
        <time>2015-06-27T05:21:34Z</time>
      </trkpt>
      <trkpt lat="43.13878" lon="5.91476">
        <ele>69.35</ele>
        <time>2015-06-27T05:21:48Z</time>
      </trkpt>
      <trkpt lat="43.13876" lon="5.91479">
        <ele>65.03</ele>
        <time>2015-06-27T05:22:03Z</time>
      </trkpt>
      <trkpt lat="43.13875" lon="5.91478">
        <ele>65.51</ele>
        <time>2015-06-27T05:22:17Z</time>
      </trkpt>
      <trkpt lat="43.13873" lon="5.91477">
        <ele>65.03</ele>
        <time>2015-06-27T05:22:50Z</time>
      </trkpt>
    </trkseg>
  </trk>
  <trk>
    <name><![CDATA[Tracé actuel: 27 JUIN 2015 07:23]]></name>
    <trkseg>
      <trkpt lat="43.13873" lon="5.91477">
        <ele>65.99</ele>
        <time>2015-06-27T05:23:14Z</time>
      </trkpt>
      <trkpt lat="43.13873" lon="5.91477">
        <ele>65.99</ele>
        <time>2015-06-27T05:23:38Z</time>
      </trkpt>
      <trkpt lat="43.13871" lon="5.91476">
        <ele>65.51</ele>
        <time>2015-06-27T05:23:53Z</time>
      </trkpt>
      <trkpt lat="43.13837" lon="5.91483">
        <ele>66.95</ele>
        <time>2015-06-27T05:24:09Z</time>
      </trkpt>
      <trkpt lat="43.13831" lon="5.91495">
        <ele>68.87</ele>
        <time>2015-06-27T05:24:14Z</time>
      </trkpt>
      <trkpt lat="43.13838" lon="5.91535">
        <ele>73.68</ele>
        <time>2015-06-27T05:24:28Z</time>
      </trkpt>
      <trkpt lat="43.13853" lon="5.91624">
        <ele>79.45</ele>
        <time>2015-06-27T05:24:41Z</time>
      </trkpt>
      <trkpt lat="43.13882" lon="5.91663">
        <ele>80.41</ele>
        <time>2015-06-27T05:24:47Z</time>
      </trkpt>
      <trkpt lat="43.13903" lon="5.91646">
        <ele>83.29</ele>
        <time>2015-06-27T05:24:54Z</time>
      </trkpt>
      <trkpt lat="43.13908" lon="5.91628">
        <ele>82.81</ele>
        <time>2015-06-27T05:24:58Z</time>
      </trkpt>
      <trkpt lat="43.13905" lon="5.9162">
        <ele>83.77</ele>
        <time>2015-06-27T05:25:02Z</time>
      </trkpt>
      <trkpt lat="43.13933" lon="5.91608">
        <ele>90.98</ele>
        <time>2015-06-27T05:25:12Z</time>
      </trkpt>
      <trkpt lat="43.13981" lon="5.91609">
        <ele>103.48</ele>
        <time>2015-06-27T05:25:26Z</time>
      </trkpt>
      <trkpt lat="43.14014" lon="5.91596">
        <ele>119.34</ele>
        <time>2015-06-27T05:25:41Z</time>
      </trkpt>
      <trkpt lat="43.1402" lon="5.91589">
        <ele>123.67</ele>
        <time>2015-06-27T05:25:45Z</time>
      </trkpt>
      <trkpt lat="43.14015" lon="5.9156">
        <ele>130.88</ele>
        <time>2015-06-27T05:25:52Z</time>
      </trkpt>
      <trkpt lat="43.14003" lon="5.91473">
        <ele>133.28</ele>
        <time>2015-06-27T05:26:01Z</time>
      </trkpt>
      <trkpt lat="43.14048" lon="5.91377">
        <ele>137.13</ele>
        <time>2015-06-27T05:26:15Z</time>
      </trkpt>
      <trkpt lat="43.14159" lon="5.9136">
        <ele>157.79</ele>
        <time>2015-06-27T05:26:34Z</time>
      </trkpt>
      <trkpt lat="43.14227" lon="5.91337">
        <ele>165.48</ele>
        <time>2015-06-27T05:26:43Z</time>
      </trkpt>
      <trkpt lat="43.14246" lon="5.91289">
        <ele>167.89</ele>
        <time>2015-06-27T05:26:49Z</time>
      </trkpt>
      <trkpt lat="43.14248" lon="5.91235">
        <ele>176.06</ele>
        <time>2015-06-27T05:26:56Z</time>
      </trkpt>
      <trkpt lat="43.14235" lon="5.9119">
        <ele>177.5</ele>
        <time>2015-06-27T05:27:04Z</time>
      </trkpt>
      <trkpt lat="43.14197" lon="5.91163">
        <ele>173.17</ele>
        <time>2015-06-27T05:27:16Z</time>
      </trkpt>
      <trkpt lat="43.14142" lon="5.91113">
        <ele>163.56</ele>
        <time>2015-06-27T05:27:31Z</time>
      </trkpt>
      <trkpt lat="43.14151" lon="5.91091">
        <ele>138.09</ele>
        <time>2015-06-27T05:27:43Z</time>
      </trkpt>
      <trkpt lat="43.14174" lon="5.91076">
        <ele>130.4</ele>
        <time>2015-06-27T05:27:50Z</time>
      </trkpt>
      <trkpt lat="43.14172" lon="5.91049">
        <ele>124.15</ele>
        <time>2015-06-27T05:28:00Z</time>
      </trkpt>
      <trkpt lat="43.14134" lon="5.91038">
        <ele>112.61</ele>
        <time>2015-06-27T05:28:14Z</time>
      </trkpt>
      <trkpt lat="43.14033" lon="5.91011">
        <ele>98.67</ele>
        <time>2015-06-27T05:28:30Z</time>
      </trkpt>
      <trkpt lat="43.13894" lon="5.90926">
        <ele>83.77</ele>
        <time>2015-06-27T05:28:54Z</time>
      </trkpt>
      <trkpt lat="43.13802" lon="5.90856">
        <ele>77.04</ele>
        <time>2015-06-27T05:29:12Z</time>
      </trkpt>
      <trkpt lat="43.13747" lon="5.90819">
        <ele>74.64</ele>
        <time>2015-06-27T05:29:23Z</time>
      </trkpt>
      <trkpt lat="43.13732" lon="5.90807">
        <ele>73.68</ele>
        <time>2015-06-27T05:29:26Z</time>
      </trkpt>
      <trkpt lat="43.13658" lon="5.90752">
        <ele>68.87</ele>
        <time>2015-06-27T05:29:40Z</time>
      </trkpt>
      <trkpt lat="43.13545" lon="5.90675">
        <ele>63.1</ele>
        <time>2015-06-27T05:30:01Z</time>
      </trkpt>
      <trkpt lat="43.1344" lon="5.90602">
        <ele>55.89</ele>
        <time>2015-06-27T05:30:21Z</time>
      </trkpt>
      <trkpt lat="43.13319" lon="5.90511">
        <ele>47.72</ele>
        <time>2015-06-27T05:30:43Z</time>
      </trkpt>
      <trkpt lat="43.13236" lon="5.90447">
        <ele>41.47</ele>
        <time>2015-06-27T05:30:59Z</time>
      </trkpt>
      <trkpt lat="43.13189" lon="5.90413">
        <ele>39.07</ele>
        <time>2015-06-27T05:31:10Z</time>
      </trkpt>
      <trkpt lat="43.13071" lon="5.9033">
        <ele>36.19</ele>
        <time>2015-06-27T05:31:31Z</time>
      </trkpt>
      <trkpt lat="43.12958" lon="5.90239">
        <ele>30.9</ele>
        <time>2015-06-27T05:31:51Z</time>
      </trkpt>
      <trkpt lat="43.12919" lon="5.90177">
        <ele>28.98</ele>
        <time>2015-06-27T05:32:05Z</time>
      </trkpt>
      <trkpt lat="43.12925" lon="5.90135">
        <ele>31.38</ele>
        <time>2015-06-27T05:32:17Z</time>
      </trkpt>
      <trkpt lat="43.12924" lon="5.90121">
        <ele>33.78</ele>
        <time>2015-06-27T05:32:27Z</time>
      </trkpt>
      <trkpt lat="43.12921" lon="5.90053">
        <ele>39.55</ele>
        <time>2015-06-27T05:32:38Z</time>
      </trkpt>
      <trkpt lat="43.12914" lon="5.89927">
        <ele>46.28</ele>
        <time>2015-06-27T05:32:54Z</time>
      </trkpt>
      <trkpt lat="43.12911" lon="5.89777">
        <ele>53.01</ele>
        <time>2015-06-27T05:33:13Z</time>
      </trkpt>
      <trkpt lat="43.12905" lon="5.89605">
        <ele>57.34</ele>
        <time>2015-06-27T05:33:35Z</time>
      </trkpt>
      <trkpt lat="43.12888" lon="5.89416">
        <ele>50.61</ele>
        <time>2015-06-27T05:33:57Z</time>
      </trkpt>
      <trkpt lat="43.12871" lon="5.89276">
        <ele>51.57</ele>
        <time>2015-06-27T05:34:17Z</time>
      </trkpt>
      <trkpt lat="43.12851" lon="5.8914">
        <ele>53.01</ele>
        <time>2015-06-27T05:34:39Z</time>
      </trkpt>
      <trkpt lat="43.12871" lon="5.89048">
        <ele>54.45</ele>
        <time>2015-06-27T05:34:56Z</time>
      </trkpt>
      <trkpt lat="43.12874" lon="5.89003">
        <ele>54.93</ele>
        <time>2015-06-27T05:35:03Z</time>
      </trkpt>
      <trkpt lat="43.12861" lon="5.88898">
        <ele>57.82</ele>
        <time>2015-06-27T05:35:20Z</time>
      </trkpt>
      <trkpt lat="43.12847" lon="5.8876">
        <ele>54.45</ele>
        <time>2015-06-27T05:35:36Z</time>
      </trkpt>
      <trkpt lat="43.1283" lon="5.88554">
        <ele>47.72</ele>
        <time>2015-06-27T05:35:55Z</time>
      </trkpt>
      <trkpt lat="43.12827" lon="5.8834">
        <ele>42.92</ele>
        <time>2015-06-27T05:36:18Z</time>
      </trkpt>
      <trkpt lat="43.12822" lon="5.88186">
        <ele>38.11</ele>
        <time>2015-06-27T05:36:39Z</time>
      </trkpt>
      <trkpt lat="43.12821" lon="5.88154">
        <ele>36.67</ele>
        <time>2015-06-27T05:36:44Z</time>
      </trkpt>
      <trkpt lat="43.12827" lon="5.88127">
        <ele>36.67</ele>
        <time>2015-06-27T05:36:49Z</time>
      </trkpt>
      <trkpt lat="43.12837" lon="5.88109">
        <ele>37.63</ele>
        <time>2015-06-27T05:36:53Z</time>
      </trkpt>
      <trkpt lat="43.12821" lon="5.88079">
        <ele>40.51</ele>
        <time>2015-06-27T05:37:01Z</time>
      </trkpt>
      <trkpt lat="43.12795" lon="5.8805">
        <ele>45.8</ele>
        <time>2015-06-27T05:37:09Z</time>
      </trkpt>
      <trkpt lat="43.1276" lon="5.87909">
        <ele>53.97</ele>
        <time>2015-06-27T05:37:28Z</time>
      </trkpt>
      <trkpt lat="43.12723" lon="5.87816">
        <ele>55.89</ele>
        <time>2015-06-27T05:37:40Z</time>
      </trkpt>
      <trkpt lat="43.12722" lon="5.87785">
        <ele>55.89</ele>
        <time>2015-06-27T05:37:44Z</time>
      </trkpt>
      <trkpt lat="43.12744" lon="5.87612">
        <ele>58.3</ele>
        <time>2015-06-27T05:38:04Z</time>
      </trkpt>
      <trkpt lat="43.12756" lon="5.87506">
        <ele>58.3</ele>
        <time>2015-06-27T05:38:16Z</time>
      </trkpt>
      <trkpt lat="43.12748" lon="5.87444">
        <ele>56.86</ele>
        <time>2015-06-27T05:38:24Z</time>
      </trkpt>
      <trkpt lat="43.12715" lon="5.87312">
        <ele>49.65</ele>
        <time>2015-06-27T05:38:41Z</time>
      </trkpt>
      <trkpt lat="43.12696" lon="5.87125">
        <ele>42.44</ele>
        <time>2015-06-27T05:39:05Z</time>
      </trkpt>
      <trkpt lat="43.12688" lon="5.86981">
        <ele>39.55</ele>
        <time>2015-06-27T05:39:26Z</time>
      </trkpt>
      <trkpt lat="43.12679" lon="5.86842">
        <ele>39.07</ele>
        <time>2015-06-27T05:39:46Z</time>
      </trkpt>
      <trkpt lat="43.12676" lon="5.86795">
        <ele>39.07</ele>
        <time>2015-06-27T05:39:53Z</time>
      </trkpt>
      <trkpt lat="43.12677" lon="5.86764">
        <ele>38.59</ele>
        <time>2015-06-27T05:39:58Z</time>
      </trkpt>
      <trkpt lat="43.12673" lon="5.86649">
        <ele>39.07</ele>
        <time>2015-06-27T05:40:18Z</time>
      </trkpt>
      <trkpt lat="43.12665" lon="5.86518">
        <ele>38.59</ele>
        <time>2015-06-27T05:40:40Z</time>
      </trkpt>
      <trkpt lat="43.12671" lon="5.86419">
        <ele>40.51</ele>
        <time>2015-06-27T05:41:01Z</time>
      </trkpt>
      <trkpt lat="43.12704" lon="5.86306">
        <ele>43.4</ele>
        <time>2015-06-27T05:41:23Z</time>
      </trkpt>
      <trkpt lat="43.12748" lon="5.86162">
        <ele>48.2</ele>
        <time>2015-06-27T05:41:51Z</time>
      </trkpt>
      <trkpt lat="43.12764" lon="5.8606">
        <ele>51.57</ele>
        <time>2015-06-27T05:42:12Z</time>
      </trkpt>
      <trkpt lat="43.12764" lon="5.85948">
        <ele>53.49</ele>
        <time>2015-06-27T05:42:30Z</time>
      </trkpt>
      <trkpt lat="43.12763" lon="5.85817">
        <ele>52.53</ele>
        <time>2015-06-27T05:42:47Z</time>
      </trkpt>
      <trkpt lat="43.12769" lon="5.85788">
        <ele>52.05</ele>
        <time>2015-06-27T05:42:51Z</time>
      </trkpt>
      <trkpt lat="43.12774" lon="5.85773">
        <ele>51.57</ele>
        <time>2015-06-27T05:42:53Z</time>
      </trkpt>
      <trkpt lat="43.12771" lon="5.85737">
        <ele>51.57</ele>
        <time>2015-06-27T05:42:58Z</time>
      </trkpt>
      <trkpt lat="43.1276" lon="5.85625">
        <ele>53.49</ele>
        <time>2015-06-27T05:43:11Z</time>
      </trkpt>
      <trkpt lat="43.12775" lon="5.85435">
        <ele>51.57</ele>
        <time>2015-06-27T05:43:30Z</time>
      </trkpt>
      <trkpt lat="43.12752" lon="5.85242">
        <ele>45.32</ele>
        <time>2015-06-27T05:43:50Z</time>
      </trkpt>
      <trkpt lat="43.12752" lon="5.85232">
        <ele>44.84</ele>
        <time>2015-06-27T05:43:51Z</time>
      </trkpt>
      <trkpt lat="43.1276" lon="5.85161">
        <ele>42.92</ele>
        <time>2015-06-27T05:43:59Z</time>
      </trkpt>
      <trkpt lat="43.12758" lon="5.85154">
        <ele>42.92</ele>
        <time>2015-06-27T05:44:00Z</time>
      </trkpt>
      <trkpt lat="43.12735" lon="5.8502">
        <ele>41.47</ele>
        <time>2015-06-27T05:44:15Z</time>
      </trkpt>
      <trkpt lat="43.12742" lon="5.84836">
        <ele>40.03</ele>
        <time>2015-06-27T05:44:34Z</time>
      </trkpt>
      <trkpt lat="43.12745" lon="5.84749">
        <ele>39.07</ele>
        <time>2015-06-27T05:44:43Z</time>
      </trkpt>
      <trkpt lat="43.12749" lon="5.84727">
        <ele>39.07</ele>
        <time>2015-06-27T05:44:46Z</time>
      </trkpt>
      <trkpt lat="43.12774" lon="5.84708">
        <ele>40.51</ele>
        <time>2015-06-27T05:44:53Z</time>
      </trkpt>
      <trkpt lat="43.12783" lon="5.84708">
        <ele>40.51</ele>
        <time>2015-06-27T05:44:55Z</time>
      </trkpt>
      <trkpt lat="43.12876" lon="5.84758">
        <ele>42.44</ele>
        <time>2015-06-27T05:45:14Z</time>
      </trkpt>
      <trkpt lat="43.12952" lon="5.84779">
        <ele>44.36</ele>
        <time>2015-06-27T05:45:33Z</time>
      </trkpt>
      <trkpt lat="43.13018" lon="5.84834">
        <ele>47.72</ele>
        <time>2015-06-27T05:45:50Z</time>
      </trkpt>
      <trkpt lat="43.13098" lon="5.84903">
        <ele>47.24</ele>
        <time>2015-06-27T05:46:11Z</time>
      </trkpt>
      <trkpt lat="43.13144" lon="5.84919">
        <ele>48.2</ele>
        <time>2015-06-27T05:46:21Z</time>
      </trkpt>
      <trkpt lat="43.13235" lon="5.84936">
        <ele>47.72</ele>
        <time>2015-06-27T05:46:39Z</time>
      </trkpt>
      <trkpt lat="43.13318" lon="5.84943">
        <ele>51.57</ele>
        <time>2015-06-27T05:46:56Z</time>
      </trkpt>
      <trkpt lat="43.13335" lon="5.8495">
        <ele>52.53</ele>
        <time>2015-06-27T05:47:00Z</time>
      </trkpt>
      <trkpt lat="43.13429" lon="5.84964">
        <ele>57.82</ele>
        <time>2015-06-27T05:47:19Z</time>
      </trkpt>
      <trkpt lat="43.13446" lon="5.8496">
        <ele>57.34</ele>
        <time>2015-06-27T05:47:23Z</time>
      </trkpt>
      <trkpt lat="43.13521" lon="5.84888">
        <ele>59.26</ele>
        <time>2015-06-27T05:47:42Z</time>
      </trkpt>
      <trkpt lat="43.13577" lon="5.84855">
        <ele>60.22</ele>
        <time>2015-06-27T05:47:55Z</time>
      </trkpt>
      <trkpt lat="43.13605" lon="5.84867">
        <ele>62.62</ele>
        <time>2015-06-27T05:48:04Z</time>
      </trkpt>
      <trkpt lat="43.13606" lon="5.84872">
        <ele>63.1</ele>
        <time>2015-06-27T05:48:05Z</time>
      </trkpt>
      <trkpt lat="43.13612" lon="5.84957">
        <ele>76.08</ele>
        <time>2015-06-27T05:48:24Z</time>
      </trkpt>
      <trkpt lat="43.13616" lon="5.85037">
        <ele>85.69</ele>
        <time>2015-06-27T05:48:42Z</time>
      </trkpt>
      <trkpt lat="43.13622" lon="5.85089">
        <ele>91.46</ele>
        <time>2015-06-27T05:48:56Z</time>
      </trkpt>
      <trkpt lat="43.1364" lon="5.85098">
        <ele>92.42</ele>
        <time>2015-06-27T05:49:10Z</time>
      </trkpt>
      <trkpt lat="43.13678" lon="5.85062">
        <ele>92.9</ele>
        <time>2015-06-27T05:49:23Z</time>
      </trkpt>
      <trkpt lat="43.13686" lon="5.85057">
        <ele>92.9</ele>
        <time>2015-06-27T05:49:25Z</time>
      </trkpt>
      <trkpt lat="43.13801" lon="5.8503">
        <ele>88.58</ele>
        <time>2015-06-27T05:49:47Z</time>
      </trkpt>
      <trkpt lat="43.13918" lon="5.84999">
        <ele>78.97</ele>
        <time>2015-06-27T05:50:10Z</time>
      </trkpt>
      <trkpt lat="43.14038" lon="5.84963">
        <ele>79.45</ele>
        <time>2015-06-27T05:50:29Z</time>
      </trkpt>
      <trkpt lat="43.14129" lon="5.84886">
        <ele>75.6</ele>
        <time>2015-06-27T05:50:43Z</time>
      </trkpt>
      <trkpt lat="43.14214" lon="5.848">
        <ele>69.83</ele>
        <time>2015-06-27T05:51:02Z</time>
      </trkpt>
      <trkpt lat="43.14302" lon="5.84711">
        <ele>68.39</ele>
        <time>2015-06-27T05:51:25Z</time>
      </trkpt>
      <trkpt lat="43.14347" lon="5.84688">
        <ele>68.87</ele>
        <time>2015-06-27T05:51:35Z</time>
      </trkpt>
      <trkpt lat="43.14448" lon="5.84722">
        <ele>68.39</ele>
        <time>2015-06-27T05:51:54Z</time>
      </trkpt>
      <trkpt lat="43.14558" lon="5.8479">
        <ele>68.87</ele>
        <time>2015-06-27T05:52:17Z</time>
      </trkpt>
      <trkpt lat="43.14647" lon="5.84825">
        <ele>69.83</ele>
        <time>2015-06-27T05:52:36Z</time>
      </trkpt>
      <trkpt lat="43.14725" lon="5.84811">
        <ele>70.79</ele>
        <time>2015-06-27T05:52:53Z</time>
      </trkpt>
      <trkpt lat="43.14797" lon="5.84729">
        <ele>74.64</ele>
        <time>2015-06-27T05:53:12Z</time>
      </trkpt>
      <trkpt lat="43.14826" lon="5.8469">
        <ele>75.6</ele>
        <time>2015-06-27T05:53:21Z</time>
      </trkpt>
      <trkpt lat="43.1485" lon="5.84678">
        <ele>76.56</ele>
        <time>2015-06-27T05:53:26Z</time>
      </trkpt>
      <trkpt lat="43.14898" lon="5.84698">
        <ele>77.52</ele>
        <time>2015-06-27T05:53:39Z</time>
      </trkpt>
      <trkpt lat="43.14974" lon="5.84756">
        <ele>76.56</ele>
        <time>2015-06-27T05:54:01Z</time>
      </trkpt>
      <trkpt lat="43.15042" lon="5.84816">
        <ele>77.52</ele>
        <time>2015-06-27T05:54:22Z</time>
      </trkpt>
      <trkpt lat="43.15077" lon="5.84833">
        <ele>78</ele>
        <time>2015-06-27T05:54:30Z</time>
      </trkpt>
      <trkpt lat="43.15126" lon="5.84822">
        <ele>79.45</ele>
        <time>2015-06-27T05:54:40Z</time>
      </trkpt>
      <trkpt lat="43.15169" lon="5.84748">
        <ele>79.45</ele>
        <time>2015-06-27T05:54:53Z</time>
      </trkpt>
      <trkpt lat="43.15172" lon="5.84724">
        <ele>79.45</ele>
        <time>2015-06-27T05:54:57Z</time>
      </trkpt>
      <trkpt lat="43.1516" lon="5.84561">
        <ele>80.41</ele>
        <time>2015-06-27T05:55:22Z</time>
      </trkpt>
      <trkpt lat="43.15172" lon="5.84495">
        <ele>79.45</ele>
        <time>2015-06-27T05:55:35Z</time>
      </trkpt>
      <trkpt lat="43.15208" lon="5.84476">
        <ele>80.89</ele>
        <time>2015-06-27T05:55:48Z</time>
      </trkpt>
      <trkpt lat="43.15238" lon="5.84452">
        <ele>81.37</ele>
        <time>2015-06-27T05:56:02Z</time>
      </trkpt>
      <trkpt lat="43.15308" lon="5.84486">
        <ele>87.14</ele>
        <time>2015-06-27T05:56:13Z</time>
      </trkpt>
      <trkpt lat="43.15402" lon="5.84471">
        <ele>86.66</ele>
        <time>2015-06-27T05:56:29Z</time>
      </trkpt>
      <trkpt lat="43.15464" lon="5.84416">
        <ele>87.14</ele>
        <time>2015-06-27T05:56:49Z</time>
      </trkpt>
      <trkpt lat="43.15481" lon="5.84393">
        <ele>88.1</ele>
        <time>2015-06-27T05:56:54Z</time>
      </trkpt>
      <trkpt lat="43.15512" lon="5.84303">
        <ele>85.21</ele>
        <time>2015-06-27T05:57:10Z</time>
      </trkpt>
      <trkpt lat="43.15547" lon="5.84284">
        <ele>85.69</ele>
        <time>2015-06-27T05:57:21Z</time>
      </trkpt>
      <trkpt lat="43.15606" lon="5.84293">
        <ele>87.62</ele>
        <time>2015-06-27T05:57:39Z</time>
      </trkpt>
      <trkpt lat="43.15646" lon="5.84383">
        <ele>89.54</ele>
        <time>2015-06-27T05:57:54Z</time>
      </trkpt>
      <trkpt lat="43.15696" lon="5.84468">
        <ele>91.46</ele>
        <time>2015-06-27T05:58:12Z</time>
      </trkpt>
      <trkpt lat="43.15736" lon="5.84505">
        <ele>92.9</ele>
        <time>2015-06-27T05:58:26Z</time>
      </trkpt>
      <trkpt lat="43.15762" lon="5.84475">
        <ele>92.42</ele>
        <time>2015-06-27T05:58:37Z</time>
      </trkpt>
      <trkpt lat="43.15804" lon="5.84401">
        <ele>90.98</ele>
        <time>2015-06-27T05:58:53Z</time>
      </trkpt>
      <trkpt lat="43.15853" lon="5.84381">
        <ele>97.71</ele>
        <time>2015-06-27T05:59:08Z</time>
      </trkpt>
      <trkpt lat="43.15902" lon="5.84377">
        <ele>104.92</ele>
        <time>2015-06-27T05:59:22Z</time>
      </trkpt>
      <trkpt lat="43.15947" lon="5.84333">
        <ele>105.4</ele>
        <time>2015-06-27T05:59:37Z</time>
      </trkpt>
      <trkpt lat="43.15956" lon="5.84248">
        <ele>109.73</ele>
        <time>2015-06-27T05:59:55Z</time>
      </trkpt>
      <trkpt lat="43.15951" lon="5.84163">
        <ele>112.61</ele>
        <time>2015-06-27T06:00:11Z</time>
      </trkpt>
      <trkpt lat="43.15914" lon="5.84081">
        <ele>120.78</ele>
        <time>2015-06-27T06:00:29Z</time>
      </trkpt>
      <trkpt lat="43.15868" lon="5.84032">
        <ele>126.55</ele>
        <time>2015-06-27T06:00:48Z</time>
      </trkpt>
      <trkpt lat="43.15811" lon="5.83997">
        <ele>130.4</ele>
        <time>2015-06-27T06:01:04Z</time>
      </trkpt>
      <trkpt lat="43.15778" lon="5.83934">
        <ele>133.28</ele>
        <time>2015-06-27T06:01:20Z</time>
      </trkpt>
      <trkpt lat="43.15792" lon="5.83883">
        <ele>138.09</ele>
        <time>2015-06-27T06:01:35Z</time>
      </trkpt>
      <trkpt lat="43.15804" lon="5.83852">
        <ele>140.97</ele>
        <time>2015-06-27T06:01:42Z</time>
      </trkpt>
      <trkpt lat="43.158" lon="5.83809">
        <ele>143.85</ele>
        <time>2015-06-27T06:01:49Z</time>
      </trkpt>
      <trkpt lat="43.15775" lon="5.83706">
        <ele>147.7</ele>
        <time>2015-06-27T06:02:08Z</time>
      </trkpt>
      <trkpt lat="43.15796" lon="5.83655">
        <ele>148.66</ele>
        <time>2015-06-27T06:02:24Z</time>
      </trkpt>
      <trkpt lat="43.15825" lon="5.8361">
        <ele>148.18</ele>
        <time>2015-06-27T06:02:41Z</time>
      </trkpt>
      <trkpt lat="43.15858" lon="5.83541">
        <ele>147.22</ele>
        <time>2015-06-27T06:02:55Z</time>
      </trkpt>
      <trkpt lat="43.15891" lon="5.83428">
        <ele>146.26</ele>
        <time>2015-06-27T06:03:11Z</time>
      </trkpt>
      <trkpt lat="43.1593" lon="5.83266">
        <ele>146.74</ele>
        <time>2015-06-27T06:03:32Z</time>
      </trkpt>
      <trkpt lat="43.16015" lon="5.83149">
        <ele>147.7</ele>
        <time>2015-06-27T06:03:48Z</time>
      </trkpt>
      <trkpt lat="43.16086" lon="5.83119">
        <ele>150.1</ele>
        <time>2015-06-27T06:04:06Z</time>
      </trkpt>
      <trkpt lat="43.16138" lon="5.83147">
        <ele>148.66</ele>
        <time>2015-06-27T06:04:25Z</time>
      </trkpt>
      <trkpt lat="43.16207" lon="5.83263">
        <ele>167.89</ele>
        <time>2015-06-27T06:04:42Z</time>
      </trkpt>
      <trkpt lat="43.1625" lon="5.83296">
        <ele>173.17</ele>
        <time>2015-06-27T06:04:59Z</time>
      </trkpt>
      <trkpt lat="43.1629" lon="5.83296">
        <ele>178.46</ele>
        <time>2015-06-27T06:05:15Z</time>
      </trkpt>
      <trkpt lat="43.16292" lon="5.8326">
        <ele>176.06</ele>
        <time>2015-06-27T06:05:29Z</time>
      </trkpt>
      <trkpt lat="43.16303" lon="5.8318">
        <ele>175.58</ele>
        <time>2015-06-27T06:05:43Z</time>
      </trkpt>
      <trkpt lat="43.1637" lon="5.83082">
        <ele>173.17</ele>
        <time>2015-06-27T06:05:58Z</time>
      </trkpt>
      <trkpt lat="43.1647" lon="5.82986">
        <ele>177.02</ele>
        <time>2015-06-27T06:06:16Z</time>
      </trkpt>
      <trkpt lat="43.16564" lon="5.82923">
        <ele>179.42</ele>
        <time>2015-06-27T06:06:37Z</time>
      </trkpt>
      <trkpt lat="43.16669" lon="5.82867">
        <ele>176.06</ele>
        <time>2015-06-27T06:07:04Z</time>
      </trkpt>
      <trkpt lat="43.16747" lon="5.82836">
        <ele>171.73</ele>
        <time>2015-06-27T06:07:25Z</time>
      </trkpt>
      <trkpt lat="43.16817" lon="5.82863">
        <ele>172.21</ele>
        <time>2015-06-27T06:07:41Z</time>
      </trkpt>
      <trkpt lat="43.16905" lon="5.82885">
        <ele>178.94</ele>
        <time>2015-06-27T06:08:01Z</time>
      </trkpt>
      <trkpt lat="43.16986" lon="5.82924">
        <ele>184.71</ele>
        <time>2015-06-27T06:08:21Z</time>
      </trkpt>
      <trkpt lat="43.17073" lon="5.82996">
        <ele>183.27</ele>
        <time>2015-06-27T06:08:43Z</time>
      </trkpt>
      <trkpt lat="43.17148" lon="5.83026">
        <ele>189.52</ele>
        <time>2015-06-27T06:09:01Z</time>
      </trkpt>
      <trkpt lat="43.17222" lon="5.82999">
        <ele>183.75</ele>
        <time>2015-06-27T06:09:22Z</time>
      </trkpt>
      <trkpt lat="43.17276" lon="5.82964">
        <ele>178.94</ele>
        <time>2015-06-27T06:09:43Z</time>
      </trkpt>
      <trkpt lat="43.17325" lon="5.82931">
        <ele>181.35</ele>
        <time>2015-06-27T06:09:58Z</time>
      </trkpt>
      <trkpt lat="43.17387" lon="5.82889">
        <ele>178.46</ele>
        <time>2015-06-27T06:10:19Z</time>
      </trkpt>
      <trkpt lat="43.17482" lon="5.82828">
        <ele>174.14</ele>
        <time>2015-06-27T06:10:44Z</time>
      </trkpt>
      <trkpt lat="43.17543" lon="5.82768">
        <ele>175.58</ele>
        <time>2015-06-27T06:11:00Z</time>
      </trkpt>
      <trkpt lat="43.17615" lon="5.82724">
        <ele>181.83</ele>
        <time>2015-06-27T06:11:19Z</time>
      </trkpt>
      <trkpt lat="43.17678" lon="5.8269">
        <ele>180.38</ele>
        <time>2015-06-27T06:11:40Z</time>
      </trkpt>
      <trkpt lat="43.17735" lon="5.82653">
        <ele>181.35</ele>
        <time>2015-06-27T06:12:00Z</time>
      </trkpt>
      <trkpt lat="43.17797" lon="5.82619">
        <ele>185.19</ele>
        <time>2015-06-27T06:12:20Z</time>
      </trkpt>
      <trkpt lat="43.17889" lon="5.82542">
        <ele>185.19</ele>
        <time>2015-06-27T06:12:42Z</time>
      </trkpt>
      <trkpt lat="43.17969" lon="5.8248">
        <ele>189.04</ele>
        <time>2015-06-27T06:13:09Z</time>
      </trkpt>
      <trkpt lat="43.18037" lon="5.82414">
        <ele>192.88</ele>
        <time>2015-06-27T06:13:34Z</time>
      </trkpt>
      <trkpt lat="43.18088" lon="5.82373">
        <ele>199.13</ele>
        <time>2015-06-27T06:13:54Z</time>
      </trkpt>
      <trkpt lat="43.18161" lon="5.8231">
        <ele>199.61</ele>
        <time>2015-06-27T06:14:16Z</time>
      </trkpt>
      <trkpt lat="43.18243" lon="5.82227">
        <ele>200.09</ele>
        <time>2015-06-27T06:14:39Z</time>
      </trkpt>
      <trkpt lat="43.18307" lon="5.82171">
        <ele>199.61</ele>
        <time>2015-06-27T06:15:01Z</time>
      </trkpt>
      <trkpt lat="43.18378" lon="5.82092">
        <ele>201.53</ele>
        <time>2015-06-27T06:15:20Z</time>
      </trkpt>
      <trkpt lat="43.18448" lon="5.8203">
        <ele>201.05</ele>
        <time>2015-06-27T06:15:43Z</time>
      </trkpt>
      <trkpt lat="43.18532" lon="5.81947">
        <ele>204.9</ele>
        <time>2015-06-27T06:16:07Z</time>
      </trkpt>
      <trkpt lat="43.18619" lon="5.8186">
        <ele>207.78</ele>
        <time>2015-06-27T06:16:29Z</time>
      </trkpt>
      <trkpt lat="43.18707" lon="5.81777">
        <ele>218.36</ele>
        <time>2015-06-27T06:16:50Z</time>
      </trkpt>
      <trkpt lat="43.18817" lon="5.81654">
        <ele>220.76</ele>
        <time>2015-06-27T06:17:15Z</time>
      </trkpt>
      <trkpt lat="43.18903" lon="5.81548">
        <ele>215.95</ele>
        <time>2015-06-27T06:17:35Z</time>
      </trkpt>
      <trkpt lat="43.19002" lon="5.8141">
        <ele>212.59</ele>
        <time>2015-06-27T06:17:52Z</time>
      </trkpt>
      <trkpt lat="43.19099" lon="5.81281">
        <ele>210.19</ele>
        <time>2015-06-27T06:18:10Z</time>
      </trkpt>
      <trkpt lat="43.19162" lon="5.81241">
        <ele>210.67</ele>
        <time>2015-06-27T06:18:22Z</time>
      </trkpt>
      <trkpt lat="43.19169" lon="5.81235">
        <ele>210.67</ele>
        <time>2015-06-27T06:18:24Z</time>
      </trkpt>
      <trkpt lat="43.19172" lon="5.81193">
        <ele>208.74</ele>
        <time>2015-06-27T06:18:31Z</time>
      </trkpt>
      <trkpt lat="43.192" lon="5.81138">
        <ele>207.78</ele>
        <time>2015-06-27T06:18:40Z</time>
      </trkpt>
      <trkpt lat="43.19293" lon="5.81017">
        <ele>206.34</ele>
        <time>2015-06-27T06:19:00Z</time>
      </trkpt>
      <trkpt lat="43.19388" lon="5.80894">
        <ele>205.38</ele>
        <time>2015-06-27T06:19:21Z</time>
      </trkpt>
      <trkpt lat="43.19487" lon="5.80756">
        <ele>202.49</ele>
        <time>2015-06-27T06:19:41Z</time>
      </trkpt>
      <trkpt lat="43.19569" lon="5.80654">
        <ele>202.01</ele>
        <time>2015-06-27T06:19:58Z</time>
      </trkpt>
      <trkpt lat="43.19614" lon="5.80579">
        <ele>202.01</ele>
        <time>2015-06-27T06:20:11Z</time>
      </trkpt>
      <trkpt lat="43.19624" lon="5.80569">
        <ele>202.49</ele>
        <time>2015-06-27T06:20:14Z</time>
      </trkpt>
      <trkpt lat="43.19715" lon="5.80562">
        <ele>202.98</ele>
        <time>2015-06-27T06:20:28Z</time>
      </trkpt>
      <trkpt lat="43.19835" lon="5.80602">
        <ele>204.9</ele>
        <time>2015-06-27T06:20:42Z</time>
      </trkpt>
      <trkpt lat="43.19881" lon="5.80664">
        <ele>248.16</ele>
        <time>2015-06-27T06:20:45Z</time>
      </trkpt>
      <trkpt lat="43.19974" lon="5.80719">
        <ele>240.95</ele>
        <time>2015-06-27T06:21:00Z</time>
      </trkpt>
      <trkpt lat="43.20067" lon="5.80784">
        <ele>229.41</ele>
        <time>2015-06-27T06:21:15Z</time>
      </trkpt>
      <trkpt lat="43.20072" lon="5.80787">
        <ele>229.41</ele>
        <time>2015-06-27T06:21:16Z</time>
      </trkpt>
      <trkpt lat="43.20158" lon="5.808">
        <ele>213.07</ele>
        <time>2015-06-27T06:21:35Z</time>
      </trkpt>
      <trkpt lat="43.20251" lon="5.80794">
        <ele>205.86</ele>
        <time>2015-06-27T06:21:59Z</time>
      </trkpt>
      <trkpt lat="43.20329" lon="5.80791">
        <ele>204.9</ele>
        <time>2015-06-27T06:22:21Z</time>
      </trkpt>
      <trkpt lat="43.20385" lon="5.80801">
        <ele>205.86</ele>
        <time>2015-06-27T06:22:38Z</time>
      </trkpt>
      <trkpt lat="43.20442" lon="5.80849">
        <ele>207.78</ele>
        <time>2015-06-27T06:22:56Z</time>
      </trkpt>
      <trkpt lat="43.20493" lon="5.80893">
        <ele>208.26</ele>
        <time>2015-06-27T06:23:16Z</time>
      </trkpt>
      <trkpt lat="43.20553" lon="5.80935">
        <ele>208.74</ele>
        <time>2015-06-27T06:23:38Z</time>
      </trkpt>
      <trkpt lat="43.2062" lon="5.80991">
        <ele>209.22</ele>
        <time>2015-06-27T06:23:55Z</time>
      </trkpt>
      <trkpt lat="43.20734" lon="5.81101">
        <ele>209.7</ele>
        <time>2015-06-27T06:24:20Z</time>
      </trkpt>
      <trkpt lat="43.20841" lon="5.81185">
        <ele>210.19</ele>
        <time>2015-06-27T06:24:41Z</time>
      </trkpt>
      <trkpt lat="43.2089" lon="5.81199">
        <ele>210.19</ele>
        <time>2015-06-27T06:24:54Z</time>
      </trkpt>
      <trkpt lat="43.20889" lon="5.81211">
        <ele>203.94</ele>
        <time>2015-06-27T06:25:12Z</time>
      </trkpt>
      <trkpt lat="43.20889" lon="5.81215">
        <ele>195.77</ele>
        <time>2015-06-27T06:25:46Z</time>
      </trkpt>
      <trkpt lat="43.20882" lon="5.8121">
        <ele>195.77</ele>
        <time>2015-06-27T06:26:00Z</time>
      </trkpt>
      <trkpt lat="43.20881" lon="5.81207">
        <ele>195.28</ele>
        <time>2015-06-27T06:26:28Z</time>
      </trkpt>
      <trkpt lat="43.20881" lon="5.81205">
        <ele>195.28</ele>
        <time>2015-06-27T06:26:59Z</time>
      </trkpt>
      <trkpt lat="43.2088" lon="5.81204">
        <ele>196.25</ele>
        <time>2015-06-27T06:27:27Z</time>
      </trkpt>
      <trkpt lat="43.20886" lon="5.81202">
        <ele>196.73</ele>
        <time>2015-06-27T06:27:51Z</time>
      </trkpt>
      <trkpt lat="43.20941" lon="5.81197">
        <ele>198.17</ele>
        <time>2015-06-27T06:28:06Z</time>
      </trkpt>
      <trkpt lat="43.21025" lon="5.81162">
        <ele>199.61</ele>
        <time>2015-06-27T06:28:29Z</time>
      </trkpt>
      <trkpt lat="43.21072" lon="5.81141">
        <ele>201.53</ele>
        <time>2015-06-27T06:28:49Z</time>
      </trkpt>
      <trkpt lat="43.21127" lon="5.81109">
        <ele>202.49</ele>
        <time>2015-06-27T06:29:08Z</time>
      </trkpt>
      <trkpt lat="43.21189" lon="5.81107">
        <ele>204.42</ele>
        <time>2015-06-27T06:29:26Z</time>
      </trkpt>
      <trkpt lat="43.21236" lon="5.8116">
        <ele>206.34</ele>
        <time>2015-06-27T06:29:43Z</time>
      </trkpt>
      <trkpt lat="43.21261" lon="5.81239">
        <ele>208.74</ele>
        <time>2015-06-27T06:29:57Z</time>
      </trkpt>
      <trkpt lat="43.21292" lon="5.81409">
        <ele>211.15</ele>
        <time>2015-06-27T06:30:16Z</time>
      </trkpt>
      <trkpt lat="43.21296" lon="5.81426">
        <ele>211.15</ele>
        <time>2015-06-27T06:30:18Z</time>
      </trkpt>
      <trkpt lat="43.21338" lon="5.81466">
        <ele>211.15</ele>
        <time>2015-06-27T06:30:26Z</time>
      </trkpt>
      <trkpt lat="43.21358" lon="5.81431">
        <ele>212.11</ele>
        <time>2015-06-27T06:30:33Z</time>
      </trkpt>
      <trkpt lat="43.21358" lon="5.81423">
        <ele>212.11</ele>
        <time>2015-06-27T06:30:34Z</time>
      </trkpt>
      <trkpt lat="43.21362" lon="5.81333">
        <ele>211.63</ele>
        <time>2015-06-27T06:30:51Z</time>
      </trkpt>
      <trkpt lat="43.2138" lon="5.81245">
        <ele>211.15</ele>
        <time>2015-06-27T06:31:12Z</time>
      </trkpt>
      <trkpt lat="43.2141" lon="5.8115">
        <ele>211.15</ele>
        <time>2015-06-27T06:31:35Z</time>
      </trkpt>
      <trkpt lat="43.21459" lon="5.81072">
        <ele>213.07</ele>
        <time>2015-06-27T06:32:00Z</time>
      </trkpt>
      <trkpt lat="43.21507" lon="5.81053">
        <ele>213.55</ele>
        <time>2015-06-27T06:32:16Z</time>
      </trkpt>
      <trkpt lat="43.21542" lon="5.81083">
        <ele>222.68</ele>
        <time>2015-06-27T06:32:34Z</time>
      </trkpt>
      <trkpt lat="43.21588" lon="5.81088">
        <ele>229.89</ele>
        <time>2015-06-27T06:32:52Z</time>
      </trkpt>
      <trkpt lat="43.2162" lon="5.81062">
        <ele>230.85</ele>
        <time>2015-06-27T06:33:07Z</time>
      </trkpt>
      <trkpt lat="43.21621" lon="5.80991">
        <ele>231.81</ele>
        <time>2015-06-27T06:33:24Z</time>
      </trkpt>
      <trkpt lat="43.2165" lon="5.80951">
        <ele>239.51</ele>
        <time>2015-06-27T06:33:40Z</time>
      </trkpt>
      <trkpt lat="43.21701" lon="5.80911">
        <ele>250.56</ele>
        <time>2015-06-27T06:34:00Z</time>
      </trkpt>
      <trkpt lat="43.21766" lon="5.80857">
        <ele>254.89</ele>
        <time>2015-06-27T06:34:21Z</time>
      </trkpt>
      <trkpt lat="43.21836" lon="5.80832">
        <ele>256.81</ele>
        <time>2015-06-27T06:34:42Z</time>
      </trkpt>
      <trkpt lat="43.21851" lon="5.80887">
        <ele>252.48</ele>
        <time>2015-06-27T06:34:56Z</time>
      </trkpt>
      <trkpt lat="43.21828" lon="5.80986">
        <ele>250.08</ele>
        <time>2015-06-27T06:35:19Z</time>
      </trkpt>
      <trkpt lat="43.21818" lon="5.81077">
        <ele>247.68</ele>
        <time>2015-06-27T06:35:41Z</time>
      </trkpt>
      <trkpt lat="43.21823" lon="5.81187">
        <ele>250.56</ele>
        <time>2015-06-27T06:36:09Z</time>
      </trkpt>
      <trkpt lat="43.21829" lon="5.81283">
        <ele>255.37</ele>
        <time>2015-06-27T06:36:34Z</time>
      </trkpt>
      <trkpt lat="43.21854" lon="5.81348">
        <ele>256.81</ele>
        <time>2015-06-27T06:36:52Z</time>
      </trkpt>
      <trkpt lat="43.21909" lon="5.81367">
        <ele>262.58</ele>
        <time>2015-06-27T06:37:11Z</time>
      </trkpt>
      <trkpt lat="43.21977" lon="5.81345">
        <ele>267.86</ele>
        <time>2015-06-27T06:37:34Z</time>
      </trkpt>
      <trkpt lat="43.22052" lon="5.81298">
        <ele>271.23</ele>
        <time>2015-06-27T06:37:59Z</time>
      </trkpt>
      <trkpt lat="43.22139" lon="5.81235">
        <ele>264.02</ele>
        <time>2015-06-27T06:38:29Z</time>
      </trkpt>
      <trkpt lat="43.22206" lon="5.81207">
        <ele>268.35</ele>
        <time>2015-06-27T06:38:53Z</time>
      </trkpt>
      <trkpt lat="43.22279" lon="5.81228">
        <ele>273.15</ele>
        <time>2015-06-27T06:39:17Z</time>
      </trkpt>
      <trkpt lat="43.22351" lon="5.81237">
        <ele>276.04</ele>
        <time>2015-06-27T06:39:41Z</time>
      </trkpt>
      <trkpt lat="43.22416" lon="5.81191">
        <ele>274.11</ele>
        <time>2015-06-27T06:40:04Z</time>
      </trkpt>
      <trkpt lat="43.22452" lon="5.81121">
        <ele>277.48</ele>
        <time>2015-06-27T06:40:24Z</time>
      </trkpt>
      <trkpt lat="43.2249" lon="5.81062">
        <ele>280.84</ele>
        <time>2015-06-27T06:40:42Z</time>
      </trkpt>
      <trkpt lat="43.22552" lon="5.81048">
        <ele>285.65</ele>
        <time>2015-06-27T06:41:02Z</time>
      </trkpt>
      <trkpt lat="43.22616" lon="5.8105">
        <ele>290.46</ele>
        <time>2015-06-27T06:41:22Z</time>
      </trkpt>
      <trkpt lat="43.22685" lon="5.80994">
        <ele>290.94</ele>
        <time>2015-06-27T06:41:46Z</time>
      </trkpt>
      <trkpt lat="43.22753" lon="5.80937">
        <ele>294.78</ele>
        <time>2015-06-27T06:42:11Z</time>
      </trkpt>
      <trkpt lat="43.22831" lon="5.80874">
        <ele>297.67</ele>
        <time>2015-06-27T06:42:40Z</time>
      </trkpt>
      <trkpt lat="43.22903" lon="5.8082">
        <ele>304.88</ele>
        <time>2015-06-27T06:43:08Z</time>
      </trkpt>
      <trkpt lat="43.22948" lon="5.80756">
        <ele>311.6</ele>
        <time>2015-06-27T06:43:29Z</time>
      </trkpt>
      <trkpt lat="43.22999" lon="5.80664">
        <ele>313.05</ele>
        <time>2015-06-27T06:43:54Z</time>
      </trkpt>
      <trkpt lat="43.23044" lon="5.80584">
        <ele>318.33</ele>
        <time>2015-06-27T06:44:17Z</time>
      </trkpt>
      <trkpt lat="43.23097" lon="5.80519">
        <ele>319.78</ele>
        <time>2015-06-27T06:44:39Z</time>
      </trkpt>
      <trkpt lat="43.23152" lon="5.80525">
        <ele>324.58</ele>
        <time>2015-06-27T06:44:56Z</time>
      </trkpt>
      <trkpt lat="43.23184" lon="5.8057">
        <ele>325.54</ele>
        <time>2015-06-27T06:45:12Z</time>
      </trkpt>
      <trkpt lat="43.23174" lon="5.80627">
        <ele>326.5</ele>
        <time>2015-06-27T06:45:28Z</time>
      </trkpt>
      <trkpt lat="43.23136" lon="5.80726">
        <ele>328.43</ele>
        <time>2015-06-27T06:45:54Z</time>
      </trkpt>
      <trkpt lat="43.23112" lon="5.80802">
        <ele>334.68</ele>
        <time>2015-06-27T06:46:18Z</time>
      </trkpt>
      <trkpt lat="43.23131" lon="5.80849">
        <ele>344.77</ele>
        <time>2015-06-27T06:46:35Z</time>
      </trkpt>
      <trkpt lat="43.23173" lon="5.80849">
        <ele>351.02</ele>
        <time>2015-06-27T06:46:51Z</time>
      </trkpt>
      <trkpt lat="43.23217" lon="5.80803">
        <ele>359.67</ele>
        <time>2015-06-27T06:47:11Z</time>
      </trkpt>
      <trkpt lat="43.23285" lon="5.80724">
        <ele>355.34</ele>
        <time>2015-06-27T06:47:38Z</time>
      </trkpt>
      <trkpt lat="43.23318" lon="5.80661">
        <ele>363.52</ele>
        <time>2015-06-27T06:47:58Z</time>
      </trkpt>
      <trkpt lat="43.2336" lon="5.80592">
        <ele>369.76</ele>
        <time>2015-06-27T06:48:18Z</time>
      </trkpt>
      <trkpt lat="43.23378" lon="5.80513">
        <ele>367.84</ele>
        <time>2015-06-27T06:48:37Z</time>
      </trkpt>
      <trkpt lat="43.23414" lon="5.80424">
        <ele>365.44</ele>
        <time>2015-06-27T06:48:59Z</time>
      </trkpt>
      <trkpt lat="43.23453" lon="5.80357">
        <ele>367.36</ele>
        <time>2015-06-27T06:49:19Z</time>
      </trkpt>
      <trkpt lat="43.23507" lon="5.80272">
        <ele>368.8</ele>
        <time>2015-06-27T06:49:42Z</time>
      </trkpt>
      <trkpt lat="43.23576" lon="5.8019">
        <ele>365.92</ele>
        <time>2015-06-27T06:50:08Z</time>
      </trkpt>
      <trkpt lat="43.23628" lon="5.80161">
        <ele>365.92</ele>
        <time>2015-06-27T06:50:25Z</time>
      </trkpt>
      <trkpt lat="43.23673" lon="5.80207">
        <ele>367.84</ele>
        <time>2015-06-27T06:50:40Z</time>
      </trkpt>
      <trkpt lat="43.23742" lon="5.80288">
        <ele>372.17</ele>
        <time>2015-06-27T06:51:06Z</time>
      </trkpt>
      <trkpt lat="43.23794" lon="5.80315">
        <ele>374.09</ele>
        <time>2015-06-27T06:51:23Z</time>
      </trkpt>
      <trkpt lat="43.23868" lon="5.80282">
        <ele>377.45</ele>
        <time>2015-06-27T06:51:44Z</time>
      </trkpt>
      <trkpt lat="43.23926" lon="5.80214">
        <ele>378.42</ele>
        <time>2015-06-27T06:52:06Z</time>
      </trkpt>
      <trkpt lat="43.23984" lon="5.80146">
        <ele>379.38</ele>
        <time>2015-06-27T06:52:28Z</time>
      </trkpt>
      <trkpt lat="43.24049" lon="5.8013">
        <ele>384.66</ele>
        <time>2015-06-27T06:52:49Z</time>
      </trkpt>
      <trkpt lat="43.24111" lon="5.8014">
        <ele>395.72</ele>
        <time>2015-06-27T06:53:10Z</time>
      </trkpt>
      <trkpt lat="43.24139" lon="5.80199">
        <ele>408.22</ele>
        <time>2015-06-27T06:53:26Z</time>
      </trkpt>
      <trkpt lat="43.24133" lon="5.80267">
        <ele>410.14</ele>
        <time>2015-06-27T06:53:44Z</time>
      </trkpt>
      <trkpt lat="43.24142" lon="5.80338">
        <ele>421.68</ele>
        <time>2015-06-27T06:54:06Z</time>
      </trkpt>
      <trkpt lat="43.2415" lon="5.80435">
        <ele>429.37</ele>
        <time>2015-06-27T06:54:29Z</time>
      </trkpt>
      <trkpt lat="43.2414" lon="5.8051">
        <ele>433.69</ele>
        <time>2015-06-27T06:54:50Z</time>
      </trkpt>
      <trkpt lat="43.24123" lon="5.80606">
        <ele>435.13</ele>
        <time>2015-06-27T06:55:17Z</time>
      </trkpt>
      <trkpt lat="43.24109" lon="5.80691">
        <ele>436.58</ele>
        <time>2015-06-27T06:55:41Z</time>
      </trkpt>
      <trkpt lat="43.2413" lon="5.80755">
        <ele>445.23</ele>
        <time>2015-06-27T06:56:02Z</time>
      </trkpt>
      <trkpt lat="43.24179" lon="5.80776">
        <ele>451.48</ele>
        <time>2015-06-27T06:56:22Z</time>
      </trkpt>
      <trkpt lat="43.24226" lon="5.80747">
        <ele>459.17</ele>
        <time>2015-06-27T06:56:42Z</time>
      </trkpt>
      <trkpt lat="43.24268" lon="5.80696">
        <ele>461.57</ele>
        <time>2015-06-27T06:57:03Z</time>
      </trkpt>
      <trkpt lat="43.24319" lon="5.80634">
        <ele>473.11</ele>
        <time>2015-06-27T06:57:26Z</time>
      </trkpt>
      <trkpt lat="43.24378" lon="5.80605">
        <ele>480.8</ele>
        <time>2015-06-27T06:57:47Z</time>
      </trkpt>
      <trkpt lat="43.24451" lon="5.80597">
        <ele>472.14</ele>
        <time>2015-06-27T06:58:07Z</time>
      </trkpt>
      <trkpt lat="43.24522" lon="5.80607">
        <ele>474.07</ele>
        <time>2015-06-27T06:58:27Z</time>
      </trkpt>
      <trkpt lat="43.24614" lon="5.80621">
        <ele>465.42</ele>
        <time>2015-06-27T06:58:51Z</time>
      </trkpt>
      <trkpt lat="43.2468" lon="5.80627">
        <ele>465.9</ele>
        <time>2015-06-27T06:59:13Z</time>
      </trkpt>
      <trkpt lat="43.24771" lon="5.8064">
        <ele>472.14</ele>
        <time>2015-06-27T06:59:39Z</time>
      </trkpt>
      <trkpt lat="43.24855" lon="5.80648">
        <ele>464.93</ele>
        <time>2015-06-27T07:00:03Z</time>
      </trkpt>
      <trkpt lat="43.24926" lon="5.80657">
        <ele>469.74</ele>
        <time>2015-06-27T07:00:26Z</time>
      </trkpt>
      <trkpt lat="43.25006" lon="5.80667">
        <ele>476.95</ele>
        <time>2015-06-27T07:00:52Z</time>
      </trkpt>
      <trkpt lat="43.25084" lon="5.80673">
        <ele>480.8</ele>
        <time>2015-06-27T07:01:14Z</time>
      </trkpt>
      <trkpt lat="43.25178" lon="5.80681">
        <ele>481.76</ele>
        <time>2015-06-27T07:01:36Z</time>
      </trkpt>
      <trkpt lat="43.25296" lon="5.80694">
        <ele>474.07</ele>
        <time>2015-06-27T07:02:00Z</time>
      </trkpt>
      <trkpt lat="43.25372" lon="5.80721">
        <ele>477.91</ele>
        <time>2015-06-27T07:02:17Z</time>
      </trkpt>
      <trkpt lat="43.25475" lon="5.80775">
        <ele>482.72</ele>
        <time>2015-06-27T07:02:38Z</time>
      </trkpt>
      <trkpt lat="43.2555" lon="5.80777">
        <ele>482.72</ele>
        <time>2015-06-27T07:02:53Z</time>
      </trkpt>
      <trkpt lat="43.25653" lon="5.80743">
        <ele>471.66</ele>
        <time>2015-06-27T07:03:12Z</time>
      </trkpt>
      <trkpt lat="43.25765" lon="5.80711">
        <ele>469.26</ele>
        <time>2015-06-27T07:03:34Z</time>
      </trkpt>
      <trkpt lat="43.2585" lon="5.80684">
        <ele>471.66</ele>
        <time>2015-06-27T07:03:52Z</time>
      </trkpt>
      <trkpt lat="43.25925" lon="5.80642">
        <ele>472.63</ele>
        <time>2015-06-27T07:04:11Z</time>
      </trkpt>
      <trkpt lat="43.26018" lon="5.80602">
        <ele>472.63</ele>
        <time>2015-06-27T07:04:33Z</time>
      </trkpt>
      <trkpt lat="43.26081" lon="5.80617">
        <ele>471.66</ele>
        <time>2015-06-27T07:04:47Z</time>
      </trkpt>
      <trkpt lat="43.26146" lon="5.80679">
        <ele>473.59</ele>
        <time>2015-06-27T07:05:05Z</time>
      </trkpt>
      <trkpt lat="43.26239" lon="5.80777">
        <ele>475.51</ele>
        <time>2015-06-27T07:05:30Z</time>
      </trkpt>
      <trkpt lat="43.26284" lon="5.80798">
        <ele>477.43</ele>
        <time>2015-06-27T07:05:41Z</time>
      </trkpt>
      <trkpt lat="43.26354" lon="5.80763">
        <ele>478.87</ele>
        <time>2015-06-27T07:05:58Z</time>
      </trkpt>
      <trkpt lat="43.26456" lon="5.80688">
        <ele>481.28</ele>
        <time>2015-06-27T07:06:24Z</time>
      </trkpt>
      <trkpt lat="43.26546" lon="5.80617">
        <ele>482.72</ele>
        <time>2015-06-27T07:06:46Z</time>
      </trkpt>
      <trkpt lat="43.26646" lon="5.80539">
        <ele>483.2</ele>
        <time>2015-06-27T07:07:06Z</time>
      </trkpt>
      <trkpt lat="43.26757" lon="5.8047">
        <ele>481.76</ele>
        <time>2015-06-27T07:07:27Z</time>
      </trkpt>
      <trkpt lat="43.26887" lon="5.80413">
        <ele>481.28</ele>
        <time>2015-06-27T07:07:52Z</time>
      </trkpt>
      <trkpt lat="43.27012" lon="5.80358">
        <ele>482.24</ele>
        <time>2015-06-27T07:08:16Z</time>
      </trkpt>
      <trkpt lat="43.27114" lon="5.80321">
        <ele>483.2</ele>
        <time>2015-06-27T07:08:38Z</time>
      </trkpt>
      <trkpt lat="43.27193" lon="5.80289">
        <ele>485.12</ele>
        <time>2015-06-27T07:08:54Z</time>
      </trkpt>
      <trkpt lat="43.27283" lon="5.80281">
        <ele>484.64</ele>
        <time>2015-06-27T07:09:04Z</time>
      </trkpt>
      <trkpt lat="43.27408" lon="5.80336">
        <ele>481.76</ele>
        <time>2015-06-27T07:09:17Z</time>
      </trkpt>
      <trkpt lat="43.27454" lon="5.80388">
        <ele>479.84</ele>
        <time>2015-06-27T07:09:23Z</time>
      </trkpt>
      <trkpt lat="43.27532" lon="5.8045">
        <ele>476.95</ele>
        <time>2015-06-27T07:09:33Z</time>
      </trkpt>
      <trkpt lat="43.27618" lon="5.80547">
        <ele>473.59</ele>
        <time>2015-06-27T07:09:46Z</time>
      </trkpt>
      <trkpt lat="43.27663" lon="5.80674">
        <ele>470.7</ele>
        <time>2015-06-27T07:09:59Z</time>
      </trkpt>
      <trkpt lat="43.27696" lon="5.80845">
        <ele>466.38</ele>
        <time>2015-06-27T07:10:18Z</time>
      </trkpt>
      <trkpt lat="43.277" lon="5.81058">
        <ele>462.05</ele>
        <time>2015-06-27T07:10:42Z</time>
      </trkpt>
      <trkpt lat="43.27718" lon="5.8121">
        <ele>457.72</ele>
        <time>2015-06-27T07:10:59Z</time>
      </trkpt>
      <trkpt lat="43.27773" lon="5.81405">
        <ele>455.32</ele>
        <time>2015-06-27T07:11:22Z</time>
      </trkpt>
      <trkpt lat="43.27818" lon="5.81613">
        <ele>453.88</ele>
        <time>2015-06-27T07:11:45Z</time>
      </trkpt>
      <trkpt lat="43.27875" lon="5.81811">
        <ele>452.44</ele>
        <time>2015-06-27T07:12:06Z</time>
      </trkpt>
      <trkpt lat="43.27941" lon="5.8198">
        <ele>450.03</ele>
        <time>2015-06-27T07:12:25Z</time>
      </trkpt>
      <trkpt lat="43.28021" lon="5.82126">
        <ele>447.63</ele>
        <time>2015-06-27T07:12:42Z</time>
      </trkpt>
      <trkpt lat="43.28085" lon="5.82324">
        <ele>442.82</ele>
        <time>2015-06-27T07:13:04Z</time>
      </trkpt>
      <trkpt lat="43.28127" lon="5.82497">
        <ele>438.98</ele>
        <time>2015-06-27T07:13:23Z</time>
      </trkpt>
      <trkpt lat="43.28166" lon="5.82596">
        <ele>435.61</ele>
        <time>2015-06-27T07:13:35Z</time>
      </trkpt>
      <trkpt lat="43.28257" lon="5.82752">
        <ele>429.85</ele>
        <time>2015-06-27T07:13:55Z</time>
      </trkpt>
      <trkpt lat="43.28337" lon="5.82901">
        <ele>426</ele>
        <time>2015-06-27T07:14:13Z</time>
      </trkpt>
      <trkpt lat="43.28355" lon="5.83008">
        <ele>424.56</ele>
        <time>2015-06-27T07:14:25Z</time>
      </trkpt>
      <trkpt lat="43.28366" lon="5.83219">
        <ele>423.6</ele>
        <time>2015-06-27T07:14:48Z</time>
      </trkpt>
      <trkpt lat="43.28382" lon="5.83441">
        <ele>422.64</ele>
        <time>2015-06-27T07:15:11Z</time>
      </trkpt>
      <trkpt lat="43.28423" lon="5.83635">
        <ele>420.23</ele>
        <time>2015-06-27T07:15:32Z</time>
      </trkpt>
      <trkpt lat="43.2845" lon="5.83821">
        <ele>419.27</ele>
        <time>2015-06-27T07:15:52Z</time>
      </trkpt>
      <trkpt lat="43.28473" lon="5.84033">
        <ele>417.35</ele>
        <time>2015-06-27T07:16:15Z</time>
      </trkpt>
      <trkpt lat="43.28494" lon="5.84232">
        <ele>415.91</ele>
        <time>2015-06-27T07:16:35Z</time>
      </trkpt>
      <trkpt lat="43.28513" lon="5.844">
        <ele>415.91</ele>
        <time>2015-06-27T07:16:55Z</time>
      </trkpt>
      <trkpt lat="43.28521" lon="5.84542">
        <ele>417.35</ele>
        <time>2015-06-27T07:17:15Z</time>
      </trkpt>
      <trkpt lat="43.28548" lon="5.84688">
        <ele>418.31</ele>
        <time>2015-06-27T07:17:31Z</time>
      </trkpt>
      <trkpt lat="43.28566" lon="5.84738">
        <ele>418.31</ele>
        <time>2015-06-27T07:17:36Z</time>
      </trkpt>
      <trkpt lat="43.286" lon="5.84766">
        <ele>418.31</ele>
        <time>2015-06-27T07:17:41Z</time>
      </trkpt>
      <trkpt lat="43.28676" lon="5.84797">
        <ele>419.27</ele>
        <time>2015-06-27T07:17:49Z</time>
      </trkpt>
      <trkpt lat="43.28709" lon="5.84851">
        <ele>418.79</ele>
        <time>2015-06-27T07:17:55Z</time>
      </trkpt>
      <trkpt lat="43.28751" lon="5.84974">
        <ele>418.31</ele>
        <time>2015-06-27T07:18:09Z</time>
      </trkpt>
      <trkpt lat="43.28768" lon="5.85002">
        <ele>417.83</ele>
        <time>2015-06-27T07:18:13Z</time>
      </trkpt>
      <trkpt lat="43.28802" lon="5.85129">
        <ele>417.83</ele>
        <time>2015-06-27T07:18:25Z</time>
      </trkpt>
      <trkpt lat="43.28801" lon="5.85187">
        <ele>417.83</ele>
        <time>2015-06-27T07:18:30Z</time>
      </trkpt>
      <trkpt lat="43.28825" lon="5.85256">
        <ele>416.39</ele>
        <time>2015-06-27T07:18:38Z</time>
      </trkpt>
      <trkpt lat="43.28845" lon="5.85306">
        <ele>416.39</ele>
        <time>2015-06-27T07:18:43Z</time>
      </trkpt>
      <trkpt lat="43.28849" lon="5.85399">
        <ele>418.79</ele>
        <time>2015-06-27T07:18:50Z</time>
      </trkpt>
      <trkpt lat="43.28907" lon="5.85511">
        <ele>417.83</ele>
        <time>2015-06-27T07:18:59Z</time>
      </trkpt>
      <trkpt lat="43.28938" lon="5.85575">
        <ele>416.87</ele>
        <time>2015-06-27T07:19:04Z</time>
      </trkpt>
      <trkpt lat="43.28981" lon="5.85669">
        <ele>412.54</ele>
        <time>2015-06-27T07:19:12Z</time>
      </trkpt>
      <trkpt lat="43.28996" lon="5.85828">
        <ele>408.22</ele>
        <time>2015-06-27T07:19:24Z</time>
      </trkpt>
      <trkpt lat="43.29019" lon="5.85949">
        <ele>406.29</ele>
        <time>2015-06-27T07:19:35Z</time>
      </trkpt>
      <trkpt lat="43.29011" lon="5.86075">
        <ele>401.97</ele>
        <time>2015-06-27T07:19:48Z</time>
      </trkpt>
      <trkpt lat="43.29008" lon="5.86224">
        <ele>394.28</ele>
        <time>2015-06-27T07:20:02Z</time>
      </trkpt>
      <trkpt lat="43.2902" lon="5.86355">
        <ele>385.15</ele>
        <time>2015-06-27T07:20:20Z</time>
      </trkpt>
      <trkpt lat="43.29046" lon="5.86515">
        <ele>378.42</ele>
        <time>2015-06-27T07:20:43Z</time>
      </trkpt>
      <trkpt lat="43.29049" lon="5.8653">
        <ele>377.94</ele>
        <time>2015-06-27T07:20:45Z</time>
      </trkpt>
      <trkpt lat="43.29041" lon="5.86674">
        <ele>371.21</ele>
        <time>2015-06-27T07:21:03Z</time>
      </trkpt>
      <trkpt lat="43.29033" lon="5.86831">
        <ele>363.52</ele>
        <time>2015-06-27T07:21:18Z</time>
      </trkpt>
      <trkpt lat="43.29002" lon="5.87012">
        <ele>355.83</ele>
        <time>2015-06-27T07:21:34Z</time>
      </trkpt>
      <trkpt lat="43.2897" lon="5.87071">
        <ele>353.9</ele>
        <time>2015-06-27T07:21:40Z</time>
      </trkpt>
      <trkpt lat="43.28933" lon="5.87132">
        <ele>351.5</ele>
        <time>2015-06-27T07:21:48Z</time>
      </trkpt>
      <trkpt lat="43.28933" lon="5.87163">
        <ele>351.5</ele>
        <time>2015-06-27T07:21:51Z</time>
      </trkpt>
      <trkpt lat="43.28889" lon="5.87392">
        <ele>343.33</ele>
        <time>2015-06-27T07:22:09Z</time>
      </trkpt>
      <trkpt lat="43.28843" lon="5.87646">
        <ele>335.64</ele>
        <time>2015-06-27T07:22:29Z</time>
      </trkpt>
      <trkpt lat="43.28802" lon="5.87922">
        <ele>330.83</ele>
        <time>2015-06-27T07:22:52Z</time>
      </trkpt>
      <trkpt lat="43.28751" lon="5.88221">
        <ele>326.99</ele>
        <time>2015-06-27T07:23:19Z</time>
      </trkpt>
      <trkpt lat="43.28716" lon="5.8846">
        <ele>324.1</ele>
        <time>2015-06-27T07:23:43Z</time>
      </trkpt>
      <trkpt lat="43.28728" lon="5.88631">
        <ele>322.18</ele>
        <time>2015-06-27T07:24:00Z</time>
      </trkpt>
      <trkpt lat="43.28733" lon="5.88834">
        <ele>322.18</ele>
        <time>2015-06-27T07:24:21Z</time>
      </trkpt>
      <trkpt lat="43.28697" lon="5.88994">
        <ele>323.14</ele>
        <time>2015-06-27T07:24:39Z</time>
      </trkpt>
      <trkpt lat="43.28664" lon="5.89118">
        <ele>323.62</ele>
        <time>2015-06-27T07:24:54Z</time>
      </trkpt>
      <trkpt lat="43.28597" lon="5.89206">
        <ele>327.95</ele>
        <time>2015-06-27T07:25:10Z</time>
      </trkpt>
      <trkpt lat="43.28566" lon="5.89245">
        <ele>329.39</ele>
        <time>2015-06-27T07:25:17Z</time>
      </trkpt>
      <trkpt lat="43.28557" lon="5.89258">
        <ele>329.39</ele>
        <time>2015-06-27T07:25:19Z</time>
      </trkpt>
      <trkpt lat="43.2851" lon="5.89372">
        <ele>329.39</ele>
        <time>2015-06-27T07:25:34Z</time>
      </trkpt>
      <trkpt lat="43.28428" lon="5.89471">
        <ele>330.83</ele>
        <time>2015-06-27T07:25:52Z</time>
      </trkpt>
      <trkpt lat="43.28378" lon="5.89568">
        <ele>330.35</ele>
        <time>2015-06-27T07:26:07Z</time>
      </trkpt>
      <trkpt lat="43.28336" lon="5.89712">
        <ele>328.91</ele>
        <time>2015-06-27T07:26:27Z</time>
      </trkpt>
      <trkpt lat="43.28298" lon="5.89842">
        <ele>327.47</ele>
        <time>2015-06-27T07:26:45Z</time>
      </trkpt>
      <trkpt lat="43.28294" lon="5.89857">
        <ele>327.47</ele>
        <time>2015-06-27T07:26:47Z</time>
      </trkpt>
      <trkpt lat="43.28281" lon="5.89883">
        <ele>327.47</ele>
        <time>2015-06-27T07:26:51Z</time>
      </trkpt>
      <trkpt lat="43.28197" lon="5.89988">
        <ele>327.47</ele>
        <time>2015-06-27T07:27:10Z</time>
      </trkpt>
      <trkpt lat="43.28158" lon="5.90089">
        <ele>328.43</ele>
        <time>2015-06-27T07:27:24Z</time>
      </trkpt>
      <trkpt lat="43.28095" lon="5.90197">
        <ele>327.95</ele>
        <time>2015-06-27T07:27:38Z</time>
      </trkpt>
      <trkpt lat="43.2806" lon="5.90312">
        <ele>325.54</ele>
        <time>2015-06-27T07:27:51Z</time>
      </trkpt>
      <trkpt lat="43.28006" lon="5.90484">
        <ele>320.74</ele>
        <time>2015-06-27T07:28:11Z</time>
      </trkpt>
      <trkpt lat="43.27996" lon="5.90578">
        <ele>317.85</ele>
        <time>2015-06-27T07:28:22Z</time>
      </trkpt>
      <trkpt lat="43.27971" lon="5.90679">
        <ele>316.41</ele>
        <time>2015-06-27T07:28:39Z</time>
      </trkpt>
      <trkpt lat="43.27956" lon="5.9078">
        <ele>319.3</ele>
        <time>2015-06-27T07:28:59Z</time>
      </trkpt>
      <trkpt lat="43.27913" lon="5.90891">
        <ele>321.22</ele>
        <time>2015-06-27T07:29:18Z</time>
      </trkpt>
      <trkpt lat="43.27877" lon="5.90947">
        <ele>324.1</ele>
        <time>2015-06-27T07:29:29Z</time>
      </trkpt>
      <trkpt lat="43.27872" lon="5.90986">
        <ele>327.47</ele>
        <time>2015-06-27T07:29:36Z</time>
      </trkpt>
      <trkpt lat="43.27905" lon="5.9107">
        <ele>333.71</ele>
        <time>2015-06-27T07:29:54Z</time>
      </trkpt>
      <trkpt lat="43.27892" lon="5.91117">
        <ele>336.6</ele>
        <time>2015-06-27T07:30:05Z</time>
      </trkpt>
      <trkpt lat="43.27847" lon="5.91158">
        <ele>341.89</ele>
        <time>2015-06-27T07:30:23Z</time>
      </trkpt>
      <trkpt lat="43.27822" lon="5.91232">
        <ele>346.69</ele>
        <time>2015-06-27T07:30:43Z</time>
      </trkpt>
      <trkpt lat="43.27825" lon="5.91299">
        <ele>348.62</ele>
        <time>2015-06-27T07:30:56Z</time>
      </trkpt>
      <trkpt lat="43.2783" lon="5.91312">
        <ele>349.1</ele>
        <time>2015-06-27T07:30:58Z</time>
      </trkpt>
      <trkpt lat="43.27847" lon="5.91332">
        <ele>349.58</ele>
        <time>2015-06-27T07:31:02Z</time>
      </trkpt>
      <trkpt lat="43.27901" lon="5.91365">
        <ele>351.5</ele>
        <time>2015-06-27T07:31:10Z</time>
      </trkpt>
      <trkpt lat="43.27922" lon="5.91411">
        <ele>354.38</ele>
        <time>2015-06-27T07:31:16Z</time>
      </trkpt>
      <trkpt lat="43.27908" lon="5.91446">
        <ele>361.11</ele>
        <time>2015-06-27T07:31:21Z</time>
      </trkpt>
      <trkpt lat="43.27851" lon="5.9154">
        <ele>381.78</ele>
        <time>2015-06-27T07:31:39Z</time>
      </trkpt>
      <trkpt lat="43.27823" lon="5.91644">
        <ele>383.7</ele>
        <time>2015-06-27T07:31:59Z</time>
      </trkpt>
      <trkpt lat="43.2782" lon="5.91646">
        <ele>384.66</ele>
        <time>2015-06-27T07:32:00Z</time>
      </trkpt>
      <trkpt lat="43.27809" lon="5.91645">
        <ele>387.55</ele>
        <time>2015-06-27T07:32:05Z</time>
      </trkpt>
      <trkpt lat="43.27787" lon="5.91615">
        <ele>386.59</ele>
        <time>2015-06-27T07:32:14Z</time>
      </trkpt>
      <trkpt lat="43.27763" lon="5.91621">
        <ele>379.38</ele>
        <time>2015-06-27T07:32:20Z</time>
      </trkpt>
      <trkpt lat="43.27732" lon="5.91704">
        <ele>357.27</ele>
        <time>2015-06-27T07:32:38Z</time>
      </trkpt>
      <trkpt lat="43.27738" lon="5.91767">
        <ele>359.67</ele>
        <time>2015-06-27T07:32:56Z</time>
      </trkpt>
      <trkpt lat="43.27722" lon="5.91844">
        <ele>364</ele>
        <time>2015-06-27T07:33:15Z</time>
      </trkpt>
      <trkpt lat="43.2772" lon="5.91916">
        <ele>368.32</ele>
        <time>2015-06-27T07:33:32Z</time>
      </trkpt>
      <trkpt lat="43.27751" lon="5.92022">
        <ele>379.38</ele>
        <time>2015-06-27T07:33:55Z</time>
      </trkpt>
      <trkpt lat="43.27773" lon="5.9212">
        <ele>386.11</ele>
        <time>2015-06-27T07:34:16Z</time>
      </trkpt>
      <trkpt lat="43.27797" lon="5.92231">
        <ele>385.15</ele>
        <time>2015-06-27T07:34:36Z</time>
      </trkpt>
      <trkpt lat="43.27809" lon="5.92345">
        <ele>382.74</ele>
        <time>2015-06-27T07:34:53Z</time>
      </trkpt>
      <trkpt lat="43.27831" lon="5.92512">
        <ele>378.42</ele>
        <time>2015-06-27T07:35:08Z</time>
      </trkpt>
      <trkpt lat="43.27861" lon="5.92617">
        <ele>378.42</ele>
        <time>2015-06-27T07:35:21Z</time>
      </trkpt>
      <trkpt lat="43.27901" lon="5.92694">
        <ele>377.94</ele>
        <time>2015-06-27T07:35:37Z</time>
      </trkpt>
      <trkpt lat="43.27906" lon="5.9276">
        <ele>377.45</ele>
        <time>2015-06-27T07:35:51Z</time>
      </trkpt>
      <trkpt lat="43.27907" lon="5.92857">
        <ele>377.94</ele>
        <time>2015-06-27T07:36:11Z</time>
      </trkpt>
      <trkpt lat="43.27926" lon="5.92938">
        <ele>378.42</ele>
        <time>2015-06-27T07:36:29Z</time>
      </trkpt>
      <trkpt lat="43.27938" lon="5.93019">
        <ele>378.9</ele>
        <time>2015-06-27T07:36:45Z</time>
      </trkpt>
      <trkpt lat="43.27946" lon="5.93097">
        <ele>378.9</ele>
        <time>2015-06-27T07:37:00Z</time>
      </trkpt>
      <trkpt lat="43.27934" lon="5.93227">
        <ele>379.38</ele>
        <time>2015-06-27T07:37:24Z</time>
      </trkpt>
      <trkpt lat="43.27926" lon="5.9331">
        <ele>379.86</ele>
        <time>2015-06-27T07:37:41Z</time>
      </trkpt>
      <trkpt lat="43.27909" lon="5.93405">
        <ele>384.18</ele>
        <time>2015-06-27T07:38:00Z</time>
      </trkpt>
      <trkpt lat="43.27882" lon="5.93499">
        <ele>387.07</ele>
        <time>2015-06-27T07:38:19Z</time>
      </trkpt>
      <trkpt lat="43.27834" lon="5.93576">
        <ele>390.91</ele>
        <time>2015-06-27T07:38:39Z</time>
      </trkpt>
      <trkpt lat="43.27817" lon="5.93638">
        <ele>394.28</ele>
        <time>2015-06-27T07:38:55Z</time>
      </trkpt>
      <trkpt lat="43.27849" lon="5.93689">
        <ele>398.12</ele>
        <time>2015-06-27T07:39:09Z</time>
      </trkpt>
      <trkpt lat="43.27905" lon="5.93732">
        <ele>403.41</ele>
        <time>2015-06-27T07:39:26Z</time>
      </trkpt>
      <trkpt lat="43.27924" lon="5.93764">
        <ele>403.89</ele>
        <time>2015-06-27T07:39:31Z</time>
      </trkpt>
      <trkpt lat="43.27937" lon="5.93895">
        <ele>406.29</ele>
        <time>2015-06-27T07:39:43Z</time>
      </trkpt>
      <trkpt lat="43.27956" lon="5.9404">
        <ele>404.37</ele>
        <time>2015-06-27T07:39:53Z</time>
      </trkpt>
      <trkpt lat="43.28011" lon="5.94193">
        <ele>404.85</ele>
        <time>2015-06-27T07:40:04Z</time>
      </trkpt>
      <trkpt lat="43.28025" lon="5.94238">
        <ele>404.85</ele>
        <time>2015-06-27T07:40:07Z</time>
      </trkpt>
      <trkpt lat="43.28031" lon="5.94396">
        <ele>403.89</ele>
        <time>2015-06-27T07:40:17Z</time>
      </trkpt>
      <trkpt lat="43.28034" lon="5.94464">
        <ele>402.93</ele>
        <time>2015-06-27T07:40:22Z</time>
      </trkpt>
      <trkpt lat="43.28002" lon="5.94608">
        <ele>400.53</ele>
        <time>2015-06-27T07:40:33Z</time>
      </trkpt>
      <trkpt lat="43.27941" lon="5.94761">
        <ele>397.64</ele>
        <time>2015-06-27T07:40:43Z</time>
      </trkpt>
      <trkpt lat="43.27928" lon="5.94791">
        <ele>396.68</ele>
        <time>2015-06-27T07:40:45Z</time>
      </trkpt>
      <trkpt lat="43.27921" lon="5.94854">
        <ele>395.24</ele>
        <time>2015-06-27T07:40:49Z</time>
      </trkpt>
      <trkpt lat="43.27932" lon="5.95066">
        <ele>385.63</ele>
        <time>2015-06-27T07:41:03Z</time>
      </trkpt>
      <trkpt lat="43.27954" lon="5.95203">
        <ele>375.05</ele>
        <time>2015-06-27T07:41:15Z</time>
      </trkpt>
      <trkpt lat="43.27976" lon="5.95346">
        <ele>371.21</ele>
        <time>2015-06-27T07:41:27Z</time>
      </trkpt>
      <trkpt lat="43.27986" lon="5.95396">
        <ele>369.28</ele>
        <time>2015-06-27T07:41:31Z</time>
      </trkpt>
      <trkpt lat="43.27991" lon="5.95449">
        <ele>368.32</ele>
        <time>2015-06-27T07:41:35Z</time>
      </trkpt>
      <trkpt lat="43.2798" lon="5.95652">
        <ele>364</ele>
        <time>2015-06-27T07:41:51Z</time>
      </trkpt>
      <trkpt lat="43.27945" lon="5.95839">
        <ele>354.86</ele>
        <time>2015-06-27T07:42:06Z</time>
      </trkpt>
      <trkpt lat="43.27942" lon="5.9588">
        <ele>353.42</ele>
        <time>2015-06-27T07:42:10Z</time>
      </trkpt>
      <trkpt lat="43.27956" lon="5.96001">
        <ele>347.65</ele>
        <time>2015-06-27T07:42:22Z</time>
      </trkpt>
      <trkpt lat="43.27963" lon="5.96169">
        <ele>342.85</ele>
        <time>2015-06-27T07:42:38Z</time>
      </trkpt>
      <trkpt lat="43.28005" lon="5.96378">
        <ele>329.39</ele>
        <time>2015-06-27T07:42:59Z</time>
      </trkpt>
      <trkpt lat="43.28037" lon="5.96566">
        <ele>318.33</ele>
        <time>2015-06-27T07:43:18Z</time>
      </trkpt>
      <trkpt lat="43.28072" lon="5.96692">
        <ele>313.05</ele>
        <time>2015-06-27T07:43:33Z</time>
      </trkpt>
      <trkpt lat="43.28112" lon="5.96844">
        <ele>310.16</ele>
        <time>2015-06-27T07:43:53Z</time>
      </trkpt>
      <trkpt lat="43.28129" lon="5.969">
        <ele>309.2</ele>
        <time>2015-06-27T07:44:04Z</time>
      </trkpt>
      <trkpt lat="43.28137" lon="5.96916">
        <ele>302.95</ele>
        <time>2015-06-27T07:44:20Z</time>
      </trkpt>
      <trkpt lat="43.28134" lon="5.9691">
        <ele>301.99</ele>
        <time>2015-06-27T07:44:44Z</time>
      </trkpt>
      <trkpt lat="43.28136" lon="5.9691">
        <ele>301.03</ele>
        <time>2015-06-27T07:45:07Z</time>
      </trkpt>
      <trkpt lat="43.28136" lon="5.96911">
        <ele>300.55</ele>
        <time>2015-06-27T07:45:24Z</time>
      </trkpt>
      <trkpt lat="43.28131" lon="5.96939">
        <ele>306.8</ele>
        <time>2015-06-27T07:45:40Z</time>
      </trkpt>
      <trkpt lat="43.28094" lon="5.9696">
        <ele>321.22</ele>
        <time>2015-06-27T07:45:58Z</time>
      </trkpt>
      <trkpt lat="43.28022" lon="5.96989">
        <ele>324.1</ele>
        <time>2015-06-27T07:46:11Z</time>
      </trkpt>
      <trkpt lat="43.2796" lon="5.97011">
        <ele>319.3</ele>
        <time>2015-06-27T07:46:26Z</time>
      </trkpt>
      <trkpt lat="43.2791" lon="5.97025">
        <ele>317.85</ele>
        <time>2015-06-27T07:46:38Z</time>
      </trkpt>
      <trkpt lat="43.27848" lon="5.97083">
        <ele>317.85</ele>
        <time>2015-06-27T07:46:53Z</time>
      </trkpt>
      <trkpt lat="43.27835" lon="5.97106">
        <ele>317.85</ele>
        <time>2015-06-27T07:46:56Z</time>
      </trkpt>
      <trkpt lat="43.27743" lon="5.97201">
        <ele>316.41</ele>
        <time>2015-06-27T07:47:10Z</time>
      </trkpt>
      <trkpt lat="43.2761" lon="5.97332">
        <ele>315.45</ele>
        <time>2015-06-27T07:47:26Z</time>
      </trkpt>
      <trkpt lat="43.27587" lon="5.97354">
        <ele>315.45</ele>
        <time>2015-06-27T07:47:29Z</time>
      </trkpt>
      <trkpt lat="43.27468" lon="5.97426">
        <ele>310.64</ele>
        <time>2015-06-27T07:47:44Z</time>
      </trkpt>
      <trkpt lat="43.27277" lon="5.97434">
        <ele>306.8</ele>
        <time>2015-06-27T07:48:05Z</time>
      </trkpt>
      <trkpt lat="43.27141" lon="5.97449">
        <ele>306.8</ele>
        <time>2015-06-27T07:48:23Z</time>
      </trkpt>
      <trkpt lat="43.27022" lon="5.97474">
        <ele>305.84</ele>
        <time>2015-06-27T07:48:42Z</time>
      </trkpt>
      <trkpt lat="43.26925" lon="5.97467">
        <ele>298.15</ele>
        <time>2015-06-27T07:48:57Z</time>
      </trkpt>
      <trkpt lat="43.26769" lon="5.97462">
        <ele>289.01</ele>
        <time>2015-06-27T07:49:15Z</time>
      </trkpt>
      <trkpt lat="43.26737" lon="5.97462">
        <ele>287.57</ele>
        <time>2015-06-27T07:49:19Z</time>
      </trkpt>
      <trkpt lat="43.26721" lon="5.97466">
        <ele>287.09</ele>
        <time>2015-06-27T07:49:21Z</time>
      </trkpt>
      <trkpt lat="43.26695" lon="5.97488">
        <ele>286.61</ele>
        <time>2015-06-27T07:49:25Z</time>
      </trkpt>
      <trkpt lat="43.26678" lon="5.97518">
        <ele>285.17</ele>
        <time>2015-06-27T07:49:29Z</time>
      </trkpt>
      <trkpt lat="43.26669" lon="5.97552">
        <ele>283.73</ele>
        <time>2015-06-27T07:49:33Z</time>
      </trkpt>
      <trkpt lat="43.26671" lon="5.9759">
        <ele>283.73</ele>
        <time>2015-06-27T07:49:37Z</time>
      </trkpt>
      <trkpt lat="43.2671" lon="5.97705">
        <ele>284.69</ele>
        <time>2015-06-27T07:49:46Z</time>
      </trkpt>
      <trkpt lat="43.26742" lon="5.97881">
        <ele>284.21</ele>
        <time>2015-06-27T07:50:01Z</time>
      </trkpt>
      <trkpt lat="43.26756" lon="5.9797">
        <ele>284.21</ele>
        <time>2015-06-27T07:50:09Z</time>
      </trkpt>
      <trkpt lat="43.26751" lon="5.98009">
        <ele>283.73</ele>
        <time>2015-06-27T07:50:13Z</time>
      </trkpt>
      <trkpt lat="43.2671" lon="5.98142">
        <ele>276.04</ele>
        <time>2015-06-27T07:50:28Z</time>
      </trkpt>
      <trkpt lat="43.2669" lon="5.98189">
        <ele>271.71</ele>
        <time>2015-06-27T07:50:35Z</time>
      </trkpt>
      <trkpt lat="43.26615" lon="5.98267">
        <ele>266.9</ele>
        <time>2015-06-27T07:50:52Z</time>
      </trkpt>
      <trkpt lat="43.26548" lon="5.98332">
        <ele>263.54</ele>
        <time>2015-06-27T07:51:04Z</time>
      </trkpt>
      <trkpt lat="43.26462" lon="5.98352">
        <ele>261.14</ele>
        <time>2015-06-27T07:51:17Z</time>
      </trkpt>
      <trkpt lat="43.2633" lon="5.9833">
        <ele>259.69</ele>
        <time>2015-06-27T07:51:39Z</time>
      </trkpt>
      <trkpt lat="43.26256" lon="5.98264">
        <ele>257.77</ele>
        <time>2015-06-27T07:51:54Z</time>
      </trkpt>
      <trkpt lat="43.26189" lon="5.98229">
        <ele>253.93</ele>
        <time>2015-06-27T07:52:08Z</time>
      </trkpt>
      <trkpt lat="43.26087" lon="5.98247">
        <ele>248.16</ele>
        <time>2015-06-27T07:52:25Z</time>
      </trkpt>
      <trkpt lat="43.25998" lon="5.98315">
        <ele>242.39</ele>
        <time>2015-06-27T07:52:40Z</time>
      </trkpt>
      <trkpt lat="43.25896" lon="5.98442">
        <ele>234.7</ele>
        <time>2015-06-27T07:53:00Z</time>
      </trkpt>
      <trkpt lat="43.25811" lon="5.98503">
        <ele>233.26</ele>
        <time>2015-06-27T07:53:17Z</time>
      </trkpt>
      <trkpt lat="43.25703" lon="5.98571">
        <ele>228.45</ele>
        <time>2015-06-27T07:53:36Z</time>
      </trkpt>
      <trkpt lat="43.25628" lon="5.9868">
        <ele>223.64</ele>
        <time>2015-06-27T07:53:53Z</time>
      </trkpt>
      <trkpt lat="43.25544" lon="5.98801">
        <ele>214.03</ele>
        <time>2015-06-27T07:54:10Z</time>
      </trkpt>
      <trkpt lat="43.25477" lon="5.98918">
        <ele>210.67</ele>
        <time>2015-06-27T07:54:25Z</time>
      </trkpt>
      <trkpt lat="43.2543" lon="5.99054">
        <ele>206.34</ele>
        <time>2015-06-27T07:54:42Z</time>
      </trkpt>
      <trkpt lat="43.25374" lon="5.9919">
        <ele>202.49</ele>
        <time>2015-06-27T07:55:00Z</time>
      </trkpt>
      <trkpt lat="43.25282" lon="5.99304">
        <ele>199.61</ele>
        <time>2015-06-27T07:55:21Z</time>
      </trkpt>
      <trkpt lat="43.25203" lon="5.99391">
        <ele>201.53</ele>
        <time>2015-06-27T07:55:40Z</time>
      </trkpt>
      <trkpt lat="43.25131" lon="5.99463">
        <ele>200.57</ele>
        <time>2015-06-27T07:55:54Z</time>
      </trkpt>
      <trkpt lat="43.25107" lon="5.995">
        <ele>200.09</ele>
        <time>2015-06-27T07:56:00Z</time>
      </trkpt>
      <trkpt lat="43.25101" lon="5.99531">
        <ele>199.13</ele>
        <time>2015-06-27T07:56:04Z</time>
      </trkpt>
      <trkpt lat="43.25083" lon="5.99698">
        <ele>195.28</ele>
        <time>2015-06-27T07:56:21Z</time>
      </trkpt>
      <trkpt lat="43.25015" lon="5.99848">
        <ele>191.44</ele>
        <time>2015-06-27T07:56:39Z</time>
      </trkpt>
      <trkpt lat="43.24989" lon="5.99889">
        <ele>190.48</ele>
        <time>2015-06-27T07:56:50Z</time>
      </trkpt>
      <trkpt lat="43.24982" lon="5.99901">
        <ele>190.48</ele>
        <time>2015-06-27T07:56:53Z</time>
      </trkpt>
      <trkpt lat="43.24808" lon="5.99897">
        <ele>194.8</ele>
        <time>2015-06-27T07:57:13Z</time>
      </trkpt>
      <trkpt lat="43.24704" lon="5.99961">
        <ele>186.15</ele>
        <time>2015-06-27T07:57:26Z</time>
      </trkpt>
      <trkpt lat="43.246" lon="6.00016">
        <ele>180.38</ele>
        <time>2015-06-27T07:57:40Z</time>
      </trkpt>
      <trkpt lat="43.24536" lon="6.00038">
        <ele>175.1</ele>
        <time>2015-06-27T07:57:52Z</time>
      </trkpt>
      <trkpt lat="43.24518" lon="6.00032">
        <ele>173.66</ele>
        <time>2015-06-27T07:58:06Z</time>
      </trkpt>
      <trkpt lat="43.24513" lon="6.00031">
        <ele>173.66</ele>
        <time>2015-06-27T07:58:22Z</time>
      </trkpt>
      <trkpt lat="43.24519" lon="6.00026">
        <ele>173.17</ele>
        <time>2015-06-27T07:58:41Z</time>
      </trkpt>
      <trkpt lat="43.24518" lon="6.00024">
        <ele>174.62</ele>
        <time>2015-06-27T07:59:04Z</time>
      </trkpt>
      <trkpt lat="43.24521" lon="6.00025">
        <ele>175.1</ele>
        <time>2015-06-27T07:59:32Z</time>
      </trkpt>
      <trkpt lat="43.24526" lon="6.00028">
        <ele>178.46</ele>
        <time>2015-06-27T08:00:11Z</time>
      </trkpt>
      <trkpt lat="43.24526" lon="6.00028">
        <ele>179.42</ele>
        <time>2015-06-27T08:00:43Z</time>
      </trkpt>
      <trkpt lat="43.24528" lon="6.0003">
        <ele>180.87</ele>
        <time>2015-06-27T08:01:10Z</time>
      </trkpt>
      <trkpt lat="43.24531" lon="6.00027">
        <ele>183.75</ele>
        <time>2015-06-27T08:01:31Z</time>
      </trkpt>
      <trkpt lat="43.24528" lon="6.00026">
        <ele>182.79</ele>
        <time>2015-06-27T08:01:54Z</time>
      </trkpt>
      <trkpt lat="43.24527" lon="6.00028">
        <ele>182.79</ele>
        <time>2015-06-27T08:01:58Z</time>
      </trkpt>
      <trkpt lat="43.24504" lon="6.00069">
        <ele>186.63</ele>
        <time>2015-06-27T08:02:13Z</time>
      </trkpt>
      <trkpt lat="43.24439" lon="6.00069">
        <ele>191.92</ele>
        <time>2015-06-27T08:02:28Z</time>
      </trkpt>
      <trkpt lat="43.24377" lon="6.0011">
        <ele>195.28</ele>
        <time>2015-06-27T08:02:43Z</time>
      </trkpt>
      <trkpt lat="43.24298" lon="6.00194">
        <ele>195.77</ele>
        <time>2015-06-27T08:02:59Z</time>
      </trkpt>
      <trkpt lat="43.24229" lon="6.00272">
        <ele>196.73</ele>
        <time>2015-06-27T08:03:17Z</time>
      </trkpt>
      <trkpt lat="43.24178" lon="6.00334">
        <ele>199.13</ele>
        <time>2015-06-27T08:03:31Z</time>
      </trkpt>
      <trkpt lat="43.24084" lon="6.00426">
        <ele>199.13</ele>
        <time>2015-06-27T08:03:48Z</time>
      </trkpt>
      <trkpt lat="43.24066" lon="6.00442">
        <ele>198.17</ele>
        <time>2015-06-27T08:03:51Z</time>
      </trkpt>
      <trkpt lat="43.2401" lon="6.00472">
        <ele>195.77</ele>
        <time>2015-06-27T08:03:59Z</time>
      </trkpt>
      <trkpt lat="43.23863" lon="6.00485">
        <ele>191.44</ele>
        <time>2015-06-27T08:04:17Z</time>
      </trkpt>
      <trkpt lat="43.23782" lon="6.00533">
        <ele>190.48</ele>
        <time>2015-06-27T08:04:29Z</time>
      </trkpt>
      <trkpt lat="43.23725" lon="6.00647">
        <ele>187.11</ele>
        <time>2015-06-27T08:04:45Z</time>
      </trkpt>
      <trkpt lat="43.23681" lon="6.00775">
        <ele>178.94</ele>
        <time>2015-06-27T08:05:01Z</time>
      </trkpt>
      <trkpt lat="43.23629" lon="6.00846">
        <ele>176.54</ele>
        <time>2015-06-27T08:05:13Z</time>
      </trkpt>
      <trkpt lat="43.23524" lon="6.00855">
        <ele>174.14</ele>
        <time>2015-06-27T08:05:29Z</time>
      </trkpt>
      <trkpt lat="43.23414" lon="6.00842">
        <ele>172.21</ele>
        <time>2015-06-27T08:05:47Z</time>
      </trkpt>
      <trkpt lat="43.23367" lon="6.00849">
        <ele>170.77</ele>
        <time>2015-06-27T08:05:55Z</time>
      </trkpt>
      <trkpt lat="43.23275" lon="6.0093">
        <ele>166.45</ele>
        <time>2015-06-27T08:06:13Z</time>
      </trkpt>
      <trkpt lat="43.232" lon="6.01016">
        <ele>165</ele>
        <time>2015-06-27T08:06:29Z</time>
      </trkpt>
      <trkpt lat="43.23111" lon="6.01114">
        <ele>164.04</ele>
        <time>2015-06-27T08:06:46Z</time>
      </trkpt>
      <trkpt lat="43.22986" lon="6.01164">
        <ele>163.08</ele>
        <time>2015-06-27T08:07:04Z</time>
      </trkpt>
      <trkpt lat="43.22897" lon="6.01197">
        <ele>162.6</ele>
        <time>2015-06-27T08:07:18Z</time>
      </trkpt>
      <trkpt lat="43.22866" lon="6.01215">
        <ele>161.16</ele>
        <time>2015-06-27T08:07:23Z</time>
      </trkpt>
      <trkpt lat="43.22835" lon="6.01263">
        <ele>159.72</ele>
        <time>2015-06-27T08:07:31Z</time>
      </trkpt>
      <trkpt lat="43.2283" lon="6.01292">
        <ele>159.24</ele>
        <time>2015-06-27T08:07:36Z</time>
      </trkpt>
      <trkpt lat="43.22825" lon="6.01421">
        <ele>159.24</ele>
        <time>2015-06-27T08:07:51Z</time>
      </trkpt>
      <trkpt lat="43.22821" lon="6.01435">
        <ele>158.75</ele>
        <time>2015-06-27T08:07:53Z</time>
      </trkpt>
      <trkpt lat="43.22755" lon="6.01495">
        <ele>157.31</ele>
        <time>2015-06-27T08:08:06Z</time>
      </trkpt>
      <trkpt lat="43.22639" lon="6.01571">
        <ele>154.91</ele>
        <time>2015-06-27T08:08:25Z</time>
      </trkpt>
      <trkpt lat="43.22571" lon="6.01658">
        <ele>150.58</ele>
        <time>2015-06-27T08:08:40Z</time>
      </trkpt>
      <trkpt lat="43.22542" lon="6.01758">
        <ele>146.26</ele>
        <time>2015-06-27T08:08:54Z</time>
      </trkpt>
      <trkpt lat="43.22553" lon="6.01871">
        <ele>144.82</ele>
        <time>2015-06-27T08:09:10Z</time>
      </trkpt>
      <trkpt lat="43.2255" lon="6.0199">
        <ele>142.41</ele>
        <time>2015-06-27T08:09:23Z</time>
      </trkpt>
      <trkpt lat="43.22529" lon="6.02101">
        <ele>141.45</ele>
        <time>2015-06-27T08:09:38Z</time>
      </trkpt>
      <trkpt lat="43.22472" lon="6.02182">
        <ele>141.45</ele>
        <time>2015-06-27T08:09:51Z</time>
      </trkpt>
      <trkpt lat="43.22366" lon="6.02265">
        <ele>142.89</ele>
        <time>2015-06-27T08:10:07Z</time>
      </trkpt>
      <trkpt lat="43.22304" lon="6.02339">
        <ele>143.37</ele>
        <time>2015-06-27T08:10:18Z</time>
      </trkpt>
      <trkpt lat="43.2226" lon="6.02346">
        <ele>143.85</ele>
        <time>2015-06-27T08:10:25Z</time>
      </trkpt>
      <trkpt lat="43.2219" lon="6.0231">
        <ele>145.3</ele>
        <time>2015-06-27T08:10:38Z</time>
      </trkpt>
      <trkpt lat="43.22132" lon="6.0231">
        <ele>144.82</ele>
        <time>2015-06-27T08:10:49Z</time>
      </trkpt>
      <trkpt lat="43.22051" lon="6.02367">
        <ele>143.85</ele>
        <time>2015-06-27T08:11:06Z</time>
      </trkpt>
      <trkpt lat="43.21969" lon="6.02449">
        <ele>141.45</ele>
        <time>2015-06-27T08:11:19Z</time>
      </trkpt>
      <trkpt lat="43.21905" lon="6.02505">
        <ele>140.49</ele>
        <time>2015-06-27T08:11:29Z</time>
      </trkpt>
      <trkpt lat="43.21789" lon="6.02556">
        <ele>138.09</ele>
        <time>2015-06-27T08:11:48Z</time>
      </trkpt>
      <trkpt lat="43.21683" lon="6.02578">
        <ele>135.2</ele>
        <time>2015-06-27T08:12:01Z</time>
      </trkpt>
      <trkpt lat="43.216" lon="6.02567">
        <ele>134.24</ele>
        <time>2015-06-27T08:12:11Z</time>
      </trkpt>
      <trkpt lat="43.21502" lon="6.0261">
        <ele>131.84</ele>
        <time>2015-06-27T08:12:25Z</time>
      </trkpt>
      <trkpt lat="43.214" lon="6.02643">
        <ele>129.43</ele>
        <time>2015-06-27T08:12:41Z</time>
      </trkpt>
      <trkpt lat="43.21289" lon="6.02687">
        <ele>126.07</ele>
        <time>2015-06-27T08:13:00Z</time>
      </trkpt>
      <trkpt lat="43.21205" lon="6.02767">
        <ele>120.78</ele>
        <time>2015-06-27T08:13:17Z</time>
      </trkpt>
      <trkpt lat="43.21111" lon="6.02859">
        <ele>116.94</ele>
        <time>2015-06-27T08:13:36Z</time>
      </trkpt>
      <trkpt lat="43.2107" lon="6.02927">
        <ele>116.94</ele>
        <time>2015-06-27T08:13:46Z</time>
      </trkpt>
      <trkpt lat="43.21018" lon="6.02954">
        <ele>118.86</ele>
        <time>2015-06-27T08:13:55Z</time>
      </trkpt>
      <trkpt lat="43.209" lon="6.02932">
        <ele>120.3</ele>
        <time>2015-06-27T08:14:14Z</time>
      </trkpt>
      <trkpt lat="43.20789" lon="6.02947">
        <ele>118.38</ele>
        <time>2015-06-27T08:14:32Z</time>
      </trkpt>
      <trkpt lat="43.20703" lon="6.02932">
        <ele>117.42</ele>
        <time>2015-06-27T08:14:44Z</time>
      </trkpt>
      <trkpt lat="43.20613" lon="6.02922">
        <ele>115.5</ele>
        <time>2015-06-27T08:14:56Z</time>
      </trkpt>
      <trkpt lat="43.20521" lon="6.02906">
        <ele>113.57</ele>
        <time>2015-06-27T08:15:10Z</time>
      </trkpt>
      <trkpt lat="43.20432" lon="6.02877">
        <ele>111.65</ele>
        <time>2015-06-27T08:15:24Z</time>
      </trkpt>
      <trkpt lat="43.20387" lon="6.02878">
        <ele>112.13</ele>
        <time>2015-06-27T08:15:31Z</time>
      </trkpt>
      <trkpt lat="43.20322" lon="6.02863">
        <ele>111.65</ele>
        <time>2015-06-27T08:15:41Z</time>
      </trkpt>
      <trkpt lat="43.2023" lon="6.02885">
        <ele>109.73</ele>
        <time>2015-06-27T08:15:54Z</time>
      </trkpt>
      <trkpt lat="43.20218" lon="6.02893">
        <ele>109.25</ele>
        <time>2015-06-27T08:15:56Z</time>
      </trkpt>
      <trkpt lat="43.20167" lon="6.0297">
        <ele>109.73</ele>
        <time>2015-06-27T08:16:09Z</time>
      </trkpt>
      <trkpt lat="43.20158" lon="6.02991">
        <ele>109.73</ele>
        <time>2015-06-27T08:16:12Z</time>
      </trkpt>
      <trkpt lat="43.20141" lon="6.03015">
        <ele>110.21</ele>
        <time>2015-06-27T08:16:16Z</time>
      </trkpt>
      <trkpt lat="43.20054" lon="6.03107">
        <ele>107.32</ele>
        <time>2015-06-27T08:16:35Z</time>
      </trkpt>
      <trkpt lat="43.19974" lon="6.03212">
        <ele>105.4</ele>
        <time>2015-06-27T08:16:54Z</time>
      </trkpt>
      <trkpt lat="43.199" lon="6.03311">
        <ele>103.96</ele>
        <time>2015-06-27T08:17:13Z</time>
      </trkpt>
      <trkpt lat="43.19829" lon="6.03427">
        <ele>101.08</ele>
        <time>2015-06-27T08:17:32Z</time>
      </trkpt>
      <trkpt lat="43.19815" lon="6.03468">
        <ele>101.08</ele>
        <time>2015-06-27T08:17:37Z</time>
      </trkpt>
      <trkpt lat="43.19802" lon="6.03533">
        <ele>97.71</ele>
        <time>2015-06-27T08:17:45Z</time>
      </trkpt>
      <trkpt lat="43.19781" lon="6.03555">
        <ele>96.75</ele>
        <time>2015-06-27T08:17:50Z</time>
      </trkpt>
      <trkpt lat="43.19748" lon="6.03554">
        <ele>95.79</ele>
        <time>2015-06-27T08:17:55Z</time>
      </trkpt>
      <trkpt lat="43.19727" lon="6.03548">
        <ele>95.31</ele>
        <time>2015-06-27T08:17:59Z</time>
      </trkpt>
      <trkpt lat="43.19712" lon="6.0357">
        <ele>94.35</ele>
        <time>2015-06-27T08:18:05Z</time>
      </trkpt>
      <trkpt lat="43.19709" lon="6.03599">
        <ele>93.39</ele>
        <time>2015-06-27T08:18:09Z</time>
      </trkpt>
      <trkpt lat="43.19706" lon="6.03621">
        <ele>93.39</ele>
        <time>2015-06-27T08:18:12Z</time>
      </trkpt>
      <trkpt lat="43.19657" lon="6.03727">
        <ele>94.83</ele>
        <time>2015-06-27T08:18:28Z</time>
      </trkpt>
      <trkpt lat="43.1965" lon="6.03739">
        <ele>94.83</ele>
        <time>2015-06-27T08:18:30Z</time>
      </trkpt>
      <trkpt lat="43.19637" lon="6.03757">
        <ele>94.83</ele>
        <time>2015-06-27T08:18:33Z</time>
      </trkpt>
      <trkpt lat="43.196" lon="6.03787">
        <ele>94.83</ele>
        <time>2015-06-27T08:18:40Z</time>
      </trkpt>
      <trkpt lat="43.19562" lon="6.0377">
        <ele>95.31</ele>
        <time>2015-06-27T08:18:47Z</time>
      </trkpt>
      <trkpt lat="43.19533" lon="6.03724">
        <ele>96.75</ele>
        <time>2015-06-27T08:18:55Z</time>
      </trkpt>
      <trkpt lat="43.19499" lon="6.03713">
        <ele>97.71</ele>
        <time>2015-06-27T08:19:02Z</time>
      </trkpt>
      <trkpt lat="43.19454" lon="6.03733">
        <ele>98.67</ele>
        <time>2015-06-27T08:19:11Z</time>
      </trkpt>
      <trkpt lat="43.19389" lon="6.03804">
        <ele>99.15</ele>
        <time>2015-06-27T08:19:26Z</time>
      </trkpt>
      <trkpt lat="43.19372" lon="6.03824">
        <ele>99.15</ele>
        <time>2015-06-27T08:19:30Z</time>
      </trkpt>
      <trkpt lat="43.19332" lon="6.03826">
        <ele>100.11</ele>
        <time>2015-06-27T08:19:38Z</time>
      </trkpt>
      <trkpt lat="43.19322" lon="6.03818">
        <ele>101.08</ele>
        <time>2015-06-27T08:19:40Z</time>
      </trkpt>
      <trkpt lat="43.19297" lon="6.03774">
        <ele>103</ele>
        <time>2015-06-27T08:19:47Z</time>
      </trkpt>
      <trkpt lat="43.1927" lon="6.03764">
        <ele>104.44</ele>
        <time>2015-06-27T08:19:52Z</time>
      </trkpt>
      <trkpt lat="43.19255" lon="6.03781">
        <ele>103.96</ele>
        <time>2015-06-27T08:19:57Z</time>
      </trkpt>
      <trkpt lat="43.19243" lon="6.03808">
        <ele>103</ele>
        <time>2015-06-27T08:20:03Z</time>
      </trkpt>
      <trkpt lat="43.19176" lon="6.03854">
        <ele>101.56</ele>
        <time>2015-06-27T08:20:16Z</time>
      </trkpt>
      <trkpt lat="43.1912" lon="6.03904">
        <ele>100.6</ele>
        <time>2015-06-27T08:20:28Z</time>
      </trkpt>
      <trkpt lat="43.19107" lon="6.03953">
        <ele>97.23</ele>
        <time>2015-06-27T08:20:36Z</time>
      </trkpt>
      <trkpt lat="43.1913" lon="6.04021">
        <ele>95.31</ele>
        <time>2015-06-27T08:20:49Z</time>
      </trkpt>
      <trkpt lat="43.19143" lon="6.04035">
        <ele>94.83</ele>
        <time>2015-06-27T08:20:53Z</time>
      </trkpt>
      <trkpt lat="43.19196" lon="6.0404">
        <ele>94.83</ele>
        <time>2015-06-27T08:21:08Z</time>
      </trkpt>
      <trkpt lat="43.19229" lon="6.04055">
        <ele>94.35</ele>
        <time>2015-06-27T08:21:15Z</time>
      </trkpt>
      <trkpt lat="43.19259" lon="6.04108">
        <ele>93.39</ele>
        <time>2015-06-27T08:21:28Z</time>
      </trkpt>
      <trkpt lat="43.19262" lon="6.04117">
        <ele>92.9</ele>
        <time>2015-06-27T08:21:31Z</time>
      </trkpt>
      <trkpt lat="43.19312" lon="6.04136">
        <ele>93.87</ele>
        <time>2015-06-27T08:21:44Z</time>
      </trkpt>
      <trkpt lat="43.19343" lon="6.04147">
        <ele>94.35</ele>
        <time>2015-06-27T08:21:51Z</time>
      </trkpt>
      <trkpt lat="43.19377" lon="6.04169">
        <ele>95.79</ele>
        <time>2015-06-27T08:22:02Z</time>
      </trkpt>
      <trkpt lat="43.19379" lon="6.0417">
        <ele>95.31</ele>
        <time>2015-06-27T08:22:07Z</time>
      </trkpt>
      <trkpt lat="43.19382" lon="6.04181">
        <ele>94.83</ele>
        <time>2015-06-27T08:22:10Z</time>
      </trkpt>
      <trkpt lat="43.1938" lon="6.04213">
        <ele>94.35</ele>
        <time>2015-06-27T08:22:15Z</time>
      </trkpt>
      <trkpt lat="43.1935" lon="6.04324">
        <ele>92.9</ele>
        <time>2015-06-27T08:22:30Z</time>
      </trkpt>
      <trkpt lat="43.19357" lon="6.04358">
        <ele>92.9</ele>
        <time>2015-06-27T08:22:35Z</time>
      </trkpt>
      <trkpt lat="43.19368" lon="6.04384">
        <ele>92.9</ele>
        <time>2015-06-27T08:22:39Z</time>
      </trkpt>
      <trkpt lat="43.19365" lon="6.04436">
        <ele>92.9</ele>
        <time>2015-06-27T08:22:46Z</time>
      </trkpt>
      <trkpt lat="43.19305" lon="6.04536">
        <ele>92.42</ele>
        <time>2015-06-27T08:23:04Z</time>
      </trkpt>
      <trkpt lat="43.19282" lon="6.0459">
        <ele>91.94</ele>
        <time>2015-06-27T08:23:12Z</time>
      </trkpt>
      <trkpt lat="43.19253" lon="6.04619">
        <ele>92.42</ele>
        <time>2015-06-27T08:23:19Z</time>
      </trkpt>
      <trkpt lat="43.19212" lon="6.04624">
        <ele>93.39</ele>
        <time>2015-06-27T08:23:26Z</time>
      </trkpt>
      <trkpt lat="43.19163" lon="6.04593">
        <ele>94.83</ele>
        <time>2015-06-27T08:23:36Z</time>
      </trkpt>
      <trkpt lat="43.19138" lon="6.04606">
        <ele>96.75</ele>
        <time>2015-06-27T08:23:43Z</time>
      </trkpt>
      <trkpt lat="43.19112" lon="6.04612">
        <ele>97.71</ele>
        <time>2015-06-27T08:23:49Z</time>
      </trkpt>
      <trkpt lat="43.1904" lon="6.04591">
        <ele>97.71</ele>
        <time>2015-06-27T08:24:03Z</time>
      </trkpt>
      <trkpt lat="43.1902" lon="6.04592">
        <ele>97.23</ele>
        <time>2015-06-27T08:24:07Z</time>
      </trkpt>
      <trkpt lat="43.18996" lon="6.04602">
        <ele>96.75</ele>
        <time>2015-06-27T08:24:13Z</time>
      </trkpt>
      <trkpt lat="43.1896" lon="6.04583">
        <ele>95.79</ele>
        <time>2015-06-27T08:24:21Z</time>
      </trkpt>
      <trkpt lat="43.18945" lon="6.04571">
        <ele>95.31</ele>
        <time>2015-06-27T08:24:24Z</time>
      </trkpt>
      <trkpt lat="43.18856" lon="6.04513">
        <ele>102.04</ele>
        <time>2015-06-27T08:24:41Z</time>
      </trkpt>
      <trkpt lat="43.18815" lon="6.04487">
        <ele>102.52</ele>
        <time>2015-06-27T08:24:49Z</time>
      </trkpt>
      <trkpt lat="43.18793" lon="6.04485">
        <ele>102.04</ele>
        <time>2015-06-27T08:24:55Z</time>
      </trkpt>
      <trkpt lat="43.18788" lon="6.04489">
        <ele>101.56</ele>
        <time>2015-06-27T08:24:59Z</time>
      </trkpt>
      <trkpt lat="43.18778" lon="6.04515">
        <ele>100.6</ele>
        <time>2015-06-27T08:25:11Z</time>
      </trkpt>
      <trkpt lat="43.18778" lon="6.04516">
        <ele>100.11</ele>
        <time>2015-06-27T08:25:14Z</time>
      </trkpt>
      <trkpt lat="43.18798" lon="6.04529">
        <ele>101.08</ele>
        <time>2015-06-27T08:25:26Z</time>
      </trkpt>
      <trkpt lat="43.18801" lon="6.04549">
        <ele>101.56</ele>
        <time>2015-06-27T08:25:31Z</time>
      </trkpt>
      <trkpt lat="43.18794" lon="6.04569">
        <ele>102.04</ele>
        <time>2015-06-27T08:25:35Z</time>
      </trkpt>
      <trkpt lat="43.18792" lon="6.04597">
        <ele>103</ele>
        <time>2015-06-27T08:25:41Z</time>
      </trkpt>
      <trkpt lat="43.18827" lon="6.04692">
        <ele>95.79</ele>
        <time>2015-06-27T08:25:59Z</time>
      </trkpt>
      <trkpt lat="43.18824" lon="6.047">
        <ele>96.27</ele>
        <time>2015-06-27T08:26:01Z</time>
      </trkpt>
      <trkpt lat="43.18755" lon="6.04724">
        <ele>99.63</ele>
        <time>2015-06-27T08:26:16Z</time>
      </trkpt>
      <trkpt lat="43.18684" lon="6.04742">
        <ele>100.6</ele>
        <time>2015-06-27T08:26:29Z</time>
      </trkpt>
      <trkpt lat="43.18668" lon="6.04752">
        <ele>100.11</ele>
        <time>2015-06-27T08:26:32Z</time>
      </trkpt>
      <trkpt lat="43.18589" lon="6.04816">
        <ele>99.63</ele>
        <time>2015-06-27T08:26:47Z</time>
      </trkpt>
      <trkpt lat="43.18514" lon="6.04852">
        <ele>99.15</ele>
        <time>2015-06-27T08:26:59Z</time>
      </trkpt>
      <trkpt lat="43.18476" lon="6.0489">
        <ele>98.67</ele>
        <time>2015-06-27T08:27:06Z</time>
      </trkpt>
      <trkpt lat="43.18438" lon="6.049">
        <ele>99.15</ele>
        <time>2015-06-27T08:27:12Z</time>
      </trkpt>
      <trkpt lat="43.18401" lon="6.04921">
        <ele>99.15</ele>
        <time>2015-06-27T08:27:18Z</time>
      </trkpt>
      <trkpt lat="43.18342" lon="6.0498">
        <ele>97.71</ele>
        <time>2015-06-27T08:27:29Z</time>
      </trkpt>
      <trkpt lat="43.18317" lon="6.04989">
        <ele>97.71</ele>
        <time>2015-06-27T08:27:33Z</time>
      </trkpt>
      <trkpt lat="43.1821" lon="6.04981">
        <ele>95.31</ele>
        <time>2015-06-27T08:27:48Z</time>
      </trkpt>
      <trkpt lat="43.18136" lon="6.04999">
        <ele>92.9</ele>
        <time>2015-06-27T08:28:00Z</time>
      </trkpt>
      <trkpt lat="43.18133" lon="6.05002">
        <ele>92.42</ele>
        <time>2015-06-27T08:28:02Z</time>
      </trkpt>
      <trkpt lat="43.18139" lon="6.05011">
        <ele>89.54</ele>
        <time>2015-06-27T08:28:07Z</time>
      </trkpt>
      <trkpt lat="43.18161" lon="6.05077">
        <ele>90.98</ele>
        <time>2015-06-27T08:28:22Z</time>
      </trkpt>
      <trkpt lat="43.18161" lon="6.05083">
        <ele>90.98</ele>
        <time>2015-06-27T08:28:25Z</time>
      </trkpt>
      <trkpt lat="43.18122" lon="6.05109">
        <ele>91.46</ele>
        <time>2015-06-27T08:28:38Z</time>
      </trkpt>
      <trkpt lat="43.18034" lon="6.05152">
        <ele>91.94</ele>
        <time>2015-06-27T08:28:55Z</time>
      </trkpt>
      <trkpt lat="43.17995" lon="6.0517">
        <ele>90.02</ele>
        <time>2015-06-27T08:29:02Z</time>
      </trkpt>
      <trkpt lat="43.17972" lon="6.05201">
        <ele>88.58</ele>
        <time>2015-06-27T08:29:08Z</time>
      </trkpt>
      <trkpt lat="43.17967" lon="6.05216">
        <ele>87.62</ele>
        <time>2015-06-27T08:29:10Z</time>
      </trkpt>
      <trkpt lat="43.17921" lon="6.0526">
        <ele>85.69</ele>
        <time>2015-06-27T08:29:19Z</time>
      </trkpt>
      <trkpt lat="43.17903" lon="6.0527">
        <ele>85.21</ele>
        <time>2015-06-27T08:29:22Z</time>
      </trkpt>
      <trkpt lat="43.17807" lon="6.05349">
        <ele>83.29</ele>
        <time>2015-06-27T08:29:40Z</time>
      </trkpt>
      <trkpt lat="43.1773" lon="6.05405">
        <ele>81.85</ele>
        <time>2015-06-27T08:29:54Z</time>
      </trkpt>
      <trkpt lat="43.17651" lon="6.05477">
        <ele>79.93</ele>
        <time>2015-06-27T08:30:09Z</time>
      </trkpt>
      <trkpt lat="43.17558" lon="6.05563">
        <ele>75.12</ele>
        <time>2015-06-27T08:30:27Z</time>
      </trkpt>
      <trkpt lat="43.17525" lon="6.05626">
        <ele>73.68</ele>
        <time>2015-06-27T08:30:37Z</time>
      </trkpt>
      <trkpt lat="43.17421" lon="6.05699">
        <ele>72.72</ele>
        <time>2015-06-27T08:30:56Z</time>
      </trkpt>
      <trkpt lat="43.17392" lon="6.05731">
        <ele>73.2</ele>
        <time>2015-06-27T08:31:02Z</time>
      </trkpt>
      <trkpt lat="43.17307" lon="6.05789">
        <ele>73.68</ele>
        <time>2015-06-27T08:31:17Z</time>
      </trkpt>
      <trkpt lat="43.17282" lon="6.05812">
        <ele>74.16</ele>
        <time>2015-06-27T08:31:22Z</time>
      </trkpt>
      <trkpt lat="43.17261" lon="6.05799">
        <ele>74.16</ele>
        <time>2015-06-27T08:31:28Z</time>
      </trkpt>
      <trkpt lat="43.17252" lon="6.05737">
        <ele>74.64</ele>
        <time>2015-06-27T08:31:37Z</time>
      </trkpt>
      <trkpt lat="43.17253" lon="6.05701">
        <ele>74.64</ele>
        <time>2015-06-27T08:31:42Z</time>
      </trkpt>
      <trkpt lat="43.1726" lon="6.05672">
        <ele>74.16</ele>
        <time>2015-06-27T08:31:46Z</time>
      </trkpt>
      <trkpt lat="43.17251" lon="6.05586">
        <ele>75.12</ele>
        <time>2015-06-27T08:31:57Z</time>
      </trkpt>
      <trkpt lat="43.17228" lon="6.05469">
        <ele>75.12</ele>
        <time>2015-06-27T08:32:12Z</time>
      </trkpt>
      <trkpt lat="43.17209" lon="6.05346">
        <ele>76.08</ele>
        <time>2015-06-27T08:32:28Z</time>
      </trkpt>
      <trkpt lat="43.17213" lon="6.05196">
        <ele>75.6</ele>
        <time>2015-06-27T08:32:46Z</time>
      </trkpt>
      <trkpt lat="43.17223" lon="6.05088">
        <ele>75.12</ele>
        <time>2015-06-27T08:33:01Z</time>
      </trkpt>
      <trkpt lat="43.17217" lon="6.05062">
        <ele>75.6</ele>
        <time>2015-06-27T08:33:05Z</time>
      </trkpt>
      <trkpt lat="43.172" lon="6.04996">
        <ele>76.08</ele>
        <time>2015-06-27T08:33:17Z</time>
      </trkpt>
      <trkpt lat="43.17187" lon="6.04946">
        <ele>78.97</ele>
        <time>2015-06-27T08:33:29Z</time>
      </trkpt>
      <trkpt lat="43.17176" lon="6.04937">
        <ele>78.48</ele>
        <time>2015-06-27T08:33:34Z</time>
      </trkpt>
      <trkpt lat="43.17166" lon="6.04934">
        <ele>77.52</ele>
        <time>2015-06-27T08:33:37Z</time>
      </trkpt>
      <trkpt lat="43.17111" lon="6.04945">
        <ele>76.08</ele>
        <time>2015-06-27T08:33:49Z</time>
      </trkpt>
      <trkpt lat="43.17093" lon="6.04943">
        <ele>73.68</ele>
        <time>2015-06-27T08:33:53Z</time>
      </trkpt>
      <trkpt lat="43.17068" lon="6.04921">
        <ele>71.76</ele>
        <time>2015-06-27T08:33:59Z</time>
      </trkpt>
      <trkpt lat="43.17029" lon="6.04847">
        <ele>71.27</ele>
        <time>2015-06-27T08:34:12Z</time>
      </trkpt>
      <trkpt lat="43.16974" lon="6.04766">
        <ele>70.31</ele>
        <time>2015-06-27T08:34:28Z</time>
      </trkpt>
      <trkpt lat="43.16939" lon="6.04725">
        <ele>69.83</ele>
        <time>2015-06-27T08:34:37Z</time>
      </trkpt>
      <trkpt lat="43.1693" lon="6.04702">
        <ele>70.79</ele>
        <time>2015-06-27T08:34:41Z</time>
      </trkpt>
      <trkpt lat="43.16927" lon="6.04645">
        <ele>72.24</ele>
        <time>2015-06-27T08:34:49Z</time>
      </trkpt>
      <trkpt lat="43.16926" lon="6.04625">
        <ele>72.72</ele>
        <time>2015-06-27T08:34:52Z</time>
      </trkpt>
      <trkpt lat="43.16916" lon="6.0455">
        <ele>74.64</ele>
        <time>2015-06-27T08:35:05Z</time>
      </trkpt>
      <trkpt lat="43.16909" lon="6.04511">
        <ele>75.12</ele>
        <time>2015-06-27T08:35:12Z</time>
      </trkpt>
      <trkpt lat="43.16886" lon="6.0442">
        <ele>77.04</ele>
        <time>2015-06-27T08:35:30Z</time>
      </trkpt>
      <trkpt lat="43.16882" lon="6.04397">
        <ele>78</ele>
        <time>2015-06-27T08:35:40Z</time>
      </trkpt>
      <trkpt lat="43.16882" lon="6.04397">
        <ele>78</ele>
        <time>2015-06-27T08:35:41Z</time>
      </trkpt>
      <trkpt lat="43.16882" lon="6.04391">
        <ele>78.48</ele>
        <time>2015-06-27T08:35:45Z</time>
      </trkpt>
      <trkpt lat="43.1686" lon="6.04372">
        <ele>83.29</ele>
        <time>2015-06-27T08:35:59Z</time>
      </trkpt>
      <trkpt lat="43.16831" lon="6.0435">
        <ele>88.58</ele>
        <time>2015-06-27T08:36:13Z</time>
      </trkpt>
      <trkpt lat="43.16811" lon="6.04333">
        <ele>93.39</ele>
        <time>2015-06-27T08:36:24Z</time>
      </trkpt>
      <trkpt lat="43.16744" lon="6.04305">
        <ele>102.52</ele>
        <time>2015-06-27T08:36:43Z</time>
      </trkpt>
      <trkpt lat="43.16668" lon="6.04293">
        <ele>114.53</ele>
        <time>2015-06-27T08:36:59Z</time>
      </trkpt>
      <trkpt lat="43.16547" lon="6.04284">
        <ele>123.19</ele>
        <time>2015-06-27T08:37:22Z</time>
      </trkpt>
      <trkpt lat="43.16461" lon="6.04277">
        <ele>123.19</ele>
        <time>2015-06-27T08:37:39Z</time>
      </trkpt>
      <trkpt lat="43.16369" lon="6.0427">
        <ele>115.98</ele>
        <time>2015-06-27T08:37:57Z</time>
      </trkpt>
      <trkpt lat="43.16353" lon="6.04272">
        <ele>115.98</ele>
        <time>2015-06-27T08:38:00Z</time>
      </trkpt>
      <trkpt lat="43.16335" lon="6.04282">
        <ele>114.05</ele>
        <time>2015-06-27T08:38:04Z</time>
      </trkpt>
      <trkpt lat="43.1631" lon="6.04278">
        <ele>112.61</ele>
        <time>2015-06-27T08:38:09Z</time>
      </trkpt>
      <trkpt lat="43.16223" lon="6.04258">
        <ele>108.29</ele>
        <time>2015-06-27T08:38:24Z</time>
      </trkpt>
      <trkpt lat="43.16117" lon="6.04227">
        <ele>99.63</ele>
        <time>2015-06-27T08:38:41Z</time>
      </trkpt>
      <trkpt lat="43.16028" lon="6.0418">
        <ele>95.31</ele>
        <time>2015-06-27T08:38:58Z</time>
      </trkpt>
      <trkpt lat="43.16019" lon="6.04173">
        <ele>94.83</ele>
        <time>2015-06-27T08:39:00Z</time>
      </trkpt>
      <trkpt lat="43.15986" lon="6.04132">
        <ele>93.39</ele>
        <time>2015-06-27T08:39:08Z</time>
      </trkpt>
      <trkpt lat="43.15974" lon="6.04133">
        <ele>92.9</ele>
        <time>2015-06-27T08:39:10Z</time>
      </trkpt>
      <trkpt lat="43.15931" lon="6.04131">
        <ele>90.98</ele>
        <time>2015-06-27T08:39:17Z</time>
      </trkpt>
      <trkpt lat="43.15798" lon="6.04063">
        <ele>89.54</ele>
        <time>2015-06-27T08:39:39Z</time>
      </trkpt>
      <trkpt lat="43.15689" lon="6.04007">
        <ele>91.94</ele>
        <time>2015-06-27T08:39:58Z</time>
      </trkpt>
      <trkpt lat="43.15568" lon="6.03946">
        <ele>91.94</ele>
        <time>2015-06-27T08:40:19Z</time>
      </trkpt>
      <trkpt lat="43.15466" lon="6.03856">
        <ele>86.66</ele>
        <time>2015-06-27T08:40:39Z</time>
      </trkpt>
      <trkpt lat="43.1534" lon="6.03717">
        <ele>88.1</ele>
        <time>2015-06-27T08:41:03Z</time>
      </trkpt>
      <trkpt lat="43.15211" lon="6.03554">
        <ele>81.37</ele>
        <time>2015-06-27T08:41:28Z</time>
      </trkpt>
      <trkpt lat="43.15102" lon="6.03416">
        <ele>74.64</ele>
        <time>2015-06-27T08:41:49Z</time>
      </trkpt>
      <trkpt lat="43.14996" lon="6.03286">
        <ele>67.91</ele>
        <time>2015-06-27T08:42:09Z</time>
      </trkpt>
      <trkpt lat="43.14903" lon="6.03171">
        <ele>65.03</ele>
        <time>2015-06-27T08:42:27Z</time>
      </trkpt>
      <trkpt lat="43.14779" lon="6.03022">
        <ele>59.26</ele>
        <time>2015-06-27T08:42:51Z</time>
      </trkpt>
      <trkpt lat="43.14685" lon="6.02908">
        <ele>55.41</ele>
        <time>2015-06-27T08:43:10Z</time>
      </trkpt>
      <trkpt lat="43.14612" lon="6.0278">
        <ele>52.53</ele>
        <time>2015-06-27T08:43:29Z</time>
      </trkpt>
      <trkpt lat="43.14552" lon="6.02616">
        <ele>53.01</ele>
        <time>2015-06-27T08:43:51Z</time>
      </trkpt>
      <trkpt lat="43.14494" lon="6.02455">
        <ele>55.89</ele>
        <time>2015-06-27T08:44:14Z</time>
      </trkpt>
      <trkpt lat="43.14442" lon="6.02318">
        <ele>59.26</ele>
        <time>2015-06-27T08:44:35Z</time>
      </trkpt>
      <trkpt lat="43.14409" lon="6.0222">
        <ele>61.18</ele>
        <time>2015-06-27T08:44:50Z</time>
      </trkpt>
      <trkpt lat="43.14391" lon="6.02064">
        <ele>65.03</ele>
        <time>2015-06-27T08:45:11Z</time>
      </trkpt>
      <trkpt lat="43.14385" lon="6.019">
        <ele>65.99</ele>
        <time>2015-06-27T08:45:30Z</time>
      </trkpt>
      <trkpt lat="43.1438" lon="6.01681">
        <ele>65.03</ele>
        <time>2015-06-27T08:45:56Z</time>
      </trkpt>
      <trkpt lat="43.1437" lon="6.01499">
        <ele>66.47</ele>
        <time>2015-06-27T08:46:20Z</time>
      </trkpt>
      <trkpt lat="43.14364" lon="6.01342">
        <ele>66.95</ele>
        <time>2015-06-27T08:46:43Z</time>
      </trkpt>
      <trkpt lat="43.1436" lon="6.01227">
        <ele>67.91</ele>
        <time>2015-06-27T08:47:03Z</time>
      </trkpt>
      <trkpt lat="43.14352" lon="6.0113">
        <ele>68.87</ele>
        <time>2015-06-27T08:47:21Z</time>
      </trkpt>
      <trkpt lat="43.14335" lon="6.01041">
        <ele>72.24</ele>
        <time>2015-06-27T08:47:38Z</time>
      </trkpt>
      <trkpt lat="43.14311" lon="6.00933">
        <ele>76.56</ele>
        <time>2015-06-27T08:47:59Z</time>
      </trkpt>
      <trkpt lat="43.14284" lon="6.00831">
        <ele>81.85</ele>
        <time>2015-06-27T08:48:18Z</time>
      </trkpt>
      <trkpt lat="43.14247" lon="6.00695">
        <ele>84.73</ele>
        <time>2015-06-27T08:48:38Z</time>
      </trkpt>
      <trkpt lat="43.14199" lon="6.00528">
        <ele>84.73</ele>
        <time>2015-06-27T08:49:01Z</time>
      </trkpt>
      <trkpt lat="43.1415" lon="6.00346">
        <ele>78.97</ele>
        <time>2015-06-27T08:49:23Z</time>
      </trkpt>
      <trkpt lat="43.14138" lon="6.00303">
        <ele>78</ele>
        <time>2015-06-27T08:49:28Z</time>
      </trkpt>
      <trkpt lat="43.14138" lon="6.00265">
        <ele>77.52</ele>
        <time>2015-06-27T08:49:32Z</time>
      </trkpt>
      <trkpt lat="43.14149" lon="6.00225">
        <ele>77.52</ele>
        <time>2015-06-27T08:49:37Z</time>
      </trkpt>
      <trkpt lat="43.1416" lon="6.00207">
        <ele>78</ele>
        <time>2015-06-27T08:49:40Z</time>
      </trkpt>
      <trkpt lat="43.14169" lon="6.00182">
        <ele>78.48</ele>
        <time>2015-06-27T08:49:44Z</time>
      </trkpt>
      <trkpt lat="43.14178" lon="6.00123">
        <ele>79.93</ele>
        <time>2015-06-27T08:49:57Z</time>
      </trkpt>
      <trkpt lat="43.14187" lon="6.00098">
        <ele>80.41</ele>
        <time>2015-06-27T08:50:09Z</time>
      </trkpt>
      <trkpt lat="43.1418" lon="6.00067">
        <ele>78.97</ele>
        <time>2015-06-27T08:50:18Z</time>
      </trkpt>
      <trkpt lat="43.1417" lon="6.00064">
        <ele>77.04</ele>
        <time>2015-06-27T08:50:29Z</time>
      </trkpt>
      <trkpt lat="43.14146" lon="6.00069">
        <ele>78.48</ele>
        <time>2015-06-27T08:50:38Z</time>
      </trkpt>
      <trkpt lat="43.14136" lon="6.00071">
        <ele>78.97</ele>
        <time>2015-06-27T08:50:40Z</time>
      </trkpt>
      <trkpt lat="43.1408" lon="6.00039">
        <ele>81.85</ele>
        <time>2015-06-27T08:50:49Z</time>
      </trkpt>
      <trkpt lat="43.14033" lon="5.99907">
        <ele>86.66</ele>
        <time>2015-06-27T08:51:04Z</time>
      </trkpt>
      <trkpt lat="43.13991" lon="5.99788">
        <ele>91.46</ele>
        <time>2015-06-27T08:51:21Z</time>
      </trkpt>
      <trkpt lat="43.13948" lon="5.99673">
        <ele>95.79</ele>
        <time>2015-06-27T08:51:40Z</time>
      </trkpt>
      <trkpt lat="43.13933" lon="5.99623">
        <ele>101.56</ele>
        <time>2015-06-27T08:51:49Z</time>
      </trkpt>
      <trkpt lat="43.13918" lon="5.99601">
        <ele>108.77</ele>
        <time>2015-06-27T08:51:54Z</time>
      </trkpt>
      <trkpt lat="43.13909" lon="5.99581">
        <ele>113.57</ele>
        <time>2015-06-27T08:51:58Z</time>
      </trkpt>
      <trkpt lat="43.13869" lon="5.99493">
        <ele>133.28</ele>
        <time>2015-06-27T08:52:15Z</time>
      </trkpt>
      <trkpt lat="43.13826" lon="5.9939">
        <ele>152.03</ele>
        <time>2015-06-27T08:52:33Z</time>
      </trkpt>
      <trkpt lat="43.13814" lon="5.99355">
        <ele>153.95</ele>
        <time>2015-06-27T08:52:39Z</time>
      </trkpt>
      <trkpt lat="43.13809" lon="5.99336">
        <ele>153.95</ele>
        <time>2015-06-27T08:52:42Z</time>
      </trkpt>
      <trkpt lat="43.13803" lon="5.99275">
        <ele>151.54</ele>
        <time>2015-06-27T08:52:49Z</time>
      </trkpt>
      <trkpt lat="43.13806" lon="5.99148">
        <ele>143.37</ele>
        <time>2015-06-27T08:53:06Z</time>
      </trkpt>
      <trkpt lat="43.1381" lon="5.9905">
        <ele>138.09</ele>
        <time>2015-06-27T08:53:22Z</time>
      </trkpt>
      <trkpt lat="43.13812" lon="5.98948">
        <ele>130.88</ele>
        <time>2015-06-27T08:53:37Z</time>
      </trkpt>
      <trkpt lat="43.13814" lon="5.98813">
        <ele>128.47</ele>
        <time>2015-06-27T08:53:58Z</time>
      </trkpt>
      <trkpt lat="43.13804" lon="5.98789">
        <ele>127.51</ele>
        <time>2015-06-27T08:54:04Z</time>
      </trkpt>
      <trkpt lat="43.13712" lon="5.98769">
        <ele>117.9</ele>
        <time>2015-06-27T08:54:22Z</time>
      </trkpt>
      <trkpt lat="43.13657" lon="5.98771">
        <ele>122.22</ele>
        <time>2015-06-27T08:54:34Z</time>
      </trkpt>
      <trkpt lat="43.13659" lon="5.98762">
        <ele>114.05</ele>
        <time>2015-06-27T08:54:42Z</time>
      </trkpt>
      <trkpt lat="43.13644" lon="5.98758">
        <ele>110.21</ele>
        <time>2015-06-27T08:54:48Z</time>
      </trkpt>
      <trkpt lat="43.13626" lon="5.9874">
        <ele>111.65</ele>
        <time>2015-06-27T08:54:53Z</time>
      </trkpt>
      <trkpt lat="43.13608" lon="5.98634">
        <ele>120.78</ele>
        <time>2015-06-27T08:55:09Z</time>
      </trkpt>
      <trkpt lat="43.13608" lon="5.98601">
        <ele>122.22</ele>
        <time>2015-06-27T08:55:17Z</time>
      </trkpt>
      <trkpt lat="43.13603" lon="5.98573">
        <ele>123.19</ele>
        <time>2015-06-27T08:55:21Z</time>
      </trkpt>
      <trkpt lat="43.13599" lon="5.9842">
        <ele>122.71</ele>
        <time>2015-06-27T08:55:38Z</time>
      </trkpt>
      <trkpt lat="43.13599" lon="5.98401">
        <ele>122.22</ele>
        <time>2015-06-27T08:55:40Z</time>
      </trkpt>
      <trkpt lat="43.13603" lon="5.98371">
        <ele>120.78</ele>
        <time>2015-06-27T08:55:44Z</time>
      </trkpt>
      <trkpt lat="43.13599" lon="5.98345">
        <ele>119.34</ele>
        <time>2015-06-27T08:55:49Z</time>
      </trkpt>
      <trkpt lat="43.13599" lon="5.98314">
        <ele>116.94</ele>
        <time>2015-06-27T08:55:53Z</time>
      </trkpt>
      <trkpt lat="43.13604" lon="5.98231">
        <ele>114.05</ele>
        <time>2015-06-27T08:56:03Z</time>
      </trkpt>
      <trkpt lat="43.13624" lon="5.98184">
        <ele>111.17</ele>
        <time>2015-06-27T08:56:10Z</time>
      </trkpt>
      <trkpt lat="43.13681" lon="5.98086">
        <ele>105.4</ele>
        <time>2015-06-27T08:56:26Z</time>
      </trkpt>
      <trkpt lat="43.13683" lon="5.98052">
        <ele>104.44</ele>
        <time>2015-06-27T08:56:31Z</time>
      </trkpt>
      <trkpt lat="43.13612" lon="5.97928">
        <ele>106.36</ele>
        <time>2015-06-27T08:56:51Z</time>
      </trkpt>
      <trkpt lat="43.13554" lon="5.97827">
        <ele>107.32</ele>
        <time>2015-06-27T08:57:08Z</time>
      </trkpt>
      <trkpt lat="43.1355" lon="5.97795">
        <ele>106.36</ele>
        <time>2015-06-27T08:57:13Z</time>
      </trkpt>
      <trkpt lat="43.13531" lon="5.9776">
        <ele>105.4</ele>
        <time>2015-06-27T08:57:21Z</time>
      </trkpt>
      <trkpt lat="43.13526" lon="5.97761">
        <ele>105.88</ele>
        <time>2015-06-27T08:57:22Z</time>
      </trkpt>
      <trkpt lat="43.13506" lon="5.97766">
        <ele>106.36</ele>
        <time>2015-06-27T08:57:25Z</time>
      </trkpt>
      <trkpt lat="43.13396" lon="5.97728">
        <ele>108.29</ele>
        <time>2015-06-27T08:57:39Z</time>
      </trkpt>
      <trkpt lat="43.1326" lon="5.97666">
        <ele>111.65</ele>
        <time>2015-06-27T08:57:56Z</time>
      </trkpt>
      <trkpt lat="43.13241" lon="5.97653">
        <ele>112.61</ele>
        <time>2015-06-27T08:57:59Z</time>
      </trkpt>
      <trkpt lat="43.13188" lon="5.9756">
        <ele>116.94</ele>
        <time>2015-06-27T08:58:12Z</time>
      </trkpt>
      <trkpt lat="43.1312" lon="5.97392">
        <ele>129.43</ele>
        <time>2015-06-27T08:58:32Z</time>
      </trkpt>
      <trkpt lat="43.13058" lon="5.97238">
        <ele>125.59</ele>
        <time>2015-06-27T08:58:52Z</time>
      </trkpt>
      <trkpt lat="43.13006" lon="5.97108">
        <ele>124.63</ele>
        <time>2015-06-27T08:59:10Z</time>
      </trkpt>
      <trkpt lat="43.12939" lon="5.96941">
        <ele>123.19</ele>
        <time>2015-06-27T08:59:32Z</time>
      </trkpt>
      <trkpt lat="43.1289" lon="5.96785">
        <ele>117.42</ele>
        <time>2015-06-27T08:59:50Z</time>
      </trkpt>
      <trkpt lat="43.12845" lon="5.96641">
        <ele>113.09</ele>
        <time>2015-06-27T09:00:06Z</time>
      </trkpt>
      <trkpt lat="43.12804" lon="5.96504">
        <ele>107.32</ele>
        <time>2015-06-27T09:00:21Z</time>
      </trkpt>
      <trkpt lat="43.12754" lon="5.96347">
        <ele>101.08</ele>
        <time>2015-06-27T09:00:38Z</time>
      </trkpt>
      <trkpt lat="43.12692" lon="5.96189">
        <ele>95.79</ele>
        <time>2015-06-27T09:00:56Z</time>
      </trkpt>
      <trkpt lat="43.12632" lon="5.96036">
        <ele>90.5</ele>
        <time>2015-06-27T09:01:13Z</time>
      </trkpt>
      <trkpt lat="43.12604" lon="5.95954">
        <ele>86.66</ele>
        <time>2015-06-27T09:01:25Z</time>
      </trkpt>
      <trkpt lat="43.12603" lon="5.95945">
        <ele>79.93</ele>
        <time>2015-06-27T09:01:43Z</time>
      </trkpt>
      <trkpt lat="43.12589" lon="5.95917">
        <ele>78</ele>
        <time>2015-06-27T09:01:51Z</time>
      </trkpt>
      <trkpt lat="43.12558" lon="5.95846">
        <ele>78.97</ele>
        <time>2015-06-27T09:02:03Z</time>
      </trkpt>
      <trkpt lat="43.12506" lon="5.95729">
        <ele>76.56</ele>
        <time>2015-06-27T09:02:19Z</time>
      </trkpt>
      <trkpt lat="43.12499" lon="5.95716">
        <ele>77.04</ele>
        <time>2015-06-27T09:02:21Z</time>
      </trkpt>
      <trkpt lat="43.12468" lon="5.95635">
        <ele>79.93</ele>
        <time>2015-06-27T09:02:35Z</time>
      </trkpt>
      <trkpt lat="43.12461" lon="5.95621">
        <ele>81.37</ele>
        <time>2015-06-27T09:02:38Z</time>
      </trkpt>
      <trkpt lat="43.12428" lon="5.95537">
        <ele>85.69</ele>
        <time>2015-06-27T09:02:52Z</time>
      </trkpt>
      <trkpt lat="43.12391" lon="5.95432">
        <ele>87.14</ele>
        <time>2015-06-27T09:03:08Z</time>
      </trkpt>
      <trkpt lat="43.12376" lon="5.95313">
        <ele>84.25</ele>
        <time>2015-06-27T09:03:24Z</time>
      </trkpt>
      <trkpt lat="43.12371" lon="5.95177">
        <ele>78.97</ele>
        <time>2015-06-27T09:03:41Z</time>
      </trkpt>
      <trkpt lat="43.12367" lon="5.95128">
        <ele>75.6</ele>
        <time>2015-06-27T09:03:51Z</time>
      </trkpt>
      <trkpt lat="43.12364" lon="5.95006">
        <ele>70.79</ele>
        <time>2015-06-27T09:04:07Z</time>
      </trkpt>
      <trkpt lat="43.1235" lon="5.94864">
        <ele>65.99</ele>
        <time>2015-06-27T09:04:25Z</time>
      </trkpt>
      <trkpt lat="43.1232" lon="5.94734">
        <ele>59.74</ele>
        <time>2015-06-27T09:04:40Z</time>
      </trkpt>
      <trkpt lat="43.12275" lon="5.94591">
        <ele>53.01</ele>
        <time>2015-06-27T09:04:57Z</time>
      </trkpt>
      <trkpt lat="43.12241" lon="5.9443">
        <ele>49.65</ele>
        <time>2015-06-27T09:05:17Z</time>
      </trkpt>
      <trkpt lat="43.12212" lon="5.9434">
        <ele>48.2</ele>
        <time>2015-06-27T09:05:31Z</time>
      </trkpt>
      <trkpt lat="43.12186" lon="5.94261">
        <ele>47.72</ele>
        <time>2015-06-27T09:05:44Z</time>
      </trkpt>
      <trkpt lat="43.12169" lon="5.94202">
        <ele>47.24</ele>
        <time>2015-06-27T09:05:53Z</time>
      </trkpt>
      <trkpt lat="43.12156" lon="5.94147">
        <ele>43.4</ele>
        <time>2015-06-27T09:06:01Z</time>
      </trkpt>
      <trkpt lat="43.1216" lon="5.94114">
        <ele>40.99</ele>
        <time>2015-06-27T09:06:06Z</time>
      </trkpt>
      <trkpt lat="43.12188" lon="5.9404">
        <ele>34.74</ele>
        <time>2015-06-27T09:06:19Z</time>
      </trkpt>
      <trkpt lat="43.12226" lon="5.93957">
        <ele>33.78</ele>
        <time>2015-06-27T09:06:33Z</time>
      </trkpt>
      <trkpt lat="43.12235" lon="5.93928">
        <ele>33.3</ele>
        <time>2015-06-27T09:06:43Z</time>
      </trkpt>
      <trkpt lat="43.12235" lon="5.93926">
        <ele>33.3</ele>
        <time>2015-06-27T09:06:44Z</time>
      </trkpt>
      <trkpt lat="43.1222" lon="5.93919">
        <ele>34.26</ele>
        <time>2015-06-27T09:06:50Z</time>
      </trkpt>
      <trkpt lat="43.12178" lon="5.93931">
        <ele>42.44</ele>
        <time>2015-06-27T09:06:57Z</time>
      </trkpt>
      <trkpt lat="43.12156" lon="5.93931">
        <ele>44.84</ele>
        <time>2015-06-27T09:07:00Z</time>
      </trkpt>
      <trkpt lat="43.12123" lon="5.93892">
        <ele>58.78</ele>
        <time>2015-06-27T09:07:09Z</time>
      </trkpt>
      <trkpt lat="43.12143" lon="5.93782">
        <ele>69.35</ele>
        <time>2015-06-27T09:07:21Z</time>
      </trkpt>
      <trkpt lat="43.12147" lon="5.93723">
        <ele>71.27</ele>
        <time>2015-06-27T09:07:27Z</time>
      </trkpt>
      <trkpt lat="43.12125" lon="5.93669">
        <ele>74.16</ele>
        <time>2015-06-27T09:07:36Z</time>
      </trkpt>
      <trkpt lat="43.12117" lon="5.93654">
        <ele>75.12</ele>
        <time>2015-06-27T09:07:41Z</time>
      </trkpt>
      <trkpt lat="43.12127" lon="5.93623">
        <ele>79.45</ele>
        <time>2015-06-27T09:07:59Z</time>
      </trkpt>
      <trkpt lat="43.12121" lon="5.93605">
        <ele>79.45</ele>
        <time>2015-06-27T09:08:05Z</time>
      </trkpt>
      <trkpt lat="43.12058" lon="5.93547">
        <ele>78.48</ele>
        <time>2015-06-27T09:08:21Z</time>
      </trkpt>
      <trkpt lat="43.12003" lon="5.93514">
        <ele>78</ele>
        <time>2015-06-27T09:08:33Z</time>
      </trkpt>
      <trkpt lat="43.11984" lon="5.93474">
        <ele>73.68</ele>
        <time>2015-06-27T09:08:46Z</time>
      </trkpt>
      <trkpt lat="43.11949" lon="5.93435">
        <ele>71.76</ele>
        <time>2015-06-27T09:08:59Z</time>
      </trkpt>
      <trkpt lat="43.11948" lon="5.93431">
        <ele>71.76</ele>
        <time>2015-06-27T09:09:01Z</time>
      </trkpt>
      <trkpt lat="43.11945" lon="5.93411">
        <ele>69.83</ele>
        <time>2015-06-27T09:09:05Z</time>
      </trkpt>
      <trkpt lat="43.11946" lon="5.93394">
        <ele>65.99</ele>
        <time>2015-06-27T09:09:07Z</time>
      </trkpt>
      <trkpt lat="43.11999" lon="5.93271">
        <ele>65.03</ele>
        <time>2015-06-27T09:09:25Z</time>
      </trkpt>
      <trkpt lat="43.12045" lon="5.93164">
        <ele>65.03</ele>
        <time>2015-06-27T09:09:40Z</time>
      </trkpt>
      <trkpt lat="43.1207" lon="5.93125">
        <ele>65.51</ele>
        <time>2015-06-27T09:09:51Z</time>
      </trkpt>
      <trkpt lat="43.12111" lon="5.9304">
        <ele>63.58</ele>
        <time>2015-06-27T09:10:07Z</time>
      </trkpt>
      <trkpt lat="43.12152" lon="5.92951">
        <ele>64.07</ele>
        <time>2015-06-27T09:10:22Z</time>
      </trkpt>
      <trkpt lat="43.12186" lon="5.92902">
        <ele>43.4</ele>
        <time>2015-06-27T09:10:31Z</time>
      </trkpt>
      <trkpt lat="43.1221" lon="5.92885">
        <ele>29.94</ele>
        <time>2015-06-27T09:10:38Z</time>
      </trkpt>
      <trkpt lat="43.12215" lon="5.92884">
        <ele>24.17</ele>
        <time>2015-06-27T09:10:44Z</time>
      </trkpt>
      <trkpt lat="43.12222" lon="5.92889">
        <ele>23.69</ele>
        <time>2015-06-27T09:10:48Z</time>
      </trkpt>
      <trkpt lat="43.12274" lon="5.92924">
        <ele>24.65</ele>
        <time>2015-06-27T09:11:00Z</time>
      </trkpt>
      <trkpt lat="43.12284" lon="5.92932">
        <ele>24.65</ele>
        <time>2015-06-27T09:11:02Z</time>
      </trkpt>
      <trkpt lat="43.12318" lon="5.92922">
        <ele>25.61</ele>
        <time>2015-06-27T09:11:10Z</time>
      </trkpt>
      <trkpt lat="43.12371" lon="5.9279">
        <ele>29.94</ele>
        <time>2015-06-27T09:11:30Z</time>
      </trkpt>
      <trkpt lat="43.12438" lon="5.92625">
        <ele>28.98</ele>
        <time>2015-06-27T09:11:53Z</time>
      </trkpt>
      <trkpt lat="43.12499" lon="5.9249">
        <ele>22.25</ele>
        <time>2015-06-27T09:12:12Z</time>
      </trkpt>
      <trkpt lat="43.12564" lon="5.92342">
        <ele>17.44</ele>
        <time>2015-06-27T09:12:30Z</time>
      </trkpt>
      <trkpt lat="43.12606" lon="5.92229">
        <ele>16.48</ele>
        <time>2015-06-27T09:12:45Z</time>
      </trkpt>
      <trkpt lat="43.12601" lon="5.92214">
        <ele>17.44</ele>
        <time>2015-06-27T09:12:49Z</time>
      </trkpt>
      <trkpt lat="43.12627" lon="5.92145">
        <ele>18.88</ele>
        <time>2015-06-27T09:13:00Z</time>
      </trkpt>
      <trkpt lat="43.12668" lon="5.92038">
        <ele>18.88</ele>
        <time>2015-06-27T09:13:15Z</time>
      </trkpt>
      <trkpt lat="43.12699" lon="5.91921">
        <ele>18.88</ele>
        <time>2015-06-27T09:13:31Z</time>
      </trkpt>
      <trkpt lat="43.12681" lon="5.91813">
        <ele>17.44</ele>
        <time>2015-06-27T09:13:45Z</time>
      </trkpt>
      <trkpt lat="43.12671" lon="5.9176">
        <ele>16.96</ele>
        <time>2015-06-27T09:13:52Z</time>
      </trkpt>
      <trkpt lat="43.12664" lon="5.91748">
        <ele>16.96</ele>
        <time>2015-06-27T09:13:54Z</time>
      </trkpt>
      <trkpt lat="43.12646" lon="5.91681">
        <ele>18.4</ele>
        <time>2015-06-27T09:14:04Z</time>
      </trkpt>
      <trkpt lat="43.12643" lon="5.91663">
        <ele>18.4</ele>
        <time>2015-06-27T09:14:07Z</time>
      </trkpt>
      <trkpt lat="43.1264" lon="5.91651">
        <ele>17.92</ele>
        <time>2015-06-27T09:14:09Z</time>
      </trkpt>
      <trkpt lat="43.12639" lon="5.91624">
        <ele>16.96</ele>
        <time>2015-06-27T09:14:13Z</time>
      </trkpt>
      <trkpt lat="43.1264" lon="5.91588">
        <ele>16.96</ele>
        <time>2015-06-27T09:14:18Z</time>
      </trkpt>
      <trkpt lat="43.12639" lon="5.9156">
        <ele>17.92</ele>
        <time>2015-06-27T09:14:22Z</time>
      </trkpt>
      <trkpt lat="43.12645" lon="5.91461">
        <ele>19.84</ele>
        <time>2015-06-27T09:14:35Z</time>
      </trkpt>
      <trkpt lat="43.12649" lon="5.91426">
        <ele>20.32</ele>
        <time>2015-06-27T09:14:39Z</time>
      </trkpt>
      <trkpt lat="43.12651" lon="5.91379">
        <ele>21.29</ele>
        <time>2015-06-27T09:14:44Z</time>
      </trkpt>
      <trkpt lat="43.12648" lon="5.91355">
        <ele>21.29</ele>
        <time>2015-06-27T09:14:47Z</time>
      </trkpt>
      <trkpt lat="43.12645" lon="5.91297">
        <ele>20.81</ele>
        <time>2015-06-27T09:14:54Z</time>
      </trkpt>
      <trkpt lat="43.12637" lon="5.91182">
        <ele>20.81</ele>
        <time>2015-06-27T09:15:09Z</time>
      </trkpt>
      <trkpt lat="43.12609" lon="5.91012">
        <ele>16.48</ele>
        <time>2015-06-27T09:15:30Z</time>
      </trkpt>
      <trkpt lat="43.12607" lon="5.91004">
        <ele>16.48</ele>
        <time>2015-06-27T09:15:31Z</time>
      </trkpt>
      <trkpt lat="43.12564" lon="5.90906">
        <ele>16</ele>
        <time>2015-06-27T09:15:45Z</time>
      </trkpt>
      <trkpt lat="43.12533" lon="5.90841">
        <ele>15.52</ele>
        <time>2015-06-27T09:15:57Z</time>
      </trkpt>
      <trkpt lat="43.12463" lon="5.90725">
        <ele>15.04</ele>
        <time>2015-06-27T09:16:13Z</time>
      </trkpt>
      <trkpt lat="43.12454" lon="5.90695">
        <ele>17.44</ele>
        <time>2015-06-27T09:16:17Z</time>
      </trkpt>
      <trkpt lat="43.12454" lon="5.90573">
        <ele>18.88</ele>
        <time>2015-06-27T09:16:30Z</time>
      </trkpt>
      <trkpt lat="43.12436" lon="5.90416">
        <ele>18.4</ele>
        <time>2015-06-27T09:16:47Z</time>
      </trkpt>
      <trkpt lat="43.1239" lon="5.90375">
        <ele>17.92</ele>
        <time>2015-06-27T09:16:58Z</time>
      </trkpt>
      <trkpt lat="43.12412" lon="5.90364">
        <ele>17.44</ele>
        <time>2015-06-27T09:17:05Z</time>
      </trkpt>
      <trkpt lat="43.1251" lon="5.90421">
        <ele>17.92</ele>
        <time>2015-06-27T09:17:22Z</time>
      </trkpt>
      <trkpt lat="43.12518" lon="5.90432">
        <ele>17.92</ele>
        <time>2015-06-27T09:17:24Z</time>
      </trkpt>
      <trkpt lat="43.12544" lon="5.90534">
        <ele>17.44</ele>
        <time>2015-06-27T09:17:36Z</time>
      </trkpt>
      <trkpt lat="43.12564" lon="5.90562">
        <ele>17.44</ele>
        <time>2015-06-27T09:17:41Z</time>
      </trkpt>
      <trkpt lat="43.12604" lon="5.90592">
        <ele>16</ele>
        <time>2015-06-27T09:17:48Z</time>
      </trkpt>
      <trkpt lat="43.12687" lon="5.90616">
        <ele>14.56</ele>
        <time>2015-06-27T09:18:02Z</time>
      </trkpt>
      <trkpt lat="43.12754" lon="5.90646">
        <ele>15.04</ele>
        <time>2015-06-27T09:18:16Z</time>
      </trkpt>
      <trkpt lat="43.12767" lon="5.90655">
        <ele>15.04</ele>
        <time>2015-06-27T09:18:19Z</time>
      </trkpt>
      <trkpt lat="43.12779" lon="5.90672">
        <ele>14.56</ele>
        <time>2015-06-27T09:18:23Z</time>
      </trkpt>
      <trkpt lat="43.12785" lon="5.9068">
        <ele>14.56</ele>
        <time>2015-06-27T09:18:26Z</time>
      </trkpt>
      <trkpt lat="43.12784" lon="5.90668">
        <ele>21.77</ele>
        <time>2015-06-27T09:18:35Z</time>
      </trkpt>
      <trkpt lat="43.12788" lon="5.90682">
        <ele>22.25</ele>
        <time>2015-06-27T09:18:39Z</time>
      </trkpt>
      <trkpt lat="43.12791" lon="5.90693">
        <ele>21.77</ele>
        <time>2015-06-27T09:18:41Z</time>
      </trkpt>
      <trkpt lat="43.12801" lon="5.90713">
        <ele>22.73</ele>
        <time>2015-06-27T09:18:45Z</time>
      </trkpt>
      <trkpt lat="43.12821" lon="5.90807">
        <ele>25.61</ele>
        <time>2015-06-27T09:18:58Z</time>
      </trkpt>
      <trkpt lat="43.12837" lon="5.90879">
        <ele>26.57</ele>
        <time>2015-06-27T09:19:07Z</time>
      </trkpt>
      <trkpt lat="43.12845" lon="5.90934">
        <ele>27.05</ele>
        <time>2015-06-27T09:19:14Z</time>
      </trkpt>
      <trkpt lat="43.12851" lon="5.9096">
        <ele>27.53</ele>
        <time>2015-06-27T09:19:23Z</time>
      </trkpt>
      <trkpt lat="43.12851" lon="5.90964">
        <ele>27.53</ele>
        <time>2015-06-27T09:19:25Z</time>
      </trkpt>
      <trkpt lat="43.1286" lon="5.90972">
        <ele>27.05</ele>
        <time>2015-06-27T09:19:30Z</time>
      </trkpt>
      <trkpt lat="43.12877" lon="5.90968">
        <ele>28.02</ele>
        <time>2015-06-27T09:19:34Z</time>
      </trkpt>
      <trkpt lat="43.12962" lon="5.90971">
        <ele>29.94</ele>
        <time>2015-06-27T09:19:51Z</time>
      </trkpt>
      <trkpt lat="43.13046" lon="5.90966">
        <ele>30.9</ele>
        <time>2015-06-27T09:20:08Z</time>
      </trkpt>
      <trkpt lat="43.13064" lon="5.90963">
        <ele>30.9</ele>
        <time>2015-06-27T09:20:12Z</time>
      </trkpt>
      <trkpt lat="43.13083" lon="5.9096">
        <ele>29.94</ele>
        <time>2015-06-27T09:20:16Z</time>
      </trkpt>
      <trkpt lat="43.13109" lon="5.9096">
        <ele>30.9</ele>
        <time>2015-06-27T09:20:21Z</time>
      </trkpt>
      <trkpt lat="43.13139" lon="5.90968">
        <ele>31.38</ele>
        <time>2015-06-27T09:20:29Z</time>
      </trkpt>
      <trkpt lat="43.13145" lon="5.9098">
        <ele>30.9</ele>
        <time>2015-06-27T09:20:33Z</time>
      </trkpt>
      <trkpt lat="43.13165" lon="5.9099">
        <ele>31.38</ele>
        <time>2015-06-27T09:20:38Z</time>
      </trkpt>
      <trkpt lat="43.13217" lon="5.90997">
        <ele>32.34</ele>
        <time>2015-06-27T09:20:51Z</time>
      </trkpt>
      <trkpt lat="43.13232" lon="5.90994">
        <ele>32.34</ele>
        <time>2015-06-27T09:20:54Z</time>
      </trkpt>
      <trkpt lat="43.13321" lon="5.90962">
        <ele>31.86</ele>
        <time>2015-06-27T09:21:10Z</time>
      </trkpt>
      <trkpt lat="43.13422" lon="5.90941">
        <ele>29.46</ele>
        <time>2015-06-27T09:21:27Z</time>
      </trkpt>
      <trkpt lat="43.13524" lon="5.90928">
        <ele>28.5</ele>
        <time>2015-06-27T09:21:44Z</time>
      </trkpt>
      <trkpt lat="43.13562" lon="5.90924">
        <ele>28.02</ele>
        <time>2015-06-27T09:21:51Z</time>
      </trkpt>
      <trkpt lat="43.13572" lon="5.90906">
        <ele>28.98</ele>
        <time>2015-06-27T09:21:56Z</time>
      </trkpt>
      <trkpt lat="43.13567" lon="5.90832">
        <ele>33.3</ele>
        <time>2015-06-27T09:22:08Z</time>
      </trkpt>
      <trkpt lat="43.13584" lon="5.90819">
        <ele>34.74</ele>
        <time>2015-06-27T09:22:14Z</time>
      </trkpt>
      <trkpt lat="43.13636" lon="5.90822">
        <ele>34.26</ele>
        <time>2015-06-27T09:22:24Z</time>
      </trkpt>
      <trkpt lat="43.13646" lon="5.90822">
        <ele>34.74</ele>
        <time>2015-06-27T09:22:26Z</time>
      </trkpt>
      <trkpt lat="43.13661" lon="5.90824">
        <ele>35.71</ele>
        <time>2015-06-27T09:22:29Z</time>
      </trkpt>
      <trkpt lat="43.13693" lon="5.90825">
        <ele>36.67</ele>
        <time>2015-06-27T09:22:37Z</time>
      </trkpt>
      <trkpt lat="43.13699" lon="5.90844">
        <ele>36.67</ele>
        <time>2015-06-27T09:22:41Z</time>
      </trkpt>
      <trkpt lat="43.13702" lon="5.91003">
        <ele>32.82</ele>
        <time>2015-06-27T09:23:02Z</time>
      </trkpt>
      <trkpt lat="43.13706" lon="5.91146">
        <ele>32.34</ele>
        <time>2015-06-27T09:23:21Z</time>
      </trkpt>
      <trkpt lat="43.13712" lon="5.91181">
        <ele>32.34</ele>
        <time>2015-06-27T09:23:26Z</time>
      </trkpt>
      <trkpt lat="43.13745" lon="5.91271">
        <ele>33.3</ele>
        <time>2015-06-27T09:23:41Z</time>
      </trkpt>
      <trkpt lat="43.13781" lon="5.91346">
        <ele>35.23</ele>
        <time>2015-06-27T09:23:56Z</time>
      </trkpt>
      <trkpt lat="43.13774" lon="5.91376">
        <ele>40.03</ele>
        <time>2015-06-27T09:24:07Z</time>
      </trkpt>
      <trkpt lat="43.1377" lon="5.91383">
        <ele>38.59</ele>
        <time>2015-06-27T09:24:09Z</time>
      </trkpt>
      <trkpt lat="43.1376" lon="5.91423">
        <ele>41.95</ele>
        <time>2015-06-27T09:24:24Z</time>
      </trkpt>
      <trkpt lat="43.13756" lon="5.91464">
        <ele>42.44</ele>
        <time>2015-06-27T09:24:37Z</time>
      </trkpt>
      <trkpt lat="43.13755" lon="5.91472">
        <ele>43.4</ele>
        <time>2015-06-27T09:24:40Z</time>
      </trkpt>
      <trkpt lat="43.13746" lon="5.91482">
        <ele>43.88</ele>
        <time>2015-06-27T09:24:43Z</time>
      </trkpt>
      <trkpt lat="43.1362" lon="5.91585">
        <ele>33.78</ele>
        <time>2015-06-27T09:24:53Z</time>
      </trkpt>
      <trkpt lat="43.13612" lon="5.91592">
        <ele>33.78</ele>
        <time>2015-06-27T09:24:55Z</time>
      </trkpt>
      <trkpt lat="43.1358" lon="5.91604">
        <ele>38.59</ele>
        <time>2015-06-27T09:25:08Z</time>
      </trkpt>
      <trkpt lat="43.13582" lon="5.91602">
        <ele>40.51</ele>
        <time>2015-06-27T09:25:13Z</time>
      </trkpt>
      <trkpt lat="43.13587" lon="5.91657">
        <ele>39.07</ele>
        <time>2015-06-27T09:25:25Z</time>
      </trkpt>
      <trkpt lat="43.13588" lon="5.91661">
        <ele>39.07</ele>
        <time>2015-06-27T09:25:26Z</time>
      </trkpt>
      <trkpt lat="43.13621" lon="5.91671">
        <ele>42.92</ele>
        <time>2015-06-27T09:25:37Z</time>
      </trkpt>
      <trkpt lat="43.13668" lon="5.91675">
        <ele>45.32</ele>
        <time>2015-06-27T09:25:52Z</time>
      </trkpt>
      <trkpt lat="43.13702" lon="5.91697">
        <ele>42.44</ele>
        <time>2015-06-27T09:26:07Z</time>
      </trkpt>
      <trkpt lat="43.13727" lon="5.91727">
        <ele>49.16</ele>
        <time>2015-06-27T09:26:28Z</time>
      </trkpt>
      <trkpt lat="43.13746" lon="5.91747">
        <ele>49.65</ele>
        <time>2015-06-27T09:26:40Z</time>
      </trkpt>
      <trkpt lat="43.13743" lon="5.91535">
        <ele>61.66</ele>
        <time>2015-06-27T09:26:56Z</time>
      </trkpt>
      <trkpt lat="43.13762" lon="5.91479">
        <ele>58.3</ele>
        <time>2015-06-27T09:27:08Z</time>
      </trkpt>
      <trkpt lat="43.13779" lon="5.91444">
        <ele>52.53</ele>
        <time>2015-06-27T09:27:19Z</time>
      </trkpt>
      <trkpt lat="43.13787" lon="5.91444">
        <ele>46.76</ele>
        <time>2015-06-27T09:27:24Z</time>
      </trkpt>
      <trkpt lat="43.13788" lon="5.91479">
        <ele>50.13</ele>
        <time>2015-06-27T09:27:38Z</time>
      </trkpt>
      <trkpt lat="43.13788" lon="5.91521">
        <ele>55.41</ele>
        <time>2015-06-27T09:27:53Z</time>
      </trkpt>
      <trkpt lat="43.13781" lon="5.91591">
        <ele>59.74</ele>
        <time>2015-06-27T09:28:09Z</time>
      </trkpt>
      <trkpt lat="43.13776" lon="5.91674">
        <ele>64.55</ele>
        <time>2015-06-27T09:28:26Z</time>
      </trkpt>
      <trkpt lat="43.13802" lon="5.91718">
        <ele>66.95</ele>
        <time>2015-06-27T09:28:39Z</time>
      </trkpt>
      <trkpt lat="43.13841" lon="5.91716">
        <ele>72.72</ele>
        <time>2015-06-27T09:28:51Z</time>
      </trkpt>
      <trkpt lat="43.13844" lon="5.91715">
        <ele>72.72</ele>
        <time>2015-06-27T09:28:52Z</time>
      </trkpt>
      <trkpt lat="43.13848" lon="5.91706">
        <ele>75.12</ele>
        <time>2015-06-27T09:28:56Z</time>
      </trkpt>
      <trkpt lat="43.13836" lon="5.91644">
        <ele>85.69</ele>
        <time>2015-06-27T09:29:10Z</time>
      </trkpt>
      <trkpt lat="43.13834" lon="5.91628">
        <ele>87.62</ele>
        <time>2015-06-27T09:29:14Z</time>
      </trkpt>
      <trkpt lat="43.13839" lon="5.91573">
        <ele>91.46</ele>
        <time>2015-06-27T09:29:24Z</time>
      </trkpt>
      <trkpt lat="43.1385" lon="5.91555">
        <ele>90.5</ele>
        <time>2015-06-27T09:29:28Z</time>
      </trkpt>
      <trkpt lat="43.1386" lon="5.91547">
        <ele>92.42</ele>
        <time>2015-06-27T09:29:31Z</time>
      </trkpt>
      <trkpt lat="43.1387" lon="5.91513">
        <ele>95.31</ele>
        <time>2015-06-27T09:29:39Z</time>
      </trkpt>
      <trkpt lat="43.13859" lon="5.91488">
        <ele>102.52</ele>
        <time>2015-06-27T09:29:49Z</time>
      </trkpt>
      <trkpt lat="43.13864" lon="5.91482">
        <ele>91.46</ele>
        <time>2015-06-27T09:30:11Z</time>
      </trkpt>
      <trkpt lat="43.1387" lon="5.91473">
        <ele>87.62</ele>
        <time>2015-06-27T09:30:32Z</time>
      </trkpt>
      <trkpt lat="43.13885" lon="5.91452">
        <ele>82.33</ele>
        <time>2015-06-27T09:30:52Z</time>
      </trkpt>
      <trkpt lat="43.13888" lon="5.91461">
        <ele>76.56</ele>
        <time>2015-06-27T09:31:05Z</time>
      </trkpt>
      <trkpt lat="43.13887" lon="5.91459">
        <ele>73.2</ele>
        <time>2015-06-27T09:31:29Z</time>
      </trkpt>
      <trkpt lat="43.13889" lon="5.91461">
        <ele>70.31</ele>
        <time>2015-06-27T09:31:52Z</time>
      </trkpt>
      <trkpt lat="43.13878" lon="5.91475">
        <ele>70.79</ele>
        <time>2015-06-27T09:32:10Z</time>
      </trkpt>
      <trkpt lat="43.13877" lon="5.91467">
        <ele>71.27</ele>
        <time>2015-06-27T09:32:38Z</time>
      </trkpt>
      <trkpt lat="43.13876" lon="5.91468">
        <ele>71.27</ele>
        <time>2015-06-27T09:32:44Z</time>
      </trkpt>
      <trkpt lat="43.13876" lon="5.91471">
        <ele>71.27</ele>
        <time>2015-06-27T09:33:01Z</time>
      </trkpt>
      <trkpt lat="43.13876" lon="5.91473">
        <ele>69.35</ele>
        <time>2015-06-27T09:33:23Z</time>
      </trkpt>
    </trkseg>
  </trk>
  <trk>
    <name><![CDATA[Tracé actuel: 28 JUIN 2015 07:35]]></name>
    <trkseg>
      <trkpt lat="43.13883" lon="5.91467">
        <ele>66.47</ele>
        <time>2015-06-28T05:35:22Z</time>
      </trkpt>
      <trkpt lat="43.13884" lon="5.91468">
        <ele>66.47</ele>
        <time>2015-06-28T05:35:24Z</time>
      </trkpt>
      <trkpt lat="43.13882" lon="5.91462">
        <ele>66.47</ele>
        <time>2015-06-28T05:35:41Z</time>
      </trkpt>
      <trkpt lat="43.13871" lon="5.91444">
        <ele>66.47</ele>
        <time>2015-06-28T05:36:03Z</time>
      </trkpt>
      <trkpt lat="43.13866" lon="5.91442">
        <ele>66.47</ele>
        <time>2015-06-28T05:36:23Z</time>
      </trkpt>
      <trkpt lat="43.13874" lon="5.91443">
        <ele>66.47</ele>
        <time>2015-06-28T05:36:39Z</time>
      </trkpt>
      <trkpt lat="43.13881" lon="5.91459">
        <ele>66.47</ele>
        <time>2015-06-28T05:37:00Z</time>
      </trkpt>
      <trkpt lat="43.1388" lon="5.9147">
        <ele>66.47</ele>
        <time>2015-06-28T05:37:24Z</time>
      </trkpt>
      <trkpt lat="43.13874" lon="5.91472">
        <ele>66.47</ele>
        <time>2015-06-28T05:37:50Z</time>
      </trkpt>
      <trkpt lat="43.13873" lon="5.91473">
        <ele>66.47</ele>
        <time>2015-06-28T05:38:04Z</time>
      </trkpt>
      <trkpt lat="43.13839" lon="5.91503">
        <ele>66.47</ele>
        <time>2015-06-28T05:38:19Z</time>
      </trkpt>
      <trkpt lat="43.13831" lon="5.91508">
        <ele>66.47</ele>
        <time>2015-06-28T05:38:29Z</time>
      </trkpt>
      <trkpt lat="43.13833" lon="5.91579">
        <ele>66.47</ele>
        <time>2015-06-28T05:38:44Z</time>
      </trkpt>
      <trkpt lat="43.13845" lon="5.91588">
        <ele>66.47</ele>
        <time>2015-06-28T05:38:49Z</time>
      </trkpt>
      <trkpt lat="43.13894" lon="5.91577">
        <ele>66.47</ele>
        <time>2015-06-28T05:39:03Z</time>
      </trkpt>
      <trkpt lat="43.13907" lon="5.9157">
        <ele>66.47</ele>
        <time>2015-06-28T05:39:13Z</time>
      </trkpt>
      <trkpt lat="43.13967" lon="5.91552">
        <ele>66.95</ele>
        <time>2015-06-28T05:39:26Z</time>
      </trkpt>
      <trkpt lat="43.14048" lon="5.91555">
        <ele>66.95</ele>
        <time>2015-06-28T05:39:45Z</time>
      </trkpt>
      <trkpt lat="43.1404" lon="5.91527">
        <ele>66.95</ele>
        <time>2015-06-28T05:39:54Z</time>
      </trkpt>
      <trkpt lat="43.14014" lon="5.91465">
        <ele>67.43</ele>
        <time>2015-06-28T05:40:04Z</time>
      </trkpt>
      <trkpt lat="43.13938" lon="5.91364">
        <ele>66.95</ele>
        <time>2015-06-28T05:40:20Z</time>
      </trkpt>
      <trkpt lat="43.13898" lon="5.91253">
        <ele>67.43</ele>
        <time>2015-06-28T05:40:33Z</time>
      </trkpt>
      <trkpt lat="43.13881" lon="5.91212">
        <ele>67.43</ele>
        <time>2015-06-28T05:40:39Z</time>
      </trkpt>
      <trkpt lat="43.139" lon="5.91181">
        <ele>67.43</ele>
        <time>2015-06-28T05:40:45Z</time>
      </trkpt>
      <trkpt lat="43.14075" lon="5.91075">
        <ele>67.43</ele>
        <time>2015-06-28T05:41:05Z</time>
      </trkpt>
      <trkpt lat="43.14179" lon="5.91035">
        <ele>67.43</ele>
        <time>2015-06-28T05:41:25Z</time>
      </trkpt>
      <trkpt lat="43.14198" lon="5.91021">
        <ele>67.43</ele>
        <time>2015-06-28T05:41:33Z</time>
      </trkpt>
      <trkpt lat="43.14165" lon="5.91036">
        <ele>67.43</ele>
        <time>2015-06-28T05:41:47Z</time>
      </trkpt>
      <trkpt lat="43.14131" lon="5.91055">
        <ele>66.95</ele>
        <time>2015-06-28T05:42:03Z</time>
      </trkpt>
      <trkpt lat="43.14125" lon="5.91061">
        <ele>66.95</ele>
        <time>2015-06-28T05:42:22Z</time>
      </trkpt>
      <trkpt lat="43.14081" lon="5.91021">
        <ele>66.47</ele>
        <time>2015-06-28T05:42:38Z</time>
      </trkpt>
      <trkpt lat="43.13977" lon="5.90937">
        <ele>65.99</ele>
        <time>2015-06-28T05:42:59Z</time>
      </trkpt>
      <trkpt lat="43.13944" lon="5.90914">
        <ele>65.99</ele>
        <time>2015-06-28T05:43:10Z</time>
      </trkpt>
      <trkpt lat="43.13881" lon="5.9088">
        <ele>65.51</ele>
        <time>2015-06-28T05:43:24Z</time>
      </trkpt>
      <trkpt lat="43.13691" lon="5.90707">
        <ele>106.36</ele>
        <time>2015-06-28T05:43:42Z</time>
      </trkpt>
      <trkpt lat="43.13604" lon="5.90657">
        <ele>105.4</ele>
        <time>2015-06-28T05:43:59Z</time>
      </trkpt>
      <trkpt lat="43.13501" lon="5.90592">
        <ele>98.19</ele>
        <time>2015-06-28T05:44:18Z</time>
      </trkpt>
      <trkpt lat="43.13365" lon="5.90506">
        <ele>86.66</ele>
        <time>2015-06-28T05:44:41Z</time>
      </trkpt>
      <trkpt lat="43.13269" lon="5.90443">
        <ele>85.21</ele>
        <time>2015-06-28T05:44:59Z</time>
      </trkpt>
      <trkpt lat="43.13129" lon="5.9037">
        <ele>74.64</ele>
        <time>2015-06-28T05:45:19Z</time>
      </trkpt>
      <trkpt lat="43.1301" lon="5.9029">
        <ele>55.89</ele>
        <time>2015-06-28T05:45:39Z</time>
      </trkpt>
      <trkpt lat="43.12927" lon="5.90207">
        <ele>46.76</ele>
        <time>2015-06-28T05:45:58Z</time>
      </trkpt>
      <trkpt lat="43.12919" lon="5.90195">
        <ele>44.36</ele>
        <time>2015-06-28T05:46:02Z</time>
      </trkpt>
      <trkpt lat="43.12915" lon="5.90196">
        <ele>42.44</ele>
        <time>2015-06-28T05:46:06Z</time>
      </trkpt>
      <trkpt lat="43.12909" lon="5.90203">
        <ele>41.47</ele>
        <time>2015-06-28T05:46:09Z</time>
      </trkpt>
      <trkpt lat="43.12893" lon="5.90245">
        <ele>40.51</ele>
        <time>2015-06-28T05:46:20Z</time>
      </trkpt>
      <trkpt lat="43.12896" lon="5.90241">
        <ele>39.07</ele>
        <time>2015-06-28T05:46:38Z</time>
      </trkpt>
      <trkpt lat="43.1289" lon="5.90258">
        <ele>39.07</ele>
        <time>2015-06-28T05:46:45Z</time>
      </trkpt>
      <trkpt lat="43.12856" lon="5.90383">
        <ele>39.07</ele>
        <time>2015-06-28T05:47:03Z</time>
      </trkpt>
      <trkpt lat="43.12827" lon="5.90553">
        <ele>39.07</ele>
        <time>2015-06-28T05:47:21Z</time>
      </trkpt>
      <trkpt lat="43.12832" lon="5.9065">
        <ele>36.67</ele>
        <time>2015-06-28T05:47:34Z</time>
      </trkpt>
      <trkpt lat="43.12828" lon="5.90668">
        <ele>35.23</ele>
        <time>2015-06-28T05:47:43Z</time>
      </trkpt>
      <trkpt lat="43.12816" lon="5.9067">
        <ele>34.26</ele>
        <time>2015-06-28T05:47:47Z</time>
      </trkpt>
      <trkpt lat="43.12729" lon="5.90624">
        <ele>32.34</ele>
        <time>2015-06-28T05:48:06Z</time>
      </trkpt>
      <trkpt lat="43.12656" lon="5.90614">
        <ele>31.86</ele>
        <time>2015-06-28T05:48:21Z</time>
      </trkpt>
      <trkpt lat="43.12556" lon="5.90572">
        <ele>31.38</ele>
        <time>2015-06-28T05:48:38Z</time>
      </trkpt>
      <trkpt lat="43.12487" lon="5.90414">
        <ele>9.27</ele>
        <time>2015-06-28T05:48:57Z</time>
      </trkpt>
      <trkpt lat="43.12421" lon="5.90383">
        <ele>8.31</ele>
        <time>2015-06-28T05:49:16Z</time>
      </trkpt>
      <trkpt lat="43.12362" lon="5.90339">
        <ele>9.75</ele>
        <time>2015-06-28T05:49:30Z</time>
      </trkpt>
      <trkpt lat="43.12352" lon="5.90377">
        <ele>8.79</ele>
        <time>2015-06-28T05:49:38Z</time>
      </trkpt>
      <trkpt lat="43.12361" lon="5.9039">
        <ele>8.79</ele>
        <time>2015-06-28T05:49:41Z</time>
      </trkpt>
      <trkpt lat="43.12423" lon="5.90463">
        <ele>8.79</ele>
        <time>2015-06-28T05:49:58Z</time>
      </trkpt>
      <trkpt lat="43.1247" lon="5.90565">
        <ele>9.27</ele>
        <time>2015-06-28T05:50:12Z</time>
      </trkpt>
      <trkpt lat="43.12489" lon="5.90709">
        <ele>8.79</ele>
        <time>2015-06-28T05:50:32Z</time>
      </trkpt>
      <trkpt lat="43.12518" lon="5.90807">
        <ele>9.27</ele>
        <time>2015-06-28T05:50:49Z</time>
      </trkpt>
      <trkpt lat="43.12568" lon="5.90888">
        <ele>11.19</ele>
        <time>2015-06-28T05:51:08Z</time>
      </trkpt>
      <trkpt lat="43.12616" lon="5.9099">
        <ele>13.12</ele>
        <time>2015-06-28T05:51:24Z</time>
      </trkpt>
      <trkpt lat="43.12647" lon="5.9112">
        <ele>12.15</ele>
        <time>2015-06-28T05:51:40Z</time>
      </trkpt>
      <trkpt lat="43.12665" lon="5.91281">
        <ele>12.63</ele>
        <time>2015-06-28T05:52:01Z</time>
      </trkpt>
      <trkpt lat="43.12666" lon="5.91347">
        <ele>11.67</ele>
        <time>2015-06-28T05:52:10Z</time>
      </trkpt>
      <trkpt lat="43.1267" lon="5.91461">
        <ele>14.08</ele>
        <time>2015-06-28T05:52:27Z</time>
      </trkpt>
      <trkpt lat="43.12659" lon="5.91562">
        <ele>15.52</ele>
        <time>2015-06-28T05:52:41Z</time>
      </trkpt>
      <trkpt lat="43.12653" lon="5.9167">
        <ele>20.32</ele>
        <time>2015-06-28T05:52:58Z</time>
      </trkpt>
      <trkpt lat="43.12662" lon="5.91745">
        <ele>20.81</ele>
        <time>2015-06-28T05:53:11Z</time>
      </trkpt>
      <trkpt lat="43.12679" lon="5.91788">
        <ele>21.77</ele>
        <time>2015-06-28T05:53:21Z</time>
      </trkpt>
      <trkpt lat="43.12711" lon="5.91895">
        <ele>25.61</ele>
        <time>2015-06-28T05:53:41Z</time>
      </trkpt>
      <trkpt lat="43.12705" lon="5.92013">
        <ele>27.05</ele>
        <time>2015-06-28T05:53:58Z</time>
      </trkpt>
      <trkpt lat="43.1267" lon="5.92137">
        <ele>28.5</ele>
        <time>2015-06-28T05:54:16Z</time>
      </trkpt>
      <trkpt lat="43.12627" lon="5.9226">
        <ele>29.94</ele>
        <time>2015-06-28T05:54:34Z</time>
      </trkpt>
      <trkpt lat="43.12572" lon="5.92394">
        <ele>31.38</ele>
        <time>2015-06-28T05:54:54Z</time>
      </trkpt>
      <trkpt lat="43.12506" lon="5.92557">
        <ele>30.9</ele>
        <time>2015-06-28T05:55:18Z</time>
      </trkpt>
      <trkpt lat="43.12451" lon="5.92714">
        <ele>31.86</ele>
        <time>2015-06-28T05:55:40Z</time>
      </trkpt>
      <trkpt lat="43.12352" lon="5.92903">
        <ele>30.9</ele>
        <time>2015-06-28T05:56:07Z</time>
      </trkpt>
      <trkpt lat="43.12347" lon="5.92916">
        <ele>30.9</ele>
        <time>2015-06-28T05:56:09Z</time>
      </trkpt>
      <trkpt lat="43.12327" lon="5.92939">
        <ele>32.34</ele>
        <time>2015-06-28T05:56:15Z</time>
      </trkpt>
      <trkpt lat="43.12314" lon="5.92934">
        <ele>32.82</ele>
        <time>2015-06-28T05:56:19Z</time>
      </trkpt>
      <trkpt lat="43.12267" lon="5.92908">
        <ele>32.82</ele>
        <time>2015-06-28T05:56:32Z</time>
      </trkpt>
      <trkpt lat="43.1219" lon="5.92999">
        <ele>30.9</ele>
        <time>2015-06-28T05:56:46Z</time>
      </trkpt>
      <trkpt lat="43.12117" lon="5.93125">
        <ele>26.57</ele>
        <time>2015-06-28T05:57:06Z</time>
      </trkpt>
      <trkpt lat="43.12048" lon="5.93231">
        <ele>23.21</ele>
        <time>2015-06-28T05:57:25Z</time>
      </trkpt>
      <trkpt lat="43.12009" lon="5.93335">
        <ele>23.69</ele>
        <time>2015-06-28T05:57:42Z</time>
      </trkpt>
      <trkpt lat="43.11958" lon="5.93428">
        <ele>23.21</ele>
        <time>2015-06-28T05:57:59Z</time>
      </trkpt>
      <trkpt lat="43.11919" lon="5.93525">
        <ele>20.81</ele>
        <time>2015-06-28T05:58:19Z</time>
      </trkpt>
      <trkpt lat="43.11865" lon="5.93584">
        <ele>20.81</ele>
        <time>2015-06-28T05:58:35Z</time>
      </trkpt>
      <trkpt lat="43.1183" lon="5.93607">
        <ele>22.25</ele>
        <time>2015-06-28T05:58:48Z</time>
      </trkpt>
      <trkpt lat="43.11783" lon="5.93668">
        <ele>23.21</ele>
        <time>2015-06-28T05:59:00Z</time>
      </trkpt>
      <trkpt lat="43.11764" lon="5.93687">
        <ele>23.21</ele>
        <time>2015-06-28T05:59:05Z</time>
      </trkpt>
      <trkpt lat="43.11746" lon="5.93729">
        <ele>22.73</ele>
        <time>2015-06-28T05:59:15Z</time>
      </trkpt>
      <trkpt lat="43.11743" lon="5.93733">
        <ele>22.73</ele>
        <time>2015-06-28T05:59:16Z</time>
      </trkpt>
      <trkpt lat="43.11764" lon="5.93791">
        <ele>22.73</ele>
        <time>2015-06-28T05:59:31Z</time>
      </trkpt>
      <trkpt lat="43.11805" lon="5.93848">
        <ele>23.21</ele>
        <time>2015-06-28T05:59:46Z</time>
      </trkpt>
      <trkpt lat="43.11814" lon="5.93924">
        <ele>24.17</ele>
        <time>2015-06-28T06:00:00Z</time>
      </trkpt>
      <trkpt lat="43.11826" lon="5.94024">
        <ele>25.61</ele>
        <time>2015-06-28T06:00:16Z</time>
      </trkpt>
      <trkpt lat="43.11876" lon="5.94135">
        <ele>24.65</ele>
        <time>2015-06-28T06:00:30Z</time>
      </trkpt>
      <trkpt lat="43.11879" lon="5.94143">
        <ele>24.65</ele>
        <time>2015-06-28T06:00:31Z</time>
      </trkpt>
      <trkpt lat="43.11885" lon="5.94185">
        <ele>25.13</ele>
        <time>2015-06-28T06:00:37Z</time>
      </trkpt>
      <trkpt lat="43.1188" lon="5.94284">
        <ele>24.65</ele>
        <time>2015-06-28T06:00:51Z</time>
      </trkpt>
      <trkpt lat="43.11872" lon="5.94367">
        <ele>24.65</ele>
        <time>2015-06-28T06:01:06Z</time>
      </trkpt>
      <trkpt lat="43.11881" lon="5.94498">
        <ele>24.65</ele>
        <time>2015-06-28T06:01:24Z</time>
      </trkpt>
      <trkpt lat="43.11876" lon="5.94574">
        <ele>25.13</ele>
        <time>2015-06-28T06:01:37Z</time>
      </trkpt>
      <trkpt lat="43.11919" lon="5.9465">
        <ele>26.09</ele>
        <time>2015-06-28T06:01:54Z</time>
      </trkpt>
      <trkpt lat="43.11958" lon="5.94705">
        <ele>27.05</ele>
        <time>2015-06-28T06:02:10Z</time>
      </trkpt>
      <trkpt lat="43.11977" lon="5.94806">
        <ele>26.57</ele>
        <time>2015-06-28T06:02:25Z</time>
      </trkpt>
      <trkpt lat="43.11989" lon="5.94839">
        <ele>26.57</ele>
        <time>2015-06-28T06:02:30Z</time>
      </trkpt>
      <trkpt lat="43.11994" lon="5.94871">
        <ele>26.57</ele>
        <time>2015-06-28T06:02:34Z</time>
      </trkpt>
      <trkpt lat="43.12005" lon="5.95028">
        <ele>26.09</ele>
        <time>2015-06-28T06:02:55Z</time>
      </trkpt>
      <trkpt lat="43.12053" lon="5.9516">
        <ele>25.13</ele>
        <time>2015-06-28T06:03:14Z</time>
      </trkpt>
      <trkpt lat="43.12087" lon="5.95281">
        <ele>22.25</ele>
        <time>2015-06-28T06:03:31Z</time>
      </trkpt>
      <trkpt lat="43.1214" lon="5.95413">
        <ele>21.29</ele>
        <time>2015-06-28T06:03:53Z</time>
      </trkpt>
      <trkpt lat="43.12187" lon="5.95545">
        <ele>20.81</ele>
        <time>2015-06-28T06:04:15Z</time>
      </trkpt>
      <trkpt lat="43.12218" lon="5.95636">
        <ele>23.21</ele>
        <time>2015-06-28T06:04:31Z</time>
      </trkpt>
      <trkpt lat="43.12248" lon="5.95758">
        <ele>19.84</ele>
        <time>2015-06-28T06:04:52Z</time>
      </trkpt>
      <trkpt lat="43.12304" lon="5.9591">
        <ele>22.25</ele>
        <time>2015-06-28T06:05:17Z</time>
      </trkpt>
      <trkpt lat="43.12337" lon="5.96031">
        <ele>24.65</ele>
        <time>2015-06-28T06:05:37Z</time>
      </trkpt>
      <trkpt lat="43.12339" lon="5.96146">
        <ele>26.57</ele>
        <time>2015-06-28T06:05:56Z</time>
      </trkpt>
      <trkpt lat="43.12331" lon="5.96245">
        <ele>26.57</ele>
        <time>2015-06-28T06:06:16Z</time>
      </trkpt>
      <trkpt lat="43.12304" lon="5.96346">
        <ele>26.09</ele>
        <time>2015-06-28T06:06:34Z</time>
      </trkpt>
      <trkpt lat="43.12273" lon="5.96499">
        <ele>26.57</ele>
        <time>2015-06-28T06:06:54Z</time>
      </trkpt>
      <trkpt lat="43.12273" lon="5.96505">
        <ele>26.57</ele>
        <time>2015-06-28T06:06:55Z</time>
      </trkpt>
      <trkpt lat="43.12285" lon="5.96598">
        <ele>26.57</ele>
        <time>2015-06-28T06:07:12Z</time>
      </trkpt>
      <trkpt lat="43.12275" lon="5.96706">
        <ele>26.09</ele>
        <time>2015-06-28T06:07:26Z</time>
      </trkpt>
      <trkpt lat="43.12238" lon="5.96743">
        <ele>26.09</ele>
        <time>2015-06-28T06:07:39Z</time>
      </trkpt>
      <trkpt lat="43.12192" lon="5.96783">
        <ele>26.57</ele>
        <time>2015-06-28T06:07:55Z</time>
      </trkpt>
      <trkpt lat="43.12125" lon="5.96857">
        <ele>26.57</ele>
        <time>2015-06-28T06:08:15Z</time>
      </trkpt>
      <trkpt lat="43.11941" lon="5.96983">
        <ele>22.73</ele>
        <time>2015-06-28T06:08:40Z</time>
      </trkpt>
      <trkpt lat="43.1188" lon="5.97069">
        <ele>23.21</ele>
        <time>2015-06-28T06:09:01Z</time>
      </trkpt>
      <trkpt lat="43.11773" lon="5.97177">
        <ele>27.05</ele>
        <time>2015-06-28T06:09:20Z</time>
      </trkpt>
      <trkpt lat="43.11738" lon="5.97266">
        <ele>27.05</ele>
        <time>2015-06-28T06:09:36Z</time>
      </trkpt>
      <trkpt lat="43.11715" lon="5.97375">
        <ele>27.05</ele>
        <time>2015-06-28T06:09:52Z</time>
      </trkpt>
      <trkpt lat="43.11697" lon="5.97503">
        <ele>26.09</ele>
        <time>2015-06-28T06:10:08Z</time>
      </trkpt>
      <trkpt lat="43.11638" lon="5.97647">
        <ele>26.09</ele>
        <time>2015-06-28T06:10:28Z</time>
      </trkpt>
      <trkpt lat="43.11613" lon="5.97795">
        <ele>27.05</ele>
        <time>2015-06-28T06:10:48Z</time>
      </trkpt>
      <trkpt lat="43.11581" lon="5.97933">
        <ele>22.25</ele>
        <time>2015-06-28T06:11:07Z</time>
      </trkpt>
      <trkpt lat="43.11556" lon="5.9807">
        <ele>21.29</ele>
        <time>2015-06-28T06:11:25Z</time>
      </trkpt>
      <trkpt lat="43.1155" lon="5.98138">
        <ele>19.36</ele>
        <time>2015-06-28T06:11:38Z</time>
      </trkpt>
      <trkpt lat="43.11546" lon="5.98253">
        <ele>20.81</ele>
        <time>2015-06-28T06:11:56Z</time>
      </trkpt>
      <trkpt lat="43.11507" lon="5.98382">
        <ele>21.29</ele>
        <time>2015-06-28T06:12:18Z</time>
      </trkpt>
      <trkpt lat="43.11443" lon="5.98475">
        <ele>25.13</ele>
        <time>2015-06-28T06:12:38Z</time>
      </trkpt>
      <trkpt lat="43.11405" lon="5.98552">
        <ele>25.13</ele>
        <time>2015-06-28T06:12:54Z</time>
      </trkpt>
      <trkpt lat="43.11342" lon="5.98646">
        <ele>25.61</ele>
        <time>2015-06-28T06:13:14Z</time>
      </trkpt>
      <trkpt lat="43.11275" lon="5.98776">
        <ele>26.09</ele>
        <time>2015-06-28T06:13:32Z</time>
      </trkpt>
      <trkpt lat="43.11224" lon="5.98937">
        <ele>25.13</ele>
        <time>2015-06-28T06:13:51Z</time>
      </trkpt>
      <trkpt lat="43.11186" lon="5.99048">
        <ele>24.65</ele>
        <time>2015-06-28T06:14:06Z</time>
      </trkpt>
      <trkpt lat="43.11177" lon="5.99181">
        <ele>24.65</ele>
        <time>2015-06-28T06:14:24Z</time>
      </trkpt>
      <trkpt lat="43.11174" lon="5.99353">
        <ele>23.69</ele>
        <time>2015-06-28T06:14:44Z</time>
      </trkpt>
      <trkpt lat="43.11143" lon="5.99472">
        <ele>24.65</ele>
        <time>2015-06-28T06:15:02Z</time>
      </trkpt>
      <trkpt lat="43.11089" lon="5.99611">
        <ele>28.98</ele>
        <time>2015-06-28T06:15:26Z</time>
      </trkpt>
      <trkpt lat="43.11041" lon="5.99738">
        <ele>30.9</ele>
        <time>2015-06-28T06:15:49Z</time>
      </trkpt>
      <trkpt lat="43.11007" lon="5.99869">
        <ele>31.86</ele>
        <time>2015-06-28T06:16:07Z</time>
      </trkpt>
      <trkpt lat="43.10991" lon="5.99926">
        <ele>31.86</ele>
        <time>2015-06-28T06:16:19Z</time>
      </trkpt>
      <trkpt lat="43.1099" lon="5.99926">
        <ele>32.34</ele>
        <time>2015-06-28T06:16:21Z</time>
      </trkpt>
      <trkpt lat="43.11009" lon="5.9993">
        <ele>33.78</ele>
        <time>2015-06-28T06:16:32Z</time>
      </trkpt>
      <trkpt lat="43.11043" lon="5.99985">
        <ele>35.23</ele>
        <time>2015-06-28T06:16:45Z</time>
      </trkpt>
      <trkpt lat="43.11108" lon="6.00086">
        <ele>38.59</ele>
        <time>2015-06-28T06:16:58Z</time>
      </trkpt>
      <trkpt lat="43.11207" lon="6.00104">
        <ele>44.36</ele>
        <time>2015-06-28T06:17:17Z</time>
      </trkpt>
      <trkpt lat="43.11358" lon="6.00136">
        <ele>43.4</ele>
        <time>2015-06-28T06:17:44Z</time>
      </trkpt>
      <trkpt lat="43.1143" lon="6.00154">
        <ele>43.88</ele>
        <time>2015-06-28T06:17:58Z</time>
      </trkpt>
      <trkpt lat="43.11456" lon="6.00164">
        <ele>44.36</ele>
        <time>2015-06-28T06:18:03Z</time>
      </trkpt>
      <trkpt lat="43.11473" lon="6.00177">
        <ele>45.8</ele>
        <time>2015-06-28T06:18:07Z</time>
      </trkpt>
      <trkpt lat="43.11544" lon="6.00278">
        <ele>54.93</ele>
        <time>2015-06-28T06:18:27Z</time>
      </trkpt>
      <trkpt lat="43.11624" lon="6.00341">
        <ele>55.41</ele>
        <time>2015-06-28T06:18:44Z</time>
      </trkpt>
      <trkpt lat="43.11647" lon="6.00358">
        <ele>55.41</ele>
        <time>2015-06-28T06:18:49Z</time>
      </trkpt>
      <trkpt lat="43.11751" lon="6.00432">
        <ele>52.05</ele>
        <time>2015-06-28T06:19:10Z</time>
      </trkpt>
      <trkpt lat="43.11836" lon="6.00486">
        <ele>51.09</ele>
        <time>2015-06-28T06:19:28Z</time>
      </trkpt>
      <trkpt lat="43.11914" lon="6.00542">
        <ele>50.61</ele>
        <time>2015-06-28T06:19:48Z</time>
      </trkpt>
      <trkpt lat="43.11953" lon="6.0059">
        <ele>51.57</ele>
        <time>2015-06-28T06:20:03Z</time>
      </trkpt>
      <trkpt lat="43.11979" lon="6.0074">
        <ele>54.45</ele>
        <time>2015-06-28T06:20:21Z</time>
      </trkpt>
      <trkpt lat="43.12007" lon="6.00892">
        <ele>53.97</ele>
        <time>2015-06-28T06:20:41Z</time>
      </trkpt>
      <trkpt lat="43.12034" lon="6.01058">
        <ele>44.84</ele>
        <time>2015-06-28T06:21:00Z</time>
      </trkpt>
      <trkpt lat="43.1203" lon="6.01064">
        <ele>42.92</ele>
        <time>2015-06-28T06:21:04Z</time>
      </trkpt>
      <trkpt lat="43.12049" lon="6.01083">
        <ele>42.92</ele>
        <time>2015-06-28T06:21:14Z</time>
      </trkpt>
      <trkpt lat="43.12071" lon="6.01144">
        <ele>41.47</ele>
        <time>2015-06-28T06:21:26Z</time>
      </trkpt>
      <trkpt lat="43.12073" lon="6.01147">
        <ele>41.47</ele>
        <time>2015-06-28T06:21:27Z</time>
      </trkpt>
      <trkpt lat="43.12087" lon="6.01157">
        <ele>41.47</ele>
        <time>2015-06-28T06:21:31Z</time>
      </trkpt>
      <trkpt lat="43.12203" lon="6.01204">
        <ele>42.44</ele>
        <time>2015-06-28T06:21:56Z</time>
      </trkpt>
      <trkpt lat="43.12277" lon="6.01242">
        <ele>42.44</ele>
        <time>2015-06-28T06:22:13Z</time>
      </trkpt>
      <trkpt lat="43.12281" lon="6.01245">
        <ele>42.44</ele>
        <time>2015-06-28T06:22:14Z</time>
      </trkpt>
      <trkpt lat="43.12351" lon="6.01383">
        <ele>41.95</ele>
        <time>2015-06-28T06:22:38Z</time>
      </trkpt>
      <trkpt lat="43.12405" lon="6.01511">
        <ele>41.95</ele>
        <time>2015-06-28T06:23:00Z</time>
      </trkpt>
      <trkpt lat="43.12475" lon="6.01639">
        <ele>43.88</ele>
        <time>2015-06-28T06:23:22Z</time>
      </trkpt>
      <trkpt lat="43.1252" lon="6.01708">
        <ele>41.47</ele>
        <time>2015-06-28T06:23:38Z</time>
      </trkpt>
      <trkpt lat="43.12562" lon="6.01767">
        <ele>40.03</ele>
        <time>2015-06-28T06:23:50Z</time>
      </trkpt>
      <trkpt lat="43.12558" lon="6.01807">
        <ele>40.03</ele>
        <time>2015-06-28T06:23:57Z</time>
      </trkpt>
      <trkpt lat="43.12434" lon="6.01934">
        <ele>21.29</ele>
        <time>2015-06-28T06:24:09Z</time>
      </trkpt>
      <trkpt lat="43.12444" lon="6.01982">
        <ele>12.15</ele>
        <time>2015-06-28T06:24:17Z</time>
      </trkpt>
      <trkpt lat="43.12421" lon="6.02134">
        <ele>4.94</ele>
        <time>2015-06-28T06:24:40Z</time>
      </trkpt>
      <trkpt lat="43.12394" lon="6.02272">
        <ele>2.54</ele>
        <time>2015-06-28T06:25:02Z</time>
      </trkpt>
      <trkpt lat="43.12358" lon="6.02423">
        <ele>2.06</ele>
        <time>2015-06-28T06:25:25Z</time>
      </trkpt>
      <trkpt lat="43.12309" lon="6.02562">
        <ele>5.91</ele>
        <time>2015-06-28T06:25:48Z</time>
      </trkpt>
      <trkpt lat="43.12248" lon="6.02726">
        <ele>11.19</ele>
        <time>2015-06-28T06:26:15Z</time>
      </trkpt>
      <trkpt lat="43.12228" lon="6.02858">
        <ele>13.6</ele>
        <time>2015-06-28T06:26:35Z</time>
      </trkpt>
      <trkpt lat="43.12217" lon="6.02942">
        <ele>14.56</ele>
        <time>2015-06-28T06:26:47Z</time>
      </trkpt>
      <trkpt lat="43.12218" lon="6.0303">
        <ele>14.56</ele>
        <time>2015-06-28T06:27:00Z</time>
      </trkpt>
      <trkpt lat="43.12223" lon="6.03053">
        <ele>14.56</ele>
        <time>2015-06-28T06:27:04Z</time>
      </trkpt>
      <trkpt lat="43.12244" lon="6.03098">
        <ele>15.52</ele>
        <time>2015-06-28T06:27:12Z</time>
      </trkpt>
      <trkpt lat="43.12249" lon="6.03206">
        <ele>19.84</ele>
        <time>2015-06-28T06:27:29Z</time>
      </trkpt>
      <trkpt lat="43.12271" lon="6.03342">
        <ele>22.73</ele>
        <time>2015-06-28T06:27:50Z</time>
      </trkpt>
      <trkpt lat="43.1228" lon="6.03442">
        <ele>25.13</ele>
        <time>2015-06-28T06:28:08Z</time>
      </trkpt>
      <trkpt lat="43.12327" lon="6.0356">
        <ele>24.65</ele>
        <time>2015-06-28T06:28:28Z</time>
      </trkpt>
      <trkpt lat="43.12369" lon="6.03697">
        <ele>22.73</ele>
        <time>2015-06-28T06:28:48Z</time>
      </trkpt>
      <trkpt lat="43.12369" lon="6.03734">
        <ele>21.77</ele>
        <time>2015-06-28T06:28:54Z</time>
      </trkpt>
      <trkpt lat="43.12393" lon="6.03823">
        <ele>23.21</ele>
        <time>2015-06-28T06:29:08Z</time>
      </trkpt>
      <trkpt lat="43.12389" lon="6.03946">
        <ele>23.21</ele>
        <time>2015-06-28T06:29:27Z</time>
      </trkpt>
      <trkpt lat="43.12387" lon="6.04103">
        <ele>21.77</ele>
        <time>2015-06-28T06:29:49Z</time>
      </trkpt>
      <trkpt lat="43.12373" lon="6.04252">
        <ele>22.25</ele>
        <time>2015-06-28T06:30:10Z</time>
      </trkpt>
      <trkpt lat="43.12326" lon="6.04387">
        <ele>23.69</ele>
        <time>2015-06-28T06:30:31Z</time>
      </trkpt>
      <trkpt lat="43.12289" lon="6.04532">
        <ele>24.17</ele>
        <time>2015-06-28T06:30:53Z</time>
      </trkpt>
      <trkpt lat="43.12256" lon="6.04662">
        <ele>26.09</ele>
        <time>2015-06-28T06:31:14Z</time>
      </trkpt>
      <trkpt lat="43.12238" lon="6.04773">
        <ele>28.98</ele>
        <time>2015-06-28T06:31:31Z</time>
      </trkpt>
      <trkpt lat="43.12207" lon="6.04914">
        <ele>31.38</ele>
        <time>2015-06-28T06:31:53Z</time>
      </trkpt>
      <trkpt lat="43.12174" lon="6.05078">
        <ele>32.82</ele>
        <time>2015-06-28T06:32:19Z</time>
      </trkpt>
      <trkpt lat="43.12138" lon="6.05232">
        <ele>33.3</ele>
        <time>2015-06-28T06:32:43Z</time>
      </trkpt>
      <trkpt lat="43.12101" lon="6.05384">
        <ele>33.78</ele>
        <time>2015-06-28T06:33:07Z</time>
      </trkpt>
      <trkpt lat="43.12077" lon="6.05465">
        <ele>34.26</ele>
        <time>2015-06-28T06:33:20Z</time>
      </trkpt>
      <trkpt lat="43.12085" lon="6.05603">
        <ele>33.3</ele>
        <time>2015-06-28T06:33:41Z</time>
      </trkpt>
      <trkpt lat="43.121" lon="6.05702">
        <ele>33.3</ele>
        <time>2015-06-28T06:33:57Z</time>
      </trkpt>
      <trkpt lat="43.12135" lon="6.05825">
        <ele>34.74</ele>
        <time>2015-06-28T06:34:18Z</time>
      </trkpt>
      <trkpt lat="43.12169" lon="6.05963">
        <ele>35.23</ele>
        <time>2015-06-28T06:34:38Z</time>
      </trkpt>
      <trkpt lat="43.12185" lon="6.06125">
        <ele>36.19</ele>
        <time>2015-06-28T06:35:01Z</time>
      </trkpt>
      <trkpt lat="43.12195" lon="6.06215">
        <ele>37.63</ele>
        <time>2015-06-28T06:35:16Z</time>
      </trkpt>
      <trkpt lat="43.12197" lon="6.06294">
        <ele>37.63</ele>
        <time>2015-06-28T06:35:28Z</time>
      </trkpt>
      <trkpt lat="43.1223" lon="6.06421">
        <ele>38.59</ele>
        <time>2015-06-28T06:35:48Z</time>
      </trkpt>
      <trkpt lat="43.12249" lon="6.06562">
        <ele>40.03</ele>
        <time>2015-06-28T06:36:10Z</time>
      </trkpt>
      <trkpt lat="43.12241" lon="6.06706">
        <ele>40.99</ele>
        <time>2015-06-28T06:36:32Z</time>
      </trkpt>
      <trkpt lat="43.12227" lon="6.06861">
        <ele>42.92</ele>
        <time>2015-06-28T06:36:54Z</time>
      </trkpt>
      <trkpt lat="43.12218" lon="6.06973">
        <ele>44.84</ele>
        <time>2015-06-28T06:37:12Z</time>
      </trkpt>
      <trkpt lat="43.12216" lon="6.07031">
        <ele>46.76</ele>
        <time>2015-06-28T06:37:25Z</time>
      </trkpt>
      <trkpt lat="43.12202" lon="6.07181">
        <ele>49.65</ele>
        <time>2015-06-28T06:37:44Z</time>
      </trkpt>
      <trkpt lat="43.12188" lon="6.07329">
        <ele>52.05</ele>
        <time>2015-06-28T06:38:03Z</time>
      </trkpt>
      <trkpt lat="43.12176" lon="6.07355">
        <ele>53.49</ele>
        <time>2015-06-28T06:38:09Z</time>
      </trkpt>
      <trkpt lat="43.12162" lon="6.07357">
        <ele>53.97</ele>
        <time>2015-06-28T06:38:13Z</time>
      </trkpt>
      <trkpt lat="43.12058" lon="6.07322">
        <ele>56.37</ele>
        <time>2015-06-28T06:38:35Z</time>
      </trkpt>
      <trkpt lat="43.11975" lon="6.0731">
        <ele>57.82</ele>
        <time>2015-06-28T06:38:54Z</time>
      </trkpt>
      <trkpt lat="43.11933" lon="6.07299">
        <ele>58.3</ele>
        <time>2015-06-28T06:39:05Z</time>
      </trkpt>
      <trkpt lat="43.11913" lon="6.07313">
        <ele>58.78</ele>
        <time>2015-06-28T06:39:12Z</time>
      </trkpt>
      <trkpt lat="43.11896" lon="6.07449">
        <ele>58.78</ele>
        <time>2015-06-28T06:39:29Z</time>
      </trkpt>
      <trkpt lat="43.11866" lon="6.0762">
        <ele>57.34</ele>
        <time>2015-06-28T06:39:49Z</time>
      </trkpt>
      <trkpt lat="43.1184" lon="6.07749">
        <ele>55.89</ele>
        <time>2015-06-28T06:40:07Z</time>
      </trkpt>
      <trkpt lat="43.11794" lon="6.07944">
        <ele>54.45</ele>
        <time>2015-06-28T06:40:35Z</time>
      </trkpt>
      <trkpt lat="43.11759" lon="6.08057">
        <ele>55.41</ele>
        <time>2015-06-28T06:40:52Z</time>
      </trkpt>
      <trkpt lat="43.11748" lon="6.08187">
        <ele>55.89</ele>
        <time>2015-06-28T06:41:07Z</time>
      </trkpt>
      <trkpt lat="43.1174" lon="6.08402">
        <ele>54.45</ele>
        <time>2015-06-28T06:41:31Z</time>
      </trkpt>
      <trkpt lat="43.11736" lon="6.08619">
        <ele>52.53</ele>
        <time>2015-06-28T06:41:56Z</time>
      </trkpt>
      <trkpt lat="43.11716" lon="6.0882">
        <ele>49.65</ele>
        <time>2015-06-28T06:42:21Z</time>
      </trkpt>
      <trkpt lat="43.11681" lon="6.08991">
        <ele>47.24</ele>
        <time>2015-06-28T06:42:42Z</time>
      </trkpt>
      <trkpt lat="43.11611" lon="6.09201">
        <ele>49.65</ele>
        <time>2015-06-28T06:43:09Z</time>
      </trkpt>
      <trkpt lat="43.11545" lon="6.09424">
        <ele>49.16</ele>
        <time>2015-06-28T06:43:38Z</time>
      </trkpt>
      <trkpt lat="43.115" lon="6.09604">
        <ele>50.13</ele>
        <time>2015-06-28T06:44:00Z</time>
      </trkpt>
      <trkpt lat="43.11453" lon="6.09777">
        <ele>47.72</ele>
        <time>2015-06-28T06:44:20Z</time>
      </trkpt>
      <trkpt lat="43.11397" lon="6.09928">
        <ele>47.24</ele>
        <time>2015-06-28T06:44:38Z</time>
      </trkpt>
      <trkpt lat="43.11359" lon="6.10107">
        <ele>44.84</ele>
        <time>2015-06-28T06:44:58Z</time>
      </trkpt>
      <trkpt lat="43.11331" lon="6.10298">
        <ele>42.92</ele>
        <time>2015-06-28T06:45:18Z</time>
      </trkpt>
      <trkpt lat="43.11311" lon="6.10512">
        <ele>39.07</ele>
        <time>2015-06-28T06:45:40Z</time>
      </trkpt>
      <trkpt lat="43.11297" lon="6.10642">
        <ele>37.15</ele>
        <time>2015-06-28T06:45:55Z</time>
      </trkpt>
      <trkpt lat="43.11348" lon="6.10799">
        <ele>34.74</ele>
        <time>2015-06-28T06:46:12Z</time>
      </trkpt>
      <trkpt lat="43.11368" lon="6.10861">
        <ele>33.78</ele>
        <time>2015-06-28T06:46:19Z</time>
      </trkpt>
      <trkpt lat="43.11369" lon="6.10924">
        <ele>35.23</ele>
        <time>2015-06-28T06:46:26Z</time>
      </trkpt>
      <trkpt lat="43.11369" lon="6.10953">
        <ele>37.63</ele>
        <time>2015-06-28T06:46:30Z</time>
      </trkpt>
      <trkpt lat="43.11375" lon="6.10977">
        <ele>38.59</ele>
        <time>2015-06-28T06:46:33Z</time>
      </trkpt>
      <trkpt lat="43.11377" lon="6.11011">
        <ele>39.55</ele>
        <time>2015-06-28T06:46:37Z</time>
      </trkpt>
      <trkpt lat="43.11315" lon="6.11139">
        <ele>40.51</ele>
        <time>2015-06-28T06:46:54Z</time>
      </trkpt>
      <trkpt lat="43.11228" lon="6.11319">
        <ele>39.55</ele>
        <time>2015-06-28T06:47:17Z</time>
      </trkpt>
      <trkpt lat="43.11185" lon="6.1139">
        <ele>38.59</ele>
        <time>2015-06-28T06:47:30Z</time>
      </trkpt>
      <trkpt lat="43.11135" lon="6.11504">
        <ele>38.11</ele>
        <time>2015-06-28T06:47:46Z</time>
      </trkpt>
      <trkpt lat="43.11062" lon="6.11683">
        <ele>37.15</ele>
        <time>2015-06-28T06:48:09Z</time>
      </trkpt>
      <trkpt lat="43.11035" lon="6.11832">
        <ele>34.74</ele>
        <time>2015-06-28T06:48:26Z</time>
      </trkpt>
      <trkpt lat="43.11011" lon="6.12039">
        <ele>31.38</ele>
        <time>2015-06-28T06:48:48Z</time>
      </trkpt>
      <trkpt lat="43.10977" lon="6.12175">
        <ele>30.42</ele>
        <time>2015-06-28T06:49:05Z</time>
      </trkpt>
      <trkpt lat="43.10965" lon="6.12205">
        <ele>29.94</ele>
        <time>2015-06-28T06:49:15Z</time>
      </trkpt>
      <trkpt lat="43.10935" lon="6.12252">
        <ele>29.46</ele>
        <time>2015-06-28T06:49:26Z</time>
      </trkpt>
      <trkpt lat="43.10846" lon="6.12374">
        <ele>28.02</ele>
        <time>2015-06-28T06:49:47Z</time>
      </trkpt>
      <trkpt lat="43.10759" lon="6.12489">
        <ele>26.09</ele>
        <time>2015-06-28T06:50:04Z</time>
      </trkpt>
      <trkpt lat="43.10652" lon="6.12618">
        <ele>23.69</ele>
        <time>2015-06-28T06:50:23Z</time>
      </trkpt>
      <trkpt lat="43.10522" lon="6.12723">
        <ele>19.84</ele>
        <time>2015-06-28T06:50:43Z</time>
      </trkpt>
      <trkpt lat="43.10506" lon="6.12737">
        <ele>17.92</ele>
        <time>2015-06-28T06:50:48Z</time>
      </trkpt>
      <trkpt lat="43.10495" lon="6.1274">
        <ele>17.92</ele>
        <time>2015-06-28T06:50:51Z</time>
      </trkpt>
      <trkpt lat="43.10471" lon="6.12764">
        <ele>16.96</ele>
        <time>2015-06-28T06:50:57Z</time>
      </trkpt>
      <trkpt lat="43.10336" lon="6.12872">
        <ele>14.56</ele>
        <time>2015-06-28T06:51:20Z</time>
      </trkpt>
      <trkpt lat="43.10214" lon="6.12975">
        <ele>12.15</ele>
        <time>2015-06-28T06:51:40Z</time>
      </trkpt>
      <trkpt lat="43.10202" lon="6.12989">
        <ele>12.15</ele>
        <time>2015-06-28T06:51:42Z</time>
      </trkpt>
      <trkpt lat="43.10162" lon="6.13019">
        <ele>11.19</ele>
        <time>2015-06-28T06:51:50Z</time>
      </trkpt>
      <trkpt lat="43.10162" lon="6.13026">
        <ele>10.71</ele>
        <time>2015-06-28T06:51:51Z</time>
      </trkpt>
      <trkpt lat="43.10161" lon="6.13051">
        <ele>10.23</ele>
        <time>2015-06-28T06:51:54Z</time>
      </trkpt>
      <trkpt lat="43.10153" lon="6.13076">
        <ele>9.75</ele>
        <time>2015-06-28T06:51:57Z</time>
      </trkpt>
      <trkpt lat="43.10067" lon="6.13181">
        <ele>9.27</ele>
        <time>2015-06-28T06:52:12Z</time>
      </trkpt>
      <trkpt lat="43.09934" lon="6.133">
        <ele>6.87</ele>
        <time>2015-06-28T06:52:32Z</time>
      </trkpt>
      <trkpt lat="43.09788" lon="6.13424">
        <ele>1.58</ele>
        <time>2015-06-28T06:52:55Z</time>
      </trkpt>
      <trkpt lat="43.0965" lon="6.13548">
        <ele>-1.3</ele>
        <time>2015-06-28T06:53:18Z</time>
      </trkpt>
      <trkpt lat="43.09527" lon="6.13653">
        <ele>-2.27</ele>
        <time>2015-06-28T06:53:39Z</time>
      </trkpt>
      <trkpt lat="43.09449" lon="6.13748">
        <ele>-2.27</ele>
        <time>2015-06-28T06:53:55Z</time>
      </trkpt>
      <trkpt lat="43.09356" lon="6.13914">
        <ele>-2.75</ele>
        <time>2015-06-28T06:54:18Z</time>
      </trkpt>
      <trkpt lat="43.09288" lon="6.14039">
        <ele>-2.27</ele>
        <time>2015-06-28T06:54:36Z</time>
      </trkpt>
      <trkpt lat="43.09191" lon="6.14187">
        <ele>-2.27</ele>
        <time>2015-06-28T06:54:59Z</time>
      </trkpt>
      <trkpt lat="43.09087" lon="6.14302">
        <ele>-3.23</ele>
        <time>2015-06-28T06:55:21Z</time>
      </trkpt>
      <trkpt lat="43.0897" lon="6.14397">
        <ele>-7.07</ele>
        <time>2015-06-28T06:55:44Z</time>
      </trkpt>
      <trkpt lat="43.08952" lon="6.14421">
        <ele>-10.44</ele>
        <time>2015-06-28T06:55:57Z</time>
      </trkpt>
      <trkpt lat="43.08909" lon="6.14487">
        <ele>-13.8</ele>
        <time>2015-06-28T06:56:15Z</time>
      </trkpt>
      <trkpt lat="43.0877" lon="6.14577">
        <ele>-5.15</ele>
        <time>2015-06-28T06:56:33Z</time>
      </trkpt>
      <trkpt lat="43.08659" lon="6.14674">
        <ele>-2.27</ele>
        <time>2015-06-28T06:56:53Z</time>
      </trkpt>
      <trkpt lat="43.08548" lon="6.14782">
        <ele>-1.79</ele>
        <time>2015-06-28T06:57:14Z</time>
      </trkpt>
      <trkpt lat="43.08434" lon="6.14883">
        <ele>0.14</ele>
        <time>2015-06-28T06:57:34Z</time>
      </trkpt>
      <trkpt lat="43.08333" lon="6.14955">
        <ele>3.5</ele>
        <time>2015-06-28T06:57:53Z</time>
      </trkpt>
      <trkpt lat="43.0831" lon="6.14962">
        <ele>3.5</ele>
        <time>2015-06-28T06:57:59Z</time>
      </trkpt>
      <trkpt lat="43.08305" lon="6.1496">
        <ele>2.54</ele>
        <time>2015-06-28T06:58:14Z</time>
      </trkpt>
      <trkpt lat="43.08296" lon="6.14971">
        <ele>3.02</ele>
        <time>2015-06-28T06:58:21Z</time>
      </trkpt>
      <trkpt lat="43.08285" lon="6.1497">
        <ele>3.5</ele>
        <time>2015-06-28T06:58:24Z</time>
      </trkpt>
      <trkpt lat="43.08242" lon="6.15012">
        <ele>3.98</ele>
        <time>2015-06-28T06:58:33Z</time>
      </trkpt>
      <trkpt lat="43.08239" lon="6.15028">
        <ele>4.46</ele>
        <time>2015-06-28T06:58:35Z</time>
      </trkpt>
      <trkpt lat="43.08239" lon="6.1505">
        <ele>3.98</ele>
        <time>2015-06-28T06:58:38Z</time>
      </trkpt>
      <trkpt lat="43.0827" lon="6.15101">
        <ele>3.5</ele>
        <time>2015-06-28T06:58:48Z</time>
      </trkpt>
      <trkpt lat="43.08291" lon="6.14959">
        <ele>-0.34</ele>
        <time>2015-06-28T06:58:56Z</time>
      </trkpt>
      <trkpt lat="43.08239" lon="6.14958">
        <ele>-10.44</ele>
        <time>2015-06-28T06:59:03Z</time>
      </trkpt>
      <trkpt lat="43.08227" lon="6.14977">
        <ele>-11.88</ele>
        <time>2015-06-28T06:59:05Z</time>
      </trkpt>
      <trkpt lat="43.08218" lon="6.1499">
        <ele>-8.51</ele>
        <time>2015-06-28T06:59:07Z</time>
      </trkpt>
      <trkpt lat="43.08162" lon="6.15007">
        <ele>-3.71</ele>
        <time>2015-06-28T06:59:16Z</time>
      </trkpt>
      <trkpt lat="43.08054" lon="6.14981">
        <ele>-0.82</ele>
        <time>2015-06-28T06:59:32Z</time>
      </trkpt>
      <trkpt lat="43.08048" lon="6.14977">
        <ele>-0.82</ele>
        <time>2015-06-28T06:59:33Z</time>
      </trkpt>
      <trkpt lat="43.08015" lon="6.14945">
        <ele>0.62</ele>
        <time>2015-06-28T06:59:40Z</time>
      </trkpt>
      <trkpt lat="43.07982" lon="6.14972">
        <ele>2.54</ele>
        <time>2015-06-28T06:59:47Z</time>
      </trkpt>
      <trkpt lat="43.07965" lon="6.14981">
        <ele>3.02</ele>
        <time>2015-06-28T06:59:50Z</time>
      </trkpt>
      <trkpt lat="43.07889" lon="6.14968">
        <ele>3.5</ele>
        <time>2015-06-28T07:00:04Z</time>
      </trkpt>
      <trkpt lat="43.07759" lon="6.14942">
        <ele>2.54</ele>
        <time>2015-06-28T07:00:25Z</time>
      </trkpt>
      <trkpt lat="43.076" lon="6.14908">
        <ele>1.1</ele>
        <time>2015-06-28T07:00:49Z</time>
      </trkpt>
      <trkpt lat="43.07421" lon="6.14875">
        <ele>1.58</ele>
        <time>2015-06-28T07:01:15Z</time>
      </trkpt>
      <trkpt lat="43.07291" lon="6.14816">
        <ele>2.06</ele>
        <time>2015-06-28T07:01:34Z</time>
      </trkpt>
      <trkpt lat="43.07164" lon="6.1477">
        <ele>3.02</ele>
        <time>2015-06-28T07:01:53Z</time>
      </trkpt>
      <trkpt lat="43.07018" lon="6.14746">
        <ele>2.54</ele>
        <time>2015-06-28T07:02:15Z</time>
      </trkpt>
      <trkpt lat="43.06874" lon="6.14725">
        <ele>3.02</ele>
        <time>2015-06-28T07:02:37Z</time>
      </trkpt>
      <trkpt lat="43.06735" lon="6.14724">
        <ele>4.46</ele>
        <time>2015-06-28T07:02:58Z</time>
      </trkpt>
      <trkpt lat="43.066" lon="6.1472">
        <ele>5.42</ele>
        <time>2015-06-28T07:03:19Z</time>
      </trkpt>
      <trkpt lat="43.06502" lon="6.14736">
        <ele>4.94</ele>
        <time>2015-06-28T07:03:35Z</time>
      </trkpt>
      <trkpt lat="43.06392" lon="6.14737">
        <ele>0.14</ele>
        <time>2015-06-28T07:03:53Z</time>
      </trkpt>
      <trkpt lat="43.06286" lon="6.14726">
        <ele>-4.67</ele>
        <time>2015-06-28T07:04:10Z</time>
      </trkpt>
      <trkpt lat="43.06167" lon="6.14719">
        <ele>-7.07</ele>
        <time>2015-06-28T07:04:28Z</time>
      </trkpt>
      <trkpt lat="43.06037" lon="6.1471">
        <ele>-7.07</ele>
        <time>2015-06-28T07:04:48Z</time>
      </trkpt>
      <trkpt lat="43.05908" lon="6.14701">
        <ele>-6.59</ele>
        <time>2015-06-28T07:05:07Z</time>
      </trkpt>
      <trkpt lat="43.05771" lon="6.14691">
        <ele>-6.59</ele>
        <time>2015-06-28T07:05:28Z</time>
      </trkpt>
      <trkpt lat="43.05648" lon="6.147">
        <ele>-4.67</ele>
        <time>2015-06-28T07:05:47Z</time>
      </trkpt>
      <trkpt lat="43.05564" lon="6.14716">
        <ele>-5.63</ele>
        <time>2015-06-28T07:06:00Z</time>
      </trkpt>
      <trkpt lat="43.05447" lon="6.14716">
        <ele>-4.67</ele>
        <time>2015-06-28T07:06:17Z</time>
      </trkpt>
      <trkpt lat="43.05287" lon="6.147">
        <ele>-6.59</ele>
        <time>2015-06-28T07:06:41Z</time>
      </trkpt>
      <trkpt lat="43.05162" lon="6.14687">
        <ele>-9.48</ele>
        <time>2015-06-28T07:07:00Z</time>
      </trkpt>
      <trkpt lat="43.05001" lon="6.14672">
        <ele>-15.24</ele>
        <time>2015-06-28T07:07:24Z</time>
      </trkpt>
      <trkpt lat="43.04842" lon="6.14652">
        <ele>-11.4</ele>
        <time>2015-06-28T07:07:48Z</time>
      </trkpt>
      <trkpt lat="43.04775" lon="6.14645">
        <ele>-10.44</ele>
        <time>2015-06-28T07:07:58Z</time>
      </trkpt>
      <trkpt lat="43.04763" lon="6.14641">
        <ele>-9.96</ele>
        <time>2015-06-28T07:08:00Z</time>
      </trkpt>
      <trkpt lat="43.04669" lon="6.14628">
        <ele>-6.59</ele>
        <time>2015-06-28T07:08:14Z</time>
      </trkpt>
      <trkpt lat="43.04518" lon="6.14609">
        <ele>-2.75</ele>
        <time>2015-06-28T07:08:36Z</time>
      </trkpt>
      <trkpt lat="43.04362" lon="6.14586">
        <ele>-1.3</ele>
        <time>2015-06-28T07:08:59Z</time>
      </trkpt>
      <trkpt lat="43.04189" lon="6.14557">
        <ele>-1.79</ele>
        <time>2015-06-28T07:09:25Z</time>
      </trkpt>
      <trkpt lat="43.0411" lon="6.14536">
        <ele>-2.27</ele>
        <time>2015-06-28T07:09:38Z</time>
      </trkpt>
      <trkpt lat="43.04093" lon="6.14518">
        <ele>-2.27</ele>
        <time>2015-06-28T07:09:42Z</time>
      </trkpt>
      <trkpt lat="43.04087" lon="6.14505">
        <ele>-2.75</ele>
        <time>2015-06-28T07:09:44Z</time>
      </trkpt>
      <trkpt lat="43.04081" lon="6.14486">
        <ele>-1.79</ele>
        <time>2015-06-28T07:09:47Z</time>
      </trkpt>
      <trkpt lat="43.04079" lon="6.14416">
        <ele>0.62</ele>
        <time>2015-06-28T07:09:55Z</time>
      </trkpt>
      <trkpt lat="43.04087" lon="6.14377">
        <ele>2.54</ele>
        <time>2015-06-28T07:10:00Z</time>
      </trkpt>
      <trkpt lat="43.04145" lon="6.14247">
        <ele>4.94</ele>
        <time>2015-06-28T07:10:18Z</time>
      </trkpt>
      <trkpt lat="43.04154" lon="6.14225">
        <ele>5.42</ele>
        <time>2015-06-28T07:10:21Z</time>
      </trkpt>
      <trkpt lat="43.0417" lon="6.14201">
        <ele>5.42</ele>
        <time>2015-06-28T07:10:25Z</time>
      </trkpt>
      <trkpt lat="43.04212" lon="6.1411">
        <ele>4.94</ele>
        <time>2015-06-28T07:10:37Z</time>
      </trkpt>
      <trkpt lat="43.04271" lon="6.13995">
        <ele>6.39</ele>
        <time>2015-06-28T07:10:54Z</time>
      </trkpt>
      <trkpt lat="43.04371" lon="6.13895">
        <ele>4.46</ele>
        <time>2015-06-28T07:11:16Z</time>
      </trkpt>
      <trkpt lat="43.04427" lon="6.13781">
        <ele>3.02</ele>
        <time>2015-06-28T07:11:33Z</time>
      </trkpt>
      <trkpt lat="43.04451" lon="6.13659">
        <ele>1.58</ele>
        <time>2015-06-28T07:11:46Z</time>
      </trkpt>
      <trkpt lat="43.04473" lon="6.13567">
        <ele>0.62</ele>
        <time>2015-06-28T07:11:57Z</time>
      </trkpt>
      <trkpt lat="43.04472" lon="6.13534">
        <ele>0.14</ele>
        <time>2015-06-28T07:12:01Z</time>
      </trkpt>
      <trkpt lat="43.0447" lon="6.1352">
        <ele>-0.34</ele>
        <time>2015-06-28T07:12:03Z</time>
      </trkpt>
      <trkpt lat="43.04468" lon="6.13489">
        <ele>-1.79</ele>
        <time>2015-06-28T07:12:14Z</time>
      </trkpt>
      <trkpt lat="43.04465" lon="6.13495">
        <ele>0.14</ele>
        <time>2015-06-28T07:12:37Z</time>
      </trkpt>
      <trkpt lat="43.04464" lon="6.13497">
        <ele>2.06</ele>
        <time>2015-06-28T07:13:06Z</time>
      </trkpt>
      <trkpt lat="43.04463" lon="6.13498">
        <ele>3.02</ele>
        <time>2015-06-28T07:13:37Z</time>
      </trkpt>
      <trkpt lat="43.04464" lon="6.13497">
        <ele>2.06</ele>
        <time>2015-06-28T07:14:02Z</time>
      </trkpt>
      <trkpt lat="43.04464" lon="6.13496">
        <ele>1.58</ele>
        <time>2015-06-28T07:14:31Z</time>
      </trkpt>
      <trkpt lat="43.04467" lon="6.13469">
        <ele>3.5</ele>
        <time>2015-06-28T07:14:46Z</time>
      </trkpt>
      <trkpt lat="43.04476" lon="6.13453">
        <ele>4.46</ele>
        <time>2015-06-28T07:14:50Z</time>
      </trkpt>
      <trkpt lat="43.04578" lon="6.13406">
        <ele>6.87</ele>
        <time>2015-06-28T07:15:09Z</time>
      </trkpt>
      <trkpt lat="43.04704" lon="6.1336">
        <ele>6.87</ele>
        <time>2015-06-28T07:15:32Z</time>
      </trkpt>
      <trkpt lat="43.04857" lon="6.13313">
        <ele>4.94</ele>
        <time>2015-06-28T07:15:59Z</time>
      </trkpt>
      <trkpt lat="43.0496" lon="6.13299">
        <ele>5.42</ele>
        <time>2015-06-28T07:16:16Z</time>
      </trkpt>
      <trkpt lat="43.05077" lon="6.13312">
        <ele>3.98</ele>
        <time>2015-06-28T07:16:36Z</time>
      </trkpt>
      <trkpt lat="43.05187" lon="6.13341">
        <ele>3.02</ele>
        <time>2015-06-28T07:16:55Z</time>
      </trkpt>
      <trkpt lat="43.05315" lon="6.13341">
        <ele>3.5</ele>
        <time>2015-06-28T07:17:17Z</time>
      </trkpt>
      <trkpt lat="43.05443" lon="6.13366">
        <ele>3.02</ele>
        <time>2015-06-28T07:17:39Z</time>
      </trkpt>
      <trkpt lat="43.0558" lon="6.13367">
        <ele>1.58</ele>
        <time>2015-06-28T07:18:02Z</time>
      </trkpt>
      <trkpt lat="43.05726" lon="6.13347">
        <ele>1.1</ele>
        <time>2015-06-28T07:18:27Z</time>
      </trkpt>
      <trkpt lat="43.05854" lon="6.13308">
        <ele>1.1</ele>
        <time>2015-06-28T07:18:50Z</time>
      </trkpt>
      <trkpt lat="43.05986" lon="6.13261">
        <ele>1.1</ele>
        <time>2015-06-28T07:19:13Z</time>
      </trkpt>
      <trkpt lat="43.06095" lon="6.13231">
        <ele>1.58</ele>
        <time>2015-06-28T07:19:32Z</time>
      </trkpt>
      <trkpt lat="43.0622" lon="6.13195">
        <ele>2.54</ele>
        <time>2015-06-28T07:19:54Z</time>
      </trkpt>
      <trkpt lat="43.06342" lon="6.13151">
        <ele>3.5</ele>
        <time>2015-06-28T07:20:15Z</time>
      </trkpt>
      <trkpt lat="43.06473" lon="6.13111">
        <ele>5.42</ele>
        <time>2015-06-28T07:20:38Z</time>
      </trkpt>
      <trkpt lat="43.06604" lon="6.13079">
        <ele>5.42</ele>
        <time>2015-06-28T07:21:02Z</time>
      </trkpt>
      <trkpt lat="43.0668" lon="6.13064">
        <ele>6.39</ele>
        <time>2015-06-28T07:21:18Z</time>
      </trkpt>
      <trkpt lat="43.06805" lon="6.13035">
        <ele>6.87</ele>
        <time>2015-06-28T07:21:39Z</time>
      </trkpt>
      <trkpt lat="43.06939" lon="6.12991">
        <ele>8.31</ele>
        <time>2015-06-28T07:22:03Z</time>
      </trkpt>
      <trkpt lat="43.07061" lon="6.12928">
        <ele>9.27</ele>
        <time>2015-06-28T07:22:25Z</time>
      </trkpt>
      <trkpt lat="43.07189" lon="6.12876">
        <ele>8.79</ele>
        <time>2015-06-28T07:22:48Z</time>
      </trkpt>
      <trkpt lat="43.07317" lon="6.12835">
        <ele>9.27</ele>
        <time>2015-06-28T07:23:10Z</time>
      </trkpt>
      <trkpt lat="43.07454" lon="6.12789">
        <ele>8.31</ele>
        <time>2015-06-28T07:23:33Z</time>
      </trkpt>
      <trkpt lat="43.07585" lon="6.12738">
        <ele>7.83</ele>
        <time>2015-06-28T07:23:55Z</time>
      </trkpt>
      <trkpt lat="43.07711" lon="6.12683">
        <ele>6.39</ele>
        <time>2015-06-28T07:24:16Z</time>
      </trkpt>
      <trkpt lat="43.07833" lon="6.12659">
        <ele>6.87</ele>
        <time>2015-06-28T07:24:37Z</time>
      </trkpt>
      <trkpt lat="43.0795" lon="6.12657">
        <ele>5.42</ele>
        <time>2015-06-28T07:24:58Z</time>
      </trkpt>
      <trkpt lat="43.07995" lon="6.12697">
        <ele>5.42</ele>
        <time>2015-06-28T07:25:09Z</time>
      </trkpt>
      <trkpt lat="43.0803" lon="6.12699">
        <ele>6.39</ele>
        <time>2015-06-28T07:25:16Z</time>
      </trkpt>
      <trkpt lat="43.08035" lon="6.12644">
        <ele>8.31</ele>
        <time>2015-06-28T07:25:23Z</time>
      </trkpt>
      <trkpt lat="43.08031" lon="6.12635">
        <ele>8.79</ele>
        <time>2015-06-28T07:25:24Z</time>
      </trkpt>
      <trkpt lat="43.07999" lon="6.12493">
        <ele>8.31</ele>
        <time>2015-06-28T07:25:42Z</time>
      </trkpt>
      <trkpt lat="43.07999" lon="6.12381">
        <ele>8.31</ele>
        <time>2015-06-28T07:25:58Z</time>
      </trkpt>
      <trkpt lat="43.08005" lon="6.12345">
        <ele>9.75</ele>
        <time>2015-06-28T07:26:04Z</time>
      </trkpt>
      <trkpt lat="43.08047" lon="6.1222">
        <ele>14.56</ele>
        <time>2015-06-28T07:26:25Z</time>
      </trkpt>
      <trkpt lat="43.08082" lon="6.12063">
        <ele>16</ele>
        <time>2015-06-28T07:26:49Z</time>
      </trkpt>
      <trkpt lat="43.08101" lon="6.11948">
        <ele>16.48</ele>
        <time>2015-06-28T07:27:05Z</time>
      </trkpt>
      <trkpt lat="43.08149" lon="6.11877">
        <ele>19.36</ele>
        <time>2015-06-28T07:27:18Z</time>
      </trkpt>
      <trkpt lat="43.08194" lon="6.11854">
        <ele>20.32</ele>
        <time>2015-06-28T07:27:26Z</time>
      </trkpt>
      <trkpt lat="43.08248" lon="6.11789">
        <ele>20.81</ele>
        <time>2015-06-28T07:27:42Z</time>
      </trkpt>
      <trkpt lat="43.08297" lon="6.11685">
        <ele>20.32</ele>
        <time>2015-06-28T07:28:02Z</time>
      </trkpt>
      <trkpt lat="43.08338" lon="6.11601">
        <ele>22.25</ele>
        <time>2015-06-28T07:28:21Z</time>
      </trkpt>
      <trkpt lat="43.0837" lon="6.11502">
        <ele>28.98</ele>
        <time>2015-06-28T07:28:45Z</time>
      </trkpt>
      <trkpt lat="43.08392" lon="6.11393">
        <ele>31.38</ele>
        <time>2015-06-28T07:29:07Z</time>
      </trkpt>
      <trkpt lat="43.08406" lon="6.11281">
        <ele>38.59</ele>
        <time>2015-06-28T07:29:32Z</time>
      </trkpt>
      <trkpt lat="43.08437" lon="6.11195">
        <ele>41.47</ele>
        <time>2015-06-28T07:29:54Z</time>
      </trkpt>
      <trkpt lat="43.08447" lon="6.11128">
        <ele>40.03</ele>
        <time>2015-06-28T07:30:11Z</time>
      </trkpt>
      <trkpt lat="43.08451" lon="6.11053">
        <ele>41.47</ele>
        <time>2015-06-28T07:30:30Z</time>
      </trkpt>
      <trkpt lat="43.08471" lon="6.1097">
        <ele>44.36</ele>
        <time>2015-06-28T07:30:50Z</time>
      </trkpt>
      <trkpt lat="43.08473" lon="6.10891">
        <ele>47.24</ele>
        <time>2015-06-28T07:31:08Z</time>
      </trkpt>
      <trkpt lat="43.08477" lon="6.10867">
        <ele>48.2</ele>
        <time>2015-06-28T07:31:14Z</time>
      </trkpt>
      <trkpt lat="43.08492" lon="6.10851">
        <ele>49.16</ele>
        <time>2015-06-28T07:31:22Z</time>
      </trkpt>
      <trkpt lat="43.08492" lon="6.10723">
        <ele>53.97</ele>
        <time>2015-06-28T07:31:39Z</time>
      </trkpt>
      <trkpt lat="43.0847" lon="6.10544">
        <ele>54.93</ele>
        <time>2015-06-28T07:31:55Z</time>
      </trkpt>
      <trkpt lat="43.08488" lon="6.10401">
        <ele>53.97</ele>
        <time>2015-06-28T07:32:08Z</time>
      </trkpt>
      <trkpt lat="43.085" lon="6.10232">
        <ele>49.65</ele>
        <time>2015-06-28T07:32:26Z</time>
      </trkpt>
      <trkpt lat="43.08521" lon="6.1007">
        <ele>45.8</ele>
        <time>2015-06-28T07:32:43Z</time>
      </trkpt>
      <trkpt lat="43.0853" lon="6.09874">
        <ele>41.47</ele>
        <time>2015-06-28T07:33:02Z</time>
      </trkpt>
      <trkpt lat="43.08546" lon="6.09737">
        <ele>36.19</ele>
        <time>2015-06-28T07:33:17Z</time>
      </trkpt>
      <trkpt lat="43.08551" lon="6.09722">
        <ele>33.3</ele>
        <time>2015-06-28T07:33:28Z</time>
      </trkpt>
      <trkpt lat="43.08549" lon="6.0965">
        <ele>33.3</ele>
        <time>2015-06-28T07:33:39Z</time>
      </trkpt>
      <trkpt lat="43.08542" lon="6.09524">
        <ele>32.34</ele>
        <time>2015-06-28T07:33:50Z</time>
      </trkpt>
      <trkpt lat="43.08587" lon="6.09397">
        <ele>28.98</ele>
        <time>2015-06-28T07:34:03Z</time>
      </trkpt>
      <trkpt lat="43.08631" lon="6.09287">
        <ele>25.13</ele>
        <time>2015-06-28T07:34:18Z</time>
      </trkpt>
      <trkpt lat="43.08677" lon="6.09163">
        <ele>20.32</ele>
        <time>2015-06-28T07:34:34Z</time>
      </trkpt>
      <trkpt lat="43.08713" lon="6.09">
        <ele>18.88</ele>
        <time>2015-06-28T07:34:54Z</time>
      </trkpt>
      <trkpt lat="43.08747" lon="6.0882">
        <ele>15.52</ele>
        <time>2015-06-28T07:35:16Z</time>
      </trkpt>
      <trkpt lat="43.08801" lon="6.08686">
        <ele>14.08</ele>
        <time>2015-06-28T07:35:34Z</time>
      </trkpt>
      <trkpt lat="43.08825" lon="6.0866">
        <ele>14.56</ele>
        <time>2015-06-28T07:35:41Z</time>
      </trkpt>
      <trkpt lat="43.08843" lon="6.08652">
        <ele>14.08</ele>
        <time>2015-06-28T07:35:45Z</time>
      </trkpt>
      <trkpt lat="43.0893" lon="6.0865">
        <ele>14.56</ele>
        <time>2015-06-28T07:36:05Z</time>
      </trkpt>
      <trkpt lat="43.08986" lon="6.08623">
        <ele>16</ele>
        <time>2015-06-28T07:36:21Z</time>
      </trkpt>
      <trkpt lat="43.08995" lon="6.08622">
        <ele>17.44</ele>
        <time>2015-06-28T07:36:31Z</time>
      </trkpt>
      <trkpt lat="43.09007" lon="6.08613">
        <ele>18.88</ele>
        <time>2015-06-28T07:36:48Z</time>
      </trkpt>
      <trkpt lat="43.09013" lon="6.08599">
        <ele>19.84</ele>
        <time>2015-06-28T07:36:51Z</time>
      </trkpt>
      <trkpt lat="43.09025" lon="6.08481">
        <ele>21.77</ele>
        <time>2015-06-28T07:37:08Z</time>
      </trkpt>
      <trkpt lat="43.09028" lon="6.08424">
        <ele>22.73</ele>
        <time>2015-06-28T07:37:16Z</time>
      </trkpt>
      <trkpt lat="43.09072" lon="6.08262">
        <ele>23.69</ele>
        <time>2015-06-28T07:37:39Z</time>
      </trkpt>
      <trkpt lat="43.09118" lon="6.08108">
        <ele>26.09</ele>
        <time>2015-06-28T07:38:00Z</time>
      </trkpt>
      <trkpt lat="43.09125" lon="6.0809">
        <ele>26.09</ele>
        <time>2015-06-28T07:38:03Z</time>
      </trkpt>
      <trkpt lat="43.09132" lon="6.08063">
        <ele>27.53</ele>
        <time>2015-06-28T07:38:09Z</time>
      </trkpt>
      <trkpt lat="43.09147" lon="6.08055">
        <ele>28.98</ele>
        <time>2015-06-28T07:38:14Z</time>
      </trkpt>
      <trkpt lat="43.09151" lon="6.07995">
        <ele>29.94</ele>
        <time>2015-06-28T07:38:23Z</time>
      </trkpt>
      <trkpt lat="43.09153" lon="6.07988">
        <ele>30.42</ele>
        <time>2015-06-28T07:38:24Z</time>
      </trkpt>
      <trkpt lat="43.09205" lon="6.0782">
        <ele>34.26</ele>
        <time>2015-06-28T07:38:46Z</time>
      </trkpt>
      <trkpt lat="43.09251" lon="6.07697">
        <ele>35.23</ele>
        <time>2015-06-28T07:39:04Z</time>
      </trkpt>
      <trkpt lat="43.09266" lon="6.07675">
        <ele>35.23</ele>
        <time>2015-06-28T07:39:09Z</time>
      </trkpt>
      <trkpt lat="43.09279" lon="6.07649">
        <ele>36.67</ele>
        <time>2015-06-28T07:39:14Z</time>
      </trkpt>
      <trkpt lat="43.09282" lon="6.07638">
        <ele>37.63</ele>
        <time>2015-06-28T07:39:17Z</time>
      </trkpt>
      <trkpt lat="43.09266" lon="6.07644">
        <ele>42.92</ele>
        <time>2015-06-28T07:39:21Z</time>
      </trkpt>
      <trkpt lat="43.09247" lon="6.07658">
        <ele>45.8</ele>
        <time>2015-06-28T07:39:25Z</time>
      </trkpt>
      <trkpt lat="43.09236" lon="6.0764">
        <ele>46.76</ele>
        <time>2015-06-28T07:39:31Z</time>
      </trkpt>
      <trkpt lat="43.09241" lon="6.07631">
        <ele>47.72</ele>
        <time>2015-06-28T07:39:33Z</time>
      </trkpt>
      <trkpt lat="43.09251" lon="6.07527">
        <ele>48.2</ele>
        <time>2015-06-28T07:39:49Z</time>
      </trkpt>
      <trkpt lat="43.09268" lon="6.07397">
        <ele>46.28</ele>
        <time>2015-06-28T07:40:09Z</time>
      </trkpt>
      <trkpt lat="43.09281" lon="6.07314">
        <ele>43.4</ele>
        <time>2015-06-28T07:40:23Z</time>
      </trkpt>
      <trkpt lat="43.0932" lon="6.07214">
        <ele>43.88</ele>
        <time>2015-06-28T07:40:40Z</time>
      </trkpt>
      <trkpt lat="43.09359" lon="6.07154">
        <ele>41.47</ele>
        <time>2015-06-28T07:40:57Z</time>
      </trkpt>
      <trkpt lat="43.09396" lon="6.07109">
        <ele>44.36</ele>
        <time>2015-06-28T07:41:12Z</time>
      </trkpt>
      <trkpt lat="43.09422" lon="6.07073">
        <ele>48.2</ele>
        <time>2015-06-28T07:41:25Z</time>
      </trkpt>
      <trkpt lat="43.09498" lon="6.07006">
        <ele>43.4</ele>
        <time>2015-06-28T07:41:43Z</time>
      </trkpt>
      <trkpt lat="43.09554" lon="6.06946">
        <ele>45.32</ele>
        <time>2015-06-28T07:42:01Z</time>
      </trkpt>
      <trkpt lat="43.09593" lon="6.06904">
        <ele>46.28</ele>
        <time>2015-06-28T07:42:16Z</time>
      </trkpt>
      <trkpt lat="43.09653" lon="6.06852">
        <ele>45.32</ele>
        <time>2015-06-28T07:42:33Z</time>
      </trkpt>
      <trkpt lat="43.09706" lon="6.06795">
        <ele>43.88</ele>
        <time>2015-06-28T07:42:51Z</time>
      </trkpt>
      <trkpt lat="43.09766" lon="6.06709">
        <ele>43.4</ele>
        <time>2015-06-28T07:43:14Z</time>
      </trkpt>
      <trkpt lat="43.09806" lon="6.06627">
        <ele>42.44</ele>
        <time>2015-06-28T07:43:33Z</time>
      </trkpt>
      <trkpt lat="43.09859" lon="6.06528">
        <ele>42.92</ele>
        <time>2015-06-28T07:43:55Z</time>
      </trkpt>
      <trkpt lat="43.09921" lon="6.06416">
        <ele>45.32</ele>
        <time>2015-06-28T07:44:18Z</time>
      </trkpt>
      <trkpt lat="43.09959" lon="6.06294">
        <ele>48.2</ele>
        <time>2015-06-28T07:44:41Z</time>
      </trkpt>
      <trkpt lat="43.10008" lon="6.06171">
        <ele>48.68</ele>
        <time>2015-06-28T07:45:05Z</time>
      </trkpt>
      <trkpt lat="43.10055" lon="6.06059">
        <ele>52.53</ele>
        <time>2015-06-28T07:45:27Z</time>
      </trkpt>
      <trkpt lat="43.10069" lon="6.0603">
        <ele>54.45</ele>
        <time>2015-06-28T07:45:33Z</time>
      </trkpt>
      <trkpt lat="43.10096" lon="6.0594">
        <ele>55.41</ele>
        <time>2015-06-28T07:45:50Z</time>
      </trkpt>
      <trkpt lat="43.10151" lon="6.05802">
        <ele>54.93</ele>
        <time>2015-06-28T07:46:10Z</time>
      </trkpt>
      <trkpt lat="43.10188" lon="6.05731">
        <ele>53.97</ele>
        <time>2015-06-28T07:46:20Z</time>
      </trkpt>
      <trkpt lat="43.10236" lon="6.05641">
        <ele>53.01</ele>
        <time>2015-06-28T07:46:33Z</time>
      </trkpt>
      <trkpt lat="43.10297" lon="6.05578">
        <ele>52.05</ele>
        <time>2015-06-28T07:46:48Z</time>
      </trkpt>
      <trkpt lat="43.10299" lon="6.05584">
        <ele>51.57</ele>
        <time>2015-06-28T07:46:58Z</time>
      </trkpt>
      <trkpt lat="43.10302" lon="6.0559">
        <ele>48.2</ele>
        <time>2015-06-28T07:47:23Z</time>
      </trkpt>
      <trkpt lat="43.10301" lon="6.05589">
        <ele>47.24</ele>
        <time>2015-06-28T07:47:52Z</time>
      </trkpt>
      <trkpt lat="43.103" lon="6.05589">
        <ele>47.72</ele>
        <time>2015-06-28T07:48:17Z</time>
      </trkpt>
      <trkpt lat="43.103" lon="6.05588">
        <ele>47.72</ele>
        <time>2015-06-28T07:48:46Z</time>
      </trkpt>
      <trkpt lat="43.10299" lon="6.05589">
        <ele>47.24</ele>
        <time>2015-06-28T07:49:08Z</time>
      </trkpt>
      <trkpt lat="43.103" lon="6.05589">
        <ele>46.28</ele>
        <time>2015-06-28T07:49:28Z</time>
      </trkpt>
      <trkpt lat="43.10325" lon="6.0554">
        <ele>47.24</ele>
        <time>2015-06-28T07:49:41Z</time>
      </trkpt>
      <trkpt lat="43.1041" lon="6.05414">
        <ele>48.2</ele>
        <time>2015-06-28T07:50:01Z</time>
      </trkpt>
      <trkpt lat="43.10533" lon="6.0526">
        <ele>47.24</ele>
        <time>2015-06-28T07:50:26Z</time>
      </trkpt>
      <trkpt lat="43.10634" lon="6.05153">
        <ele>46.76</ele>
        <time>2015-06-28T07:50:46Z</time>
      </trkpt>
      <trkpt lat="43.10704" lon="6.05045">
        <ele>45.8</ele>
        <time>2015-06-28T07:51:02Z</time>
      </trkpt>
      <trkpt lat="43.10797" lon="6.04848">
        <ele>45.32</ele>
        <time>2015-06-28T07:51:27Z</time>
      </trkpt>
      <trkpt lat="43.10837" lon="6.0475">
        <ele>45.8</ele>
        <time>2015-06-28T07:51:39Z</time>
      </trkpt>
      <trkpt lat="43.10844" lon="6.04705">
        <ele>44.84</ele>
        <time>2015-06-28T07:51:44Z</time>
      </trkpt>
      <trkpt lat="43.10855" lon="6.04682">
        <ele>44.84</ele>
        <time>2015-06-28T07:51:48Z</time>
      </trkpt>
      <trkpt lat="43.10887" lon="6.04605">
        <ele>44.84</ele>
        <time>2015-06-28T07:51:58Z</time>
      </trkpt>
      <trkpt lat="43.10899" lon="6.04463">
        <ele>43.88</ele>
        <time>2015-06-28T07:52:12Z</time>
      </trkpt>
      <trkpt lat="43.10916" lon="6.04334">
        <ele>42.92</ele>
        <time>2015-06-28T07:52:26Z</time>
      </trkpt>
      <trkpt lat="43.10882" lon="6.04218">
        <ele>41.95</ele>
        <time>2015-06-28T07:52:39Z</time>
      </trkpt>
      <trkpt lat="43.10876" lon="6.04082">
        <ele>38.59</ele>
        <time>2015-06-28T07:52:54Z</time>
      </trkpt>
      <trkpt lat="43.10894" lon="6.03948">
        <ele>33.78</ele>
        <time>2015-06-28T07:53:08Z</time>
      </trkpt>
      <trkpt lat="43.10878" lon="6.03895">
        <ele>32.34</ele>
        <time>2015-06-28T07:53:15Z</time>
      </trkpt>
      <trkpt lat="43.10876" lon="6.0387">
        <ele>30.9</ele>
        <time>2015-06-28T07:53:20Z</time>
      </trkpt>
      <trkpt lat="43.1088" lon="6.03846">
        <ele>29.94</ele>
        <time>2015-06-28T07:53:24Z</time>
      </trkpt>
      <trkpt lat="43.10897" lon="6.03696">
        <ele>28.98</ele>
        <time>2015-06-28T07:53:39Z</time>
      </trkpt>
      <trkpt lat="43.1087" lon="6.03553">
        <ele>25.13</ele>
        <time>2015-06-28T07:53:56Z</time>
      </trkpt>
      <trkpt lat="43.10832" lon="6.0344">
        <ele>22.25</ele>
        <time>2015-06-28T07:54:13Z</time>
      </trkpt>
      <trkpt lat="43.10799" lon="6.03318">
        <ele>19.36</ele>
        <time>2015-06-28T07:54:30Z</time>
      </trkpt>
      <trkpt lat="43.10768" lon="6.03178">
        <ele>14.56</ele>
        <time>2015-06-28T07:54:47Z</time>
      </trkpt>
      <trkpt lat="43.10753" lon="6.03148">
        <ele>12.63</ele>
        <time>2015-06-28T07:54:52Z</time>
      </trkpt>
      <trkpt lat="43.10746" lon="6.03137">
        <ele>11.67</ele>
        <time>2015-06-28T07:54:54Z</time>
      </trkpt>
      <trkpt lat="43.10731" lon="6.03092">
        <ele>10.23</ele>
        <time>2015-06-28T07:55:03Z</time>
      </trkpt>
      <trkpt lat="43.1071" lon="6.03063">
        <ele>8.79</ele>
        <time>2015-06-28T07:55:09Z</time>
      </trkpt>
      <trkpt lat="43.10667" lon="6.03007">
        <ele>7.35</ele>
        <time>2015-06-28T07:55:21Z</time>
      </trkpt>
      <trkpt lat="43.10665" lon="6.02985">
        <ele>8.79</ele>
        <time>2015-06-28T07:55:25Z</time>
      </trkpt>
      <trkpt lat="43.10692" lon="6.02725">
        <ele>19.36</ele>
        <time>2015-06-28T07:55:47Z</time>
      </trkpt>
      <trkpt lat="43.10665" lon="6.02581">
        <ele>18.4</ele>
        <time>2015-06-28T07:56:08Z</time>
      </trkpt>
      <trkpt lat="43.10667" lon="6.02544">
        <ele>23.69</ele>
        <time>2015-06-28T07:56:18Z</time>
      </trkpt>
      <trkpt lat="43.10668" lon="6.02544">
        <ele>24.65</ele>
        <time>2015-06-28T07:56:19Z</time>
      </trkpt>
      <trkpt lat="43.10691" lon="6.0251">
        <ele>28.98</ele>
        <time>2015-06-28T07:56:29Z</time>
      </trkpt>
      <trkpt lat="43.10699" lon="6.02498">
        <ele>29.94</ele>
        <time>2015-06-28T07:56:31Z</time>
      </trkpt>
      <trkpt lat="43.10725" lon="6.02478">
        <ele>33.3</ele>
        <time>2015-06-28T07:56:35Z</time>
      </trkpt>
      <trkpt lat="43.10857" lon="6.02439">
        <ele>39.55</ele>
        <time>2015-06-28T07:56:53Z</time>
      </trkpt>
      <trkpt lat="43.10897" lon="6.02422">
        <ele>39.07</ele>
        <time>2015-06-28T07:56:58Z</time>
      </trkpt>
      <trkpt lat="43.10978" lon="6.02315">
        <ele>38.59</ele>
        <time>2015-06-28T07:57:13Z</time>
      </trkpt>
      <trkpt lat="43.11017" lon="6.0217">
        <ele>35.71</ele>
        <time>2015-06-28T07:57:29Z</time>
      </trkpt>
      <trkpt lat="43.11038" lon="6.02013">
        <ele>32.82</ele>
        <time>2015-06-28T07:57:46Z</time>
      </trkpt>
      <trkpt lat="43.11055" lon="6.01834">
        <ele>28.98</ele>
        <time>2015-06-28T07:58:08Z</time>
      </trkpt>
      <trkpt lat="43.11066" lon="6.01691">
        <ele>25.13</ele>
        <time>2015-06-28T07:58:25Z</time>
      </trkpt>
      <trkpt lat="43.11042" lon="6.01584">
        <ele>22.73</ele>
        <time>2015-06-28T07:58:39Z</time>
      </trkpt>
      <trkpt lat="43.10979" lon="6.0147">
        <ele>19.84</ele>
        <time>2015-06-28T07:58:56Z</time>
      </trkpt>
      <trkpt lat="43.10892" lon="6.01319">
        <ele>15.52</ele>
        <time>2015-06-28T07:59:20Z</time>
      </trkpt>
      <trkpt lat="43.1085" lon="6.01207">
        <ele>8.31</ele>
        <time>2015-06-28T07:59:39Z</time>
      </trkpt>
      <trkpt lat="43.10841" lon="6.01087">
        <ele>4.46</ele>
        <time>2015-06-28T07:59:54Z</time>
      </trkpt>
      <trkpt lat="43.10845" lon="6.00906">
        <ele>1.1</ele>
        <time>2015-06-28T08:00:15Z</time>
      </trkpt>
      <trkpt lat="43.10844" lon="6.00721">
        <ele>-6.11</ele>
        <time>2015-06-28T08:00:36Z</time>
      </trkpt>
      <trkpt lat="43.10864" lon="6.00522">
        <ele>-14.76</ele>
        <time>2015-06-28T08:00:58Z</time>
      </trkpt>
      <trkpt lat="43.10899" lon="6.00327">
        <ele>-18.61</ele>
        <time>2015-06-28T08:01:20Z</time>
      </trkpt>
      <trkpt lat="43.10934" lon="6.0015">
        <ele>-18.13</ele>
        <time>2015-06-28T08:01:41Z</time>
      </trkpt>
      <trkpt lat="43.10929" lon="6.00027">
        <ele>-28.7</ele>
        <time>2015-06-28T08:02:01Z</time>
      </trkpt>
      <trkpt lat="43.10949" lon="5.99951">
        <ele>-30.14</ele>
        <time>2015-06-28T08:02:17Z</time>
      </trkpt>
      <trkpt lat="43.10965" lon="5.99941">
        <ele>-20.05</ele>
        <time>2015-06-28T08:02:33Z</time>
      </trkpt>
      <trkpt lat="43.10963" lon="5.99937">
        <ele>-10.92</ele>
        <time>2015-06-28T08:02:45Z</time>
      </trkpt>
      <trkpt lat="43.10986" lon="5.99871">
        <ele>-1.79</ele>
        <time>2015-06-28T08:03:00Z</time>
      </trkpt>
      <trkpt lat="43.11025" lon="5.99756">
        <ele>14.56</ele>
        <time>2015-06-28T08:03:17Z</time>
      </trkpt>
      <trkpt lat="43.11073" lon="5.99628">
        <ele>19.36</ele>
        <time>2015-06-28T08:03:35Z</time>
      </trkpt>
      <trkpt lat="43.11143" lon="5.9944">
        <ele>20.32</ele>
        <time>2015-06-28T08:03:54Z</time>
      </trkpt>
      <trkpt lat="43.11174" lon="5.99262">
        <ele>18.88</ele>
        <time>2015-06-28T08:04:09Z</time>
      </trkpt>
      <trkpt lat="43.11178" lon="5.99074">
        <ele>17.44</ele>
        <time>2015-06-28T08:04:26Z</time>
      </trkpt>
      <trkpt lat="43.1118" lon="5.98991">
        <ele>14.56</ele>
        <time>2015-06-28T08:04:36Z</time>
      </trkpt>
      <trkpt lat="43.11221" lon="5.98864">
        <ele>10.71</ele>
        <time>2015-06-28T08:04:54Z</time>
      </trkpt>
      <trkpt lat="43.11241" lon="5.98755">
        <ele>8.79</ele>
        <time>2015-06-28T08:05:12Z</time>
      </trkpt>
      <trkpt lat="43.11293" lon="5.98645">
        <ele>6.39</ele>
        <time>2015-06-28T08:05:27Z</time>
      </trkpt>
      <trkpt lat="43.11385" lon="5.98512">
        <ele>3.02</ele>
        <time>2015-06-28T08:05:46Z</time>
      </trkpt>
      <trkpt lat="43.11495" lon="5.98374">
        <ele>8.31</ele>
        <time>2015-06-28T08:06:05Z</time>
      </trkpt>
      <trkpt lat="43.11541" lon="5.98262">
        <ele>8.31</ele>
        <time>2015-06-28T08:06:18Z</time>
      </trkpt>
      <trkpt lat="43.11552" lon="5.98113">
        <ele>7.35</ele>
        <time>2015-06-28T08:06:34Z</time>
      </trkpt>
      <trkpt lat="43.11551" lon="5.981">
        <ele>6.87</ele>
        <time>2015-06-28T08:06:36Z</time>
      </trkpt>
      <trkpt lat="43.11542" lon="5.98044">
        <ele>6.87</ele>
        <time>2015-06-28T08:06:44Z</time>
      </trkpt>
      <trkpt lat="43.11565" lon="5.97916">
        <ele>7.35</ele>
        <time>2015-06-28T08:06:59Z</time>
      </trkpt>
      <trkpt lat="43.11598" lon="5.9772">
        <ele>4.46</ele>
        <time>2015-06-28T08:07:20Z</time>
      </trkpt>
      <trkpt lat="43.11638" lon="5.97563">
        <ele>2.06</ele>
        <time>2015-06-28T08:07:38Z</time>
      </trkpt>
      <trkpt lat="43.1169" lon="5.97425">
        <ele>-0.34</ele>
        <time>2015-06-28T08:07:56Z</time>
      </trkpt>
      <trkpt lat="43.11703" lon="5.97291">
        <ele>-5.15</ele>
        <time>2015-06-28T08:08:13Z</time>
      </trkpt>
      <trkpt lat="43.11747" lon="5.97195">
        <ele>-9.48</ele>
        <time>2015-06-28T08:08:27Z</time>
      </trkpt>
      <trkpt lat="43.11812" lon="5.97062">
        <ele>-9.48</ele>
        <time>2015-06-28T08:08:44Z</time>
      </trkpt>
      <trkpt lat="43.11912" lon="5.96965">
        <ele>-7.07</ele>
        <time>2015-06-28T08:09:02Z</time>
      </trkpt>
      <trkpt lat="43.11999" lon="5.96868">
        <ele>-6.11</ele>
        <time>2015-06-28T08:09:22Z</time>
      </trkpt>
      <trkpt lat="43.12096" lon="5.96782">
        <ele>-2.75</ele>
        <time>2015-06-28T08:09:41Z</time>
      </trkpt>
      <trkpt lat="43.12187" lon="5.96736">
        <ele>3.02</ele>
        <time>2015-06-28T08:09:53Z</time>
      </trkpt>
      <trkpt lat="43.12239" lon="5.96723">
        <ele>8.31</ele>
        <time>2015-06-28T08:10:03Z</time>
      </trkpt>
      <trkpt lat="43.12264" lon="5.96697">
        <ele>11.19</ele>
        <time>2015-06-28T08:10:09Z</time>
      </trkpt>
      <trkpt lat="43.12271" lon="5.96684">
        <ele>12.15</ele>
        <time>2015-06-28T08:10:11Z</time>
      </trkpt>
      <trkpt lat="43.12291" lon="5.96586">
        <ele>19.36</ele>
        <time>2015-06-28T08:10:24Z</time>
      </trkpt>
      <trkpt lat="43.12282" lon="5.96549">
        <ele>21.77</ele>
        <time>2015-06-28T08:10:29Z</time>
      </trkpt>
      <trkpt lat="43.12255" lon="5.96479">
        <ele>26.09</ele>
        <time>2015-06-28T08:10:39Z</time>
      </trkpt>
      <trkpt lat="43.12219" lon="5.96416">
        <ele>26.09</ele>
        <time>2015-06-28T08:10:51Z</time>
      </trkpt>
      <trkpt lat="43.12212" lon="5.96397">
        <ele>28.5</ele>
        <time>2015-06-28T08:10:56Z</time>
      </trkpt>
      <trkpt lat="43.12224" lon="5.96368">
        <ele>33.3</ele>
        <time>2015-06-28T08:11:01Z</time>
      </trkpt>
      <trkpt lat="43.12303" lon="5.9625">
        <ele>42.44</ele>
        <time>2015-06-28T08:11:21Z</time>
      </trkpt>
      <trkpt lat="43.12337" lon="5.96124">
        <ele>47.24</ele>
        <time>2015-06-28T08:11:37Z</time>
      </trkpt>
      <trkpt lat="43.12337" lon="5.96115">
        <ele>47.24</ele>
        <time>2015-06-28T08:11:38Z</time>
      </trkpt>
      <trkpt lat="43.12316" lon="5.95949">
        <ele>43.4</ele>
        <time>2015-06-28T08:11:55Z</time>
      </trkpt>
      <trkpt lat="43.12248" lon="5.95755">
        <ele>34.74</ele>
        <time>2015-06-28T08:12:16Z</time>
      </trkpt>
      <trkpt lat="43.12197" lon="5.95611">
        <ele>27.05</ele>
        <time>2015-06-28T08:12:34Z</time>
      </trkpt>
      <trkpt lat="43.12176" lon="5.95558">
        <ele>24.17</ele>
        <time>2015-06-28T08:12:44Z</time>
      </trkpt>
      <trkpt lat="43.1215" lon="5.95472">
        <ele>21.29</ele>
        <time>2015-06-28T08:12:58Z</time>
      </trkpt>
      <trkpt lat="43.121" lon="5.9535">
        <ele>18.88</ele>
        <time>2015-06-28T08:13:13Z</time>
      </trkpt>
      <trkpt lat="43.12043" lon="5.9519">
        <ele>16.96</ele>
        <time>2015-06-28T08:13:33Z</time>
      </trkpt>
      <trkpt lat="43.12031" lon="5.95118">
        <ele>16</ele>
        <time>2015-06-28T08:13:42Z</time>
      </trkpt>
      <trkpt lat="43.12012" lon="5.95082">
        <ele>16</ele>
        <time>2015-06-28T08:13:48Z</time>
      </trkpt>
      <trkpt lat="43.11984" lon="5.95016">
        <ele>15.04</ele>
        <time>2015-06-28T08:14:03Z</time>
      </trkpt>
      <trkpt lat="43.11978" lon="5.94968">
        <ele>14.08</ele>
        <time>2015-06-28T08:14:10Z</time>
      </trkpt>
      <trkpt lat="43.11981" lon="5.94942">
        <ele>15.04</ele>
        <time>2015-06-28T08:14:13Z</time>
      </trkpt>
      <trkpt lat="43.11984" lon="5.9492">
        <ele>16</ele>
        <time>2015-06-28T08:14:15Z</time>
      </trkpt>
      <trkpt lat="43.11965" lon="5.94838">
        <ele>16.48</ele>
        <time>2015-06-28T08:14:26Z</time>
      </trkpt>
      <trkpt lat="43.11931" lon="5.94771">
        <ele>16.48</ele>
        <time>2015-06-28T08:14:38Z</time>
      </trkpt>
      <trkpt lat="43.11872" lon="5.94663">
        <ele>16.48</ele>
        <time>2015-06-28T08:14:55Z</time>
      </trkpt>
      <trkpt lat="43.11843" lon="5.94632">
        <ele>15.04</ele>
        <time>2015-06-28T08:15:01Z</time>
      </trkpt>
      <trkpt lat="43.11826" lon="5.94619">
        <ele>15.04</ele>
        <time>2015-06-28T08:15:10Z</time>
      </trkpt>
      <trkpt lat="43.11822" lon="5.94616">
        <ele>15.04</ele>
        <time>2015-06-28T08:15:12Z</time>
      </trkpt>
      <trkpt lat="43.11783" lon="5.94547">
        <ele>15.52</ele>
        <time>2015-06-28T08:15:25Z</time>
      </trkpt>
      <trkpt lat="43.11711" lon="5.94441">
        <ele>14.56</ele>
        <time>2015-06-28T08:15:44Z</time>
      </trkpt>
      <trkpt lat="43.11644" lon="5.94365">
        <ele>12.63</ele>
        <time>2015-06-28T08:16:00Z</time>
      </trkpt>
      <trkpt lat="43.11575" lon="5.94326">
        <ele>12.15</ele>
        <time>2015-06-28T08:16:15Z</time>
      </trkpt>
      <trkpt lat="43.11566" lon="5.94325">
        <ele>11.67</ele>
        <time>2015-06-28T08:16:17Z</time>
      </trkpt>
      <trkpt lat="43.11534" lon="5.94322">
        <ele>12.15</ele>
        <time>2015-06-28T08:16:28Z</time>
      </trkpt>
      <trkpt lat="43.11465" lon="5.94252">
        <ele>14.08</ele>
        <time>2015-06-28T08:16:47Z</time>
      </trkpt>
      <trkpt lat="43.1139" lon="5.94149">
        <ele>14.56</ele>
        <time>2015-06-28T08:17:07Z</time>
      </trkpt>
      <trkpt lat="43.1135" lon="5.94057">
        <ele>11.67</ele>
        <time>2015-06-28T08:17:22Z</time>
      </trkpt>
      <trkpt lat="43.11346" lon="5.94037">
        <ele>7.83</ele>
        <time>2015-06-28T08:17:29Z</time>
      </trkpt>
      <trkpt lat="43.11344" lon="5.94024">
        <ele>6.39</ele>
        <time>2015-06-28T08:17:38Z</time>
      </trkpt>
      <trkpt lat="43.11338" lon="5.94023">
        <ele>5.91</ele>
        <time>2015-06-28T08:17:42Z</time>
      </trkpt>
      <trkpt lat="43.1127" lon="5.94005">
        <ele>7.35</ele>
        <time>2015-06-28T08:18:01Z</time>
      </trkpt>
      <trkpt lat="43.11229" lon="5.93914">
        <ele>9.75</ele>
        <time>2015-06-28T08:18:15Z</time>
      </trkpt>
      <trkpt lat="43.11208" lon="5.93849">
        <ele>9.27</ele>
        <time>2015-06-28T08:18:31Z</time>
      </trkpt>
      <trkpt lat="43.11206" lon="5.93766">
        <ele>16.96</ele>
        <time>2015-06-28T08:18:46Z</time>
      </trkpt>
      <trkpt lat="43.11186" lon="5.93679">
        <ele>21.29</ele>
        <time>2015-06-28T08:19:02Z</time>
      </trkpt>
      <trkpt lat="43.11185" lon="5.93583">
        <ele>21.77</ele>
        <time>2015-06-28T08:19:16Z</time>
      </trkpt>
      <trkpt lat="43.11199" lon="5.93451">
        <ele>17.92</ele>
        <time>2015-06-28T08:19:35Z</time>
      </trkpt>
      <trkpt lat="43.11212" lon="5.93416">
        <ele>18.4</ele>
        <time>2015-06-28T08:19:44Z</time>
      </trkpt>
      <trkpt lat="43.11215" lon="5.93411">
        <ele>18.88</ele>
        <time>2015-06-28T08:19:46Z</time>
      </trkpt>
      <trkpt lat="43.11272" lon="5.93418">
        <ele>22.25</ele>
        <time>2015-06-28T08:19:58Z</time>
      </trkpt>
      <trkpt lat="43.11357" lon="5.93479">
        <ele>27.53</ele>
        <time>2015-06-28T08:20:14Z</time>
      </trkpt>
      <trkpt lat="43.11437" lon="5.93493">
        <ele>34.74</ele>
        <time>2015-06-28T08:20:27Z</time>
      </trkpt>
      <trkpt lat="43.11561" lon="5.93508">
        <ele>44.84</ele>
        <time>2015-06-28T08:20:47Z</time>
      </trkpt>
      <trkpt lat="43.11663" lon="5.93525">
        <ele>44.84</ele>
        <time>2015-06-28T08:21:04Z</time>
      </trkpt>
      <trkpt lat="43.1172" lon="5.93529">
        <ele>44.84</ele>
        <time>2015-06-28T08:21:15Z</time>
      </trkpt>
      <trkpt lat="43.11739" lon="5.93539">
        <ele>44.84</ele>
        <time>2015-06-28T08:21:19Z</time>
      </trkpt>
      <trkpt lat="43.11756" lon="5.93566">
        <ele>43.88</ele>
        <time>2015-06-28T08:21:29Z</time>
      </trkpt>
      <trkpt lat="43.11759" lon="5.93585">
        <ele>41.95</ele>
        <time>2015-06-28T08:21:45Z</time>
      </trkpt>
      <trkpt lat="43.11775" lon="5.93615">
        <ele>40.99</ele>
        <time>2015-06-28T08:21:52Z</time>
      </trkpt>
      <trkpt lat="43.11808" lon="5.93601">
        <ele>39.55</ele>
        <time>2015-06-28T08:22:00Z</time>
      </trkpt>
      <trkpt lat="43.11875" lon="5.93511">
        <ele>37.15</ele>
        <time>2015-06-28T08:22:15Z</time>
      </trkpt>
      <trkpt lat="43.11891" lon="5.93479">
        <ele>39.07</ele>
        <time>2015-06-28T08:22:26Z</time>
      </trkpt>
      <trkpt lat="43.11891" lon="5.93479">
        <ele>39.07</ele>
        <time>2015-06-28T08:22:27Z</time>
      </trkpt>
      <trkpt lat="43.11911" lon="5.9346">
        <ele>47.72</ele>
        <time>2015-06-28T08:22:43Z</time>
      </trkpt>
      <trkpt lat="43.1196" lon="5.93369">
        <ele>61.18</ele>
        <time>2015-06-28T08:22:57Z</time>
      </trkpt>
      <trkpt lat="43.12042" lon="5.93205">
        <ele>75.6</ele>
        <time>2015-06-28T08:23:17Z</time>
      </trkpt>
      <trkpt lat="43.121" lon="5.9308">
        <ele>87.14</ele>
        <time>2015-06-28T08:23:34Z</time>
      </trkpt>
      <trkpt lat="43.12182" lon="5.92889">
        <ele>78.97</ele>
        <time>2015-06-28T08:23:53Z</time>
      </trkpt>
      <trkpt lat="43.12208" lon="5.92869">
        <ele>78</ele>
        <time>2015-06-28T08:23:59Z</time>
      </trkpt>
      <trkpt lat="43.12227" lon="5.92876">
        <ele>73.2</ele>
        <time>2015-06-28T08:24:09Z</time>
      </trkpt>
      <trkpt lat="43.12287" lon="5.92913">
        <ele>70.79</ele>
        <time>2015-06-28T08:24:23Z</time>
      </trkpt>
      <trkpt lat="43.123" lon="5.92909">
        <ele>68.87</ele>
        <time>2015-06-28T08:24:27Z</time>
      </trkpt>
      <trkpt lat="43.12356" lon="5.9281">
        <ele>63.58</ele>
        <time>2015-06-28T08:24:43Z</time>
      </trkpt>
      <trkpt lat="43.12428" lon="5.92644">
        <ele>57.82</ele>
        <time>2015-06-28T08:25:05Z</time>
      </trkpt>
      <trkpt lat="43.12498" lon="5.92486">
        <ele>50.61</ele>
        <time>2015-06-28T08:25:27Z</time>
      </trkpt>
      <trkpt lat="43.12564" lon="5.92335">
        <ele>44.36</ele>
        <time>2015-06-28T08:25:48Z</time>
      </trkpt>
      <trkpt lat="43.12611" lon="5.92215">
        <ele>40.51</ele>
        <time>2015-06-28T08:26:06Z</time>
      </trkpt>
      <trkpt lat="43.12605" lon="5.92221">
        <ele>40.99</ele>
        <time>2015-06-28T08:26:19Z</time>
      </trkpt>
      <trkpt lat="43.12599" lon="5.92224">
        <ele>40.99</ele>
        <time>2015-06-28T08:26:37Z</time>
      </trkpt>
      <trkpt lat="43.12591" lon="5.92197">
        <ele>42.92</ele>
        <time>2015-06-28T08:26:46Z</time>
      </trkpt>
      <trkpt lat="43.12629" lon="5.92119">
        <ele>47.24</ele>
        <time>2015-06-28T08:26:57Z</time>
      </trkpt>
      <trkpt lat="43.12676" lon="5.92001">
        <ele>51.09</ele>
        <time>2015-06-28T08:27:12Z</time>
      </trkpt>
      <trkpt lat="43.12698" lon="5.91912">
        <ele>48.68</ele>
        <time>2015-06-28T08:27:23Z</time>
      </trkpt>
      <trkpt lat="43.12683" lon="5.91796">
        <ele>46.28</ele>
        <time>2015-06-28T08:27:38Z</time>
      </trkpt>
      <trkpt lat="43.12649" lon="5.91678">
        <ele>45.32</ele>
        <time>2015-06-28T08:27:55Z</time>
      </trkpt>
      <trkpt lat="43.12647" lon="5.91672">
        <ele>45.32</ele>
        <time>2015-06-28T08:27:56Z</time>
      </trkpt>
      <trkpt lat="43.12637" lon="5.91649">
        <ele>41.47</ele>
        <time>2015-06-28T08:27:59Z</time>
      </trkpt>
      <trkpt lat="43.12642" lon="5.91521">
        <ele>38.59</ele>
        <time>2015-06-28T08:28:15Z</time>
      </trkpt>
      <trkpt lat="43.12658" lon="5.91437">
        <ele>34.74</ele>
        <time>2015-06-28T08:28:25Z</time>
      </trkpt>
      <trkpt lat="43.1265" lon="5.91411">
        <ele>34.74</ele>
        <time>2015-06-28T08:28:31Z</time>
      </trkpt>
      <trkpt lat="43.12622" lon="5.9141">
        <ele>32.82</ele>
        <time>2015-06-28T08:28:45Z</time>
      </trkpt>
      <trkpt lat="43.12616" lon="5.91379">
        <ele>31.38</ele>
        <time>2015-06-28T08:28:55Z</time>
      </trkpt>
      <trkpt lat="43.12607" lon="5.91343">
        <ele>29.46</ele>
        <time>2015-06-28T08:29:01Z</time>
      </trkpt>
      <trkpt lat="43.12598" lon="5.91077">
        <ele>25.61</ele>
        <time>2015-06-28T08:29:21Z</time>
      </trkpt>
      <trkpt lat="43.12572" lon="5.90944">
        <ele>24.17</ele>
        <time>2015-06-28T08:29:35Z</time>
      </trkpt>
      <trkpt lat="43.12537" lon="5.90854">
        <ele>21.77</ele>
        <time>2015-06-28T08:29:50Z</time>
      </trkpt>
      <trkpt lat="43.12467" lon="5.90732">
        <ele>16.96</ele>
        <time>2015-06-28T08:30:08Z</time>
      </trkpt>
      <trkpt lat="43.12456" lon="5.90709">
        <ele>16</ele>
        <time>2015-06-28T08:30:11Z</time>
      </trkpt>
      <trkpt lat="43.12453" lon="5.90676">
        <ele>14.56</ele>
        <time>2015-06-28T08:30:15Z</time>
      </trkpt>
      <trkpt lat="43.12458" lon="5.90515">
        <ele>11.19</ele>
        <time>2015-06-28T08:30:31Z</time>
      </trkpt>
      <trkpt lat="43.12424" lon="5.9038">
        <ele>9.27</ele>
        <time>2015-06-28T08:30:46Z</time>
      </trkpt>
      <trkpt lat="43.12418" lon="5.9037">
        <ele>8.79</ele>
        <time>2015-06-28T08:30:48Z</time>
      </trkpt>
      <trkpt lat="43.12389" lon="5.90357">
        <ele>11.19</ele>
        <time>2015-06-28T08:30:58Z</time>
      </trkpt>
      <trkpt lat="43.12403" lon="5.90347">
        <ele>15.04</ele>
        <time>2015-06-28T08:31:04Z</time>
      </trkpt>
      <trkpt lat="43.12493" lon="5.9035">
        <ele>21.77</ele>
        <time>2015-06-28T08:31:24Z</time>
      </trkpt>
      <trkpt lat="43.12498" lon="5.90352">
        <ele>21.77</ele>
        <time>2015-06-28T08:31:25Z</time>
      </trkpt>
      <trkpt lat="43.1255" lon="5.90379">
        <ele>22.73</ele>
        <time>2015-06-28T08:31:39Z</time>
      </trkpt>
      <trkpt lat="43.12593" lon="5.90454">
        <ele>32.34</ele>
        <time>2015-06-28T08:31:54Z</time>
      </trkpt>
      <trkpt lat="43.12687" lon="5.90547">
        <ele>32.82</ele>
        <time>2015-06-28T08:32:10Z</time>
      </trkpt>
      <trkpt lat="43.12753" lon="5.90614">
        <ele>33.78</ele>
        <time>2015-06-28T08:32:24Z</time>
      </trkpt>
      <trkpt lat="43.12763" lon="5.90632">
        <ele>34.26</ele>
        <time>2015-06-28T08:32:28Z</time>
      </trkpt>
      <trkpt lat="43.12776" lon="5.90652">
        <ele>33.78</ele>
        <time>2015-06-28T08:32:31Z</time>
      </trkpt>
      <trkpt lat="43.12792" lon="5.90699">
        <ele>32.34</ele>
        <time>2015-06-28T08:32:35Z</time>
      </trkpt>
      <trkpt lat="43.12827" lon="5.90875">
        <ele>31.38</ele>
        <time>2015-06-28T08:32:54Z</time>
      </trkpt>
      <trkpt lat="43.12848" lon="5.90996">
        <ele>31.86</ele>
        <time>2015-06-28T08:33:10Z</time>
      </trkpt>
      <trkpt lat="43.12889" lon="5.90993">
        <ele>34.74</ele>
        <time>2015-06-28T08:33:20Z</time>
      </trkpt>
      <trkpt lat="43.12986" lon="5.9098">
        <ele>37.63</ele>
        <time>2015-06-28T08:33:36Z</time>
      </trkpt>
      <trkpt lat="43.13054" lon="5.90968">
        <ele>38.11</ele>
        <time>2015-06-28T08:33:50Z</time>
      </trkpt>
      <trkpt lat="43.13133" lon="5.90952">
        <ele>37.15</ele>
        <time>2015-06-28T08:34:05Z</time>
      </trkpt>
      <trkpt lat="43.13136" lon="5.90975">
        <ele>33.78</ele>
        <time>2015-06-28T08:34:15Z</time>
      </trkpt>
      <trkpt lat="43.13155" lon="5.90971">
        <ele>34.74</ele>
        <time>2015-06-28T08:34:25Z</time>
      </trkpt>
      <trkpt lat="43.1325" lon="5.9097">
        <ele>36.19</ele>
        <time>2015-06-28T08:34:38Z</time>
      </trkpt>
      <trkpt lat="43.13352" lon="5.90941">
        <ele>26.57</ele>
        <time>2015-06-28T08:34:55Z</time>
      </trkpt>
      <trkpt lat="43.1345" lon="5.90923">
        <ele>22.25</ele>
        <time>2015-06-28T08:35:15Z</time>
      </trkpt>
      <trkpt lat="43.1354" lon="5.90913">
        <ele>22.73</ele>
        <time>2015-06-28T08:35:33Z</time>
      </trkpt>
      <trkpt lat="43.13564" lon="5.909">
        <ele>22.73</ele>
        <time>2015-06-28T08:35:39Z</time>
      </trkpt>
      <trkpt lat="43.13565" lon="5.90895">
        <ele>22.73</ele>
        <time>2015-06-28T08:35:41Z</time>
      </trkpt>
      <trkpt lat="43.13563" lon="5.9082">
        <ele>24.17</ele>
        <time>2015-06-28T08:35:55Z</time>
      </trkpt>
      <trkpt lat="43.13616" lon="5.90808">
        <ele>23.69</ele>
        <time>2015-06-28T08:36:09Z</time>
      </trkpt>
      <trkpt lat="43.1363" lon="5.90809">
        <ele>24.17</ele>
        <time>2015-06-28T08:36:12Z</time>
      </trkpt>
      <trkpt lat="43.13688" lon="5.90816">
        <ele>26.57</ele>
        <time>2015-06-28T08:36:26Z</time>
      </trkpt>
      <trkpt lat="43.13711" lon="5.90812">
        <ele>26.09</ele>
        <time>2015-06-28T08:36:32Z</time>
      </trkpt>
      <trkpt lat="43.13724" lon="5.90809">
        <ele>26.09</ele>
        <time>2015-06-28T08:36:35Z</time>
      </trkpt>
      <trkpt lat="43.13801" lon="5.90851">
        <ele>29.46</ele>
        <time>2015-06-28T08:36:51Z</time>
      </trkpt>
      <trkpt lat="43.13922" lon="5.90941">
        <ele>30.9</ele>
        <time>2015-06-28T08:37:13Z</time>
      </trkpt>
      <trkpt lat="43.14016" lon="5.91008">
        <ele>28.5</ele>
        <time>2015-06-28T08:37:31Z</time>
      </trkpt>
      <trkpt lat="43.14091" lon="5.91052">
        <ele>25.61</ele>
        <time>2015-06-28T08:37:46Z</time>
      </trkpt>
      <trkpt lat="43.14135" lon="5.91049">
        <ele>24.17</ele>
        <time>2015-06-28T08:37:56Z</time>
      </trkpt>
      <trkpt lat="43.14142" lon="5.91081">
        <ele>25.61</ele>
        <time>2015-06-28T08:38:05Z</time>
      </trkpt>
      <trkpt lat="43.14115" lon="5.9109">
        <ele>27.05</ele>
        <time>2015-06-28T08:38:10Z</time>
      </trkpt>
      <trkpt lat="43.14083" lon="5.91092">
        <ele>27.05</ele>
        <time>2015-06-28T08:38:14Z</time>
      </trkpt>
      <trkpt lat="43.14028" lon="5.91092">
        <ele>28.98</ele>
        <time>2015-06-28T08:38:27Z</time>
      </trkpt>
      <trkpt lat="43.13967" lon="5.91087">
        <ele>29.46</ele>
        <time>2015-06-28T08:38:38Z</time>
      </trkpt>
      <trkpt lat="43.13946" lon="5.91096">
        <ele>28.98</ele>
        <time>2015-06-28T08:38:42Z</time>
      </trkpt>
      <trkpt lat="43.13894" lon="5.91161">
        <ele>27.05</ele>
        <time>2015-06-28T08:38:57Z</time>
      </trkpt>
      <trkpt lat="43.13858" lon="5.91211">
        <ele>24.65</ele>
        <time>2015-06-28T08:39:12Z</time>
      </trkpt>
      <trkpt lat="43.13804" lon="5.91257">
        <ele>24.17</ele>
        <time>2015-06-28T08:39:26Z</time>
      </trkpt>
      <trkpt lat="43.13768" lon="5.91306">
        <ele>21.77</ele>
        <time>2015-06-28T08:39:38Z</time>
      </trkpt>
      <trkpt lat="43.13739" lon="5.91325">
        <ele>20.81</ele>
        <time>2015-06-28T08:39:48Z</time>
      </trkpt>
      <trkpt lat="43.137" lon="5.91364">
        <ele>19.84</ele>
        <time>2015-06-28T08:39:58Z</time>
      </trkpt>
      <trkpt lat="43.13675" lon="5.91396">
        <ele>19.36</ele>
        <time>2015-06-28T08:40:09Z</time>
      </trkpt>
      <trkpt lat="43.1363" lon="5.91434">
        <ele>21.29</ele>
        <time>2015-06-28T08:40:26Z</time>
      </trkpt>
      <trkpt lat="43.13568" lon="5.91492">
        <ele>22.73</ele>
        <time>2015-06-28T08:40:39Z</time>
      </trkpt>
      <trkpt lat="43.1349" lon="5.9155">
        <ele>20.32</ele>
        <time>2015-06-28T08:40:55Z</time>
      </trkpt>
      <trkpt lat="43.13494" lon="5.91583">
        <ele>21.29</ele>
        <time>2015-06-28T08:41:03Z</time>
      </trkpt>
      <trkpt lat="43.13495" lon="5.91627">
        <ele>23.69</ele>
        <time>2015-06-28T08:41:16Z</time>
      </trkpt>
      <trkpt lat="43.13501" lon="5.9163">
        <ele>24.17</ele>
        <time>2015-06-28T08:41:23Z</time>
      </trkpt>
      <trkpt lat="43.13548" lon="5.91649">
        <ele>24.65</ele>
        <time>2015-06-28T08:41:44Z</time>
      </trkpt>
      <trkpt lat="43.13566" lon="5.91612">
        <ele>26.09</ele>
        <time>2015-06-28T08:41:55Z</time>
      </trkpt>
      <trkpt lat="43.13561" lon="5.91633">
        <ele>25.61</ele>
        <time>2015-06-28T08:42:00Z</time>
      </trkpt>
      <trkpt lat="43.13582" lon="5.91654">
        <ele>27.05</ele>
        <time>2015-06-28T08:42:10Z</time>
      </trkpt>
      <trkpt lat="43.13641" lon="5.91664">
        <ele>27.53</ele>
        <time>2015-06-28T08:42:27Z</time>
      </trkpt>
      <trkpt lat="43.13686" lon="5.91688">
        <ele>32.82</ele>
        <time>2015-06-28T08:42:42Z</time>
      </trkpt>
      <trkpt lat="43.1371" lon="5.91703">
        <ele>34.26</ele>
        <time>2015-06-28T08:42:54Z</time>
      </trkpt>
      <trkpt lat="43.13711" lon="5.91687">
        <ele>38.59</ele>
        <time>2015-06-28T08:43:10Z</time>
      </trkpt>
      <trkpt lat="43.13707" lon="5.91684">
        <ele>39.55</ele>
        <time>2015-06-28T08:43:16Z</time>
      </trkpt>
      <trkpt lat="43.13709" lon="5.91619">
        <ele>43.4</ele>
        <time>2015-06-28T08:43:35Z</time>
      </trkpt>
      <trkpt lat="43.1378" lon="5.91449">
        <ele>40.51</ele>
        <time>2015-06-28T08:43:55Z</time>
      </trkpt>
      <trkpt lat="43.1379" lon="5.91444">
        <ele>40.99</ele>
        <time>2015-06-28T08:44:04Z</time>
      </trkpt>
      <trkpt lat="43.13786" lon="5.9149">
        <ele>47.24</ele>
        <time>2015-06-28T08:44:26Z</time>
      </trkpt>
      <trkpt lat="43.13782" lon="5.91542">
        <ele>52.05</ele>
        <time>2015-06-28T08:44:46Z</time>
      </trkpt>
      <trkpt lat="43.13771" lon="5.91621">
        <ele>61.18</ele>
        <time>2015-06-28T08:45:05Z</time>
      </trkpt>
      <trkpt lat="43.13776" lon="5.91689">
        <ele>63.58</ele>
        <time>2015-06-28T08:45:20Z</time>
      </trkpt>
      <trkpt lat="43.13817" lon="5.91717">
        <ele>66.47</ele>
        <time>2015-06-28T08:45:38Z</time>
      </trkpt>
      <trkpt lat="43.13846" lon="5.91704">
        <ele>69.35</ele>
        <time>2015-06-28T08:45:50Z</time>
      </trkpt>
      <trkpt lat="43.13847" lon="5.91692">
        <ele>69.83</ele>
        <time>2015-06-28T08:45:54Z</time>
      </trkpt>
      <trkpt lat="43.13832" lon="5.91646">
        <ele>74.64</ele>
        <time>2015-06-28T08:46:10Z</time>
      </trkpt>
      <trkpt lat="43.13828" lon="5.91618">
        <ele>75.12</ele>
        <time>2015-06-28T08:46:24Z</time>
      </trkpt>
      <trkpt lat="43.13829" lon="5.91607">
        <ele>74.64</ele>
        <time>2015-06-28T08:46:27Z</time>
      </trkpt>
      <trkpt lat="43.1387" lon="5.91547">
        <ele>78.97</ele>
        <time>2015-06-28T08:46:40Z</time>
      </trkpt>
      <trkpt lat="43.13865" lon="5.91486">
        <ele>77.52</ele>
        <time>2015-06-28T08:46:57Z</time>
      </trkpt>
      <trkpt lat="43.13865" lon="5.91485">
        <ele>77.52</ele>
        <time>2015-06-28T08:47:17Z</time>
      </trkpt>
      <trkpt lat="43.13875" lon="5.91476">
        <ele>75.12</ele>
        <time>2015-06-28T08:47:36Z</time>
      </trkpt>
      <trkpt lat="43.13877" lon="5.9147">
        <ele>71.76</ele>
        <time>2015-06-28T08:47:57Z</time>
      </trkpt>
      <trkpt lat="43.1388" lon="5.91462">
        <ele>73.68</ele>
        <time>2015-06-28T08:48:26Z</time>
      </trkpt>
      <trkpt lat="43.13882" lon="5.91457">
        <ele>73.2</ele>
        <time>2015-06-28T08:48:46Z</time>
      </trkpt>
      <trkpt lat="43.13881" lon="5.91462">
        <ele>68.87</ele>
        <time>2015-06-28T08:49:06Z</time>
      </trkpt>
      <trkpt lat="43.13882" lon="5.91465">
        <ele>65.99</ele>
        <time>2015-06-28T08:49:28Z</time>
      </trkpt>
    </trkseg>
  </trk>
</gpx>